﻿<?xml version="1.0" encoding="utf-8"?><gpx creator="Garmin Desktop App" version="1.1" xsi:schemaLocation="http://www.topografix.com/GPX/1/1 http://www.topografix.com/GPX/1/1/gpx.xsd http://www.garmin.com/xmlschemas/WaypointExtension/v1 http://www8.garmin.com/xmlschemas/WaypointExtensionv1.xsd http://www.garmin.com/xmlschemas/TrackPointExtension/v1 http://www.garmin.com/xmlschemas/TrackPointExtensionv1.xsd http://www.garmin.com/xmlschemas/GpxExtensions/v3 http://www8.garmin.com/xmlschemas/GpxExtensionsv3.xsd http://www.garmin.com/xmlschemas/ActivityExtension/v1 http://www8.garmin.com/xmlschemas/ActivityExtensionv1.xsd http://www.garmin.com/xmlschemas/AdventuresExtensions/v1 http://www8.garmin.com/xmlschemas/AdventuresExtensionv1.xsd http://www.garmin.com/xmlschemas/PressureExtension/v1 http://www.garmin.com/xmlschemas/PressureExtensionv1.xsd http://www.garmin.com/xmlschemas/TripExtensions/v1 http://www.garmin.com/xmlschemas/TripExtensionsv1.xsd http://www.garmin.com/xmlschemas/TripMetaDataExtensions/v1 http://www.garmin.com/xmlschemas/TripMetaDataExtensionsv1.xsd http://www.garmin.com/xmlschemas/ViaPointTransportationModeExtensions/v1 http://www.garmin.com/xmlschemas/ViaPointTransportationModeExtensionsv1.xsd http://www.garmin.com/xmlschemas/CreationTimeExtension/v1 http://www.garmin.com/xmlschemas/CreationTimeExtensionsv1.xsd http://www.garmin.com/xmlschemas/AccelerationExtension/v1 http://www.garmin.com/xmlschemas/AccelerationExtensionv1.xsd http://www.garmin.com/xmlschemas/PowerExtension/v1 http://www.garmin.com/xmlschemas/PowerExtensionv1.xsd http://www.garmin.com/xmlschemas/VideoExtension/v1 http://www.garmin.com/xmlschemas/VideoExtensionv1.xsd" xmlns="http://www.topografix.com/GPX/1/1" xmlns:xsi="http://www.w3.org/2001/XMLSchema-instance" xmlns:wptx1="http://www.garmin.com/xmlschemas/WaypointExtension/v1" xmlns:gpxtrx="http://www.garmin.com/xmlschemas/GpxExtensions/v3" xmlns:gpxtpx="http://www.garmin.com/xmlschemas/TrackPointExtension/v1" xmlns:gpxx="http://www.garmin.com/xmlschemas/GpxExtensions/v3" xmlns:trp="http://www.garmin.com/xmlschemas/TripExtensions/v1" xmlns:adv="http://www.garmin.com/xmlschemas/AdventuresExtensions/v1" xmlns:prs="http://www.garmin.com/xmlschemas/PressureExtension/v1" xmlns:tmd="http://www.garmin.com/xmlschemas/TripMetaDataExtensions/v1" xmlns:vptm="http://www.garmin.com/xmlschemas/ViaPointTransportationModeExtensions/v1" xmlns:ctx="http://www.garmin.com/xmlschemas/CreationTimeExtension/v1" xmlns:gpxacc="http://www.garmin.com/xmlschemas/AccelerationExtension/v1" xmlns:gpxpx="http://www.garmin.com/xmlschemas/PowerExtension/v1" xmlns:vidx1="http://www.garmin.com/xmlschemas/VideoExtension/v1">

  <metadata>
    <link href="http://www.garmin.com">
      <text>Garmin International</text>
    </link>
    <time>2025-05-05T09:54:29Z</time>
    <bounds maxlat="51.709221974015236" maxlon="5.674220966175199" minlat="51.611298965290189" minlon="5.148578993976116" />
  </metadata>

  <trk>
    <name>2025B2rustendejagerBiezenmortel</name>
    <extensions>
      <gpxx:TrackExtension>
        <gpxx:DisplayColor>Red</gpxx:DisplayColor>
      </gpxx:TrackExtension>
    </extensions>
    <trkseg>
      <trkpt lat="51.696847015991807" lon="5.674220966175199">
        <ele>20.759080999999998</ele>
        <time>2025-05-05T09:17:40Z</time>
      </trkpt>
      <trkpt lat="51.696792030707002" lon="5.674146031960845">
        <ele>20.759080999999998</ele>
        <time>2025-05-05T09:17:42Z</time>
      </trkpt>
      <trkpt lat="51.696632020175457" lon="5.674017034471035">
        <ele>20.759080999999998</ele>
        <time>2025-05-05T09:17:45Z</time>
      </trkpt>
      <trkpt lat="51.696494976058602" lon="5.673966994509101">
        <ele>20.759080999999998</ele>
        <time>2025-05-05T09:17:48Z</time>
      </trkpt>
      <trkpt lat="51.69584303162992" lon="5.673605985939503">
        <ele>20.768364999999999</ele>
        <time>2025-05-05T09:18:03Z</time>
      </trkpt>
      <trkpt lat="51.695710010826588" lon="5.67353599704802">
        <ele>20.775528000000001</ele>
        <time>2025-05-05T09:18:05Z</time>
      </trkpt>
      <trkpt lat="51.695658965036273" lon="5.673500038683415">
        <ele>20.778378</ele>
        <time>2025-05-05T09:18:07Z</time>
      </trkpt>
      <trkpt lat="51.695629963651299" lon="5.673482017591596">
        <ele>20.779969000000001</ele>
        <time>2025-05-05T09:18:07Z</time>
      </trkpt>
      <trkpt lat="51.695408010855317" lon="5.673342039808631">
        <ele>20.792172000000001</ele>
        <time>2025-05-05T09:18:12Z</time>
      </trkpt>
      <trkpt lat="51.695310026407242" lon="5.673280013725162">
        <ele>20.797561000000002</ele>
        <time>2025-05-05T09:18:14Z</time>
      </trkpt>
      <trkpt lat="51.695012971758842" lon="5.672979019582272">
        <ele>20.815518000000001</ele>
        <time>2025-05-05T09:18:21Z</time>
      </trkpt>
      <trkpt lat="51.694782972335815" lon="5.67278497852385">
        <ele>20.828806</ele>
        <time>2025-05-05T09:18:26Z</time>
      </trkpt>
      <trkpt lat="51.694654980674386" lon="5.672735022380948">
        <ele>20.835547999999999</ele>
        <time>2025-05-05T09:18:29Z</time>
      </trkpt>
      <trkpt lat="51.694608964025974" lon="5.672574006021023">
        <ele>20.841173999999999</ele>
        <time>2025-05-05T09:18:31Z</time>
      </trkpt>
      <trkpt lat="51.694353986531496" lon="5.672191036865115">
        <ele>20.841511000000001</ele>
        <time>2025-05-05T09:18:39Z</time>
      </trkpt>
      <trkpt lat="51.694184001535177" lon="5.671826004981995">
        <ele>20.823678000000001</ele>
        <time>2025-05-05T09:18:44Z</time>
      </trkpt>
      <trkpt lat="51.694022985175252" lon="5.671460973098874">
        <ele>20.806180000000001</ele>
        <time>2025-05-05T09:18:50Z</time>
      </trkpt>
      <trkpt lat="51.693943021818995" lon="5.671255029737949">
        <ele>20.796685</ele>
        <time>2025-05-05T09:18:53Z</time>
      </trkpt>
      <trkpt lat="51.693907985463738" lon="5.671051014214754">
        <ele>20.788418</ele>
        <time>2025-05-05T09:18:55Z</time>
      </trkpt>
      <trkpt lat="51.69384403154254" lon="5.67087197676301">
        <ele>20.780346000000002</ele>
        <time>2025-05-05T09:18:57Z</time>
      </trkpt>
      <trkpt lat="51.693735988810658" lon="5.670790001749992">
        <ele>20.772825000000001</ele>
        <time>2025-05-05T09:18:59Z</time>
      </trkpt>
      <trkpt lat="51.693043978884816" lon="5.669765984639525">
        <ele>20.724886999999999</ele>
        <time>2025-05-05T09:19:12Z</time>
      </trkpt>
      <trkpt lat="51.692920010536909" lon="5.669600022956729">
        <ele>20.719452</ele>
        <time>2025-05-05T09:19:14Z</time>
      </trkpt>
      <trkpt lat="51.690532006323338" lon="5.666042994707823">
        <ele>20.874931</ele>
        <time>2025-05-05T09:20:03Z</time>
      </trkpt>
      <trkpt lat="51.689157960936427" lon="5.663877027109265">
        <ele>21.400300000000001</ele>
        <time>2025-05-05T09:20:34Z</time>
      </trkpt>
      <trkpt lat="51.688535017892718" lon="5.662847980856895">
        <ele>21.673348000000001</ele>
        <time>2025-05-05T09:20:48Z</time>
      </trkpt>
      <trkpt lat="51.688315998762846" lon="5.662472974509001">
        <ele>21.771151</ele>
        <time>2025-05-05T09:20:53Z</time>
      </trkpt>
      <trkpt lat="51.687989020720124" lon="5.661921026185155">
        <ele>21.852917000000001</ele>
        <time>2025-05-05T09:21:01Z</time>
      </trkpt>
      <trkpt lat="51.687945015728474" lon="5.661840979009867">
        <ele>21.852888</ele>
        <time>2025-05-05T09:21:02Z</time>
      </trkpt>
      <trkpt lat="51.687976028770208" lon="5.6618030089885">
        <ele>21.852871</ele>
        <time>2025-05-05T09:21:03Z</time>
      </trkpt>
      <trkpt lat="51.687954990193248" lon="5.661549037322402">
        <ele>21.852802000000001</ele>
        <time>2025-05-05T09:21:05Z</time>
      </trkpt>
      <trkpt lat="51.687877960503101" lon="5.661594970151782">
        <ele>21.852765999999999</ele>
        <time>2025-05-05T09:21:06Z</time>
      </trkpt>
      <trkpt lat="51.687826998531818" lon="5.661625983193517">
        <ele>21.852743</ele>
        <time>2025-05-05T09:21:07Z</time>
      </trkpt>
      <trkpt lat="51.687806965783238" lon="5.661639980971813">
        <ele>21.852733000000001</ele>
        <time>2025-05-05T09:21:07Z</time>
      </trkpt>
      <trkpt lat="51.687719039618969" lon="5.661493968218565">
        <ele>21.852678000000001</ele>
        <time>2025-05-05T09:21:09Z</time>
      </trkpt>
      <trkpt lat="51.687619965523481" lon="5.661291964352131">
        <ele>21.852609000000001</ele>
        <time>2025-05-05T09:21:12Z</time>
      </trkpt>
      <trkpt lat="51.687282007187605" lon="5.660734986886382">
        <ele>21.852398999999998</ele>
        <time>2025-05-05T09:21:19Z</time>
      </trkpt>
      <trkpt lat="51.686404002830386" lon="5.659250970929861">
        <ele>21.8459</ele>
        <time>2025-05-05T09:21:36Z</time>
      </trkpt>
      <trkpt lat="51.68604701757431" lon="5.658665997907519">
        <ele>21.842203000000001</ele>
        <time>2025-05-05T09:21:44Z</time>
      </trkpt>
      <trkpt lat="51.684789983555675" lon="5.656546968966723">
        <ele>22.445416000000002</ele>
        <time>2025-05-05T09:22:15Z</time>
      </trkpt>
      <trkpt lat="51.683514006435871" lon="5.654407991096377">
        <ele>22.888573999999998</ele>
        <time>2025-05-05T09:22:44Z</time>
      </trkpt>
      <trkpt lat="51.68336003087461" lon="5.654143039137125">
        <ele>22.930783000000002</ele>
        <time>2025-05-05T09:22:47Z</time>
      </trkpt>
      <trkpt lat="51.682221014052629" lon="5.652241017669439">
        <ele>22.698270999999998</ele>
        <time>2025-05-05T09:23:10Z</time>
      </trkpt>
      <trkpt lat="51.681054001674056" lon="5.65028702840209">
        <ele>22.511298</ele>
        <time>2025-05-05T09:23:34Z</time>
      </trkpt>
      <trkpt lat="51.680508004501462" lon="5.649368958547711">
        <ele>22.469260999999999</ele>
        <time>2025-05-05T09:23:46Z</time>
      </trkpt>
      <trkpt lat="51.679886989295483" lon="5.648318035528064">
        <ele>22.465059</ele>
        <time>2025-05-05T09:24:00Z</time>
      </trkpt>
      <trkpt lat="51.678719976916909" lon="5.646366979926825">
        <ele>21.956568999999998</ele>
        <time>2025-05-05T09:24:23Z</time>
      </trkpt>
      <trkpt lat="51.67854898609221" lon="5.646081995218992">
        <ele>21.849563</ele>
        <time>2025-05-05T09:24:28Z</time>
      </trkpt>
      <trkpt lat="51.678315969184041" lon="5.645686034113169">
        <ele>21.702265000000001</ele>
        <time>2025-05-05T09:24:32Z</time>
      </trkpt>
      <trkpt lat="51.677740970626473" lon="5.644732005894184">
        <ele>21.296977999999999</ele>
        <time>2025-05-05T09:24:43Z</time>
      </trkpt>
      <trkpt lat="51.676618969067931" lon="5.642844988033176">
        <ele>20.633844</ele>
        <time>2025-05-05T09:25:05Z</time>
      </trkpt>
      <trkpt lat="51.676564989611506" lon="5.642773993313313">
        <ele>20.615635999999999</ele>
        <time>2025-05-05T09:25:06Z</time>
      </trkpt>
      <trkpt lat="51.676465999335051" lon="5.6427470035851">
        <ele>20.589397999999999</ele>
        <time>2025-05-05T09:25:07Z</time>
      </trkpt>
      <trkpt lat="51.676321998238564" lon="5.642452966421843">
        <ele>20.528686</ele>
        <time>2025-05-05T09:25:12Z</time>
      </trkpt>
      <trkpt lat="51.676396010443568" lon="5.64238297753036">
        <ele>20.506267000000001</ele>
        <time>2025-05-05T09:25:13Z</time>
      </trkpt>
      <trkpt lat="51.676568007096648" lon="5.642218021675944">
        <ele>20.453966999999999</ele>
        <time>2025-05-05T09:25:17Z</time>
      </trkpt>
      <trkpt lat="51.676632966846228" lon="5.642157001420856">
        <ele>20.434314000000001</ele>
        <time>2025-05-05T09:25:19Z</time>
      </trkpt>
      <trkpt lat="51.676745032891631" lon="5.642052982002497">
        <ele>20.400541</ele>
        <time>2025-05-05T09:25:21Z</time>
      </trkpt>
      <trkpt lat="51.676824996247888" lon="5.641979975625873">
        <ele>20.376519999999999</ele>
        <time>2025-05-05T09:25:23Z</time>
      </trkpt>
      <trkpt lat="51.676967991515994" lon="5.641847038641572">
        <ele>20.333380999999999</ele>
        <time>2025-05-05T09:25:26Z</time>
      </trkpt>
      <trkpt lat="51.676881993189454" lon="5.641589965671301">
        <ele>20.342569999999998</ele>
        <time>2025-05-05T09:25:29Z</time>
      </trkpt>
      <trkpt lat="51.676802029833198" lon="5.641347980126739">
        <ele>20.372962000000001</ele>
        <time>2025-05-05T09:25:32Z</time>
      </trkpt>
      <trkpt lat="51.676599020138383" lon="5.640967022627592">
        <ele>20.428629999999998</ele>
        <time>2025-05-05T09:25:39Z</time>
      </trkpt>
      <trkpt lat="51.676266007125378" lon="5.639874022454023">
        <ele>20.563589</ele>
        <time>2025-05-05T09:25:55Z</time>
      </trkpt>
      <trkpt lat="51.675986973568797" lon="5.638704998418689">
        <ele>20.655308000000002</ele>
        <time>2025-05-05T09:26:12Z</time>
      </trkpt>
      <trkpt lat="51.675877002999187" lon="5.638051964342594">
        <ele>20.672722</ele>
        <time>2025-05-05T09:26:20Z</time>
      </trkpt>
      <trkpt lat="51.675666030496359" lon="5.636385977268219">
        <ele>20.714988999999999</ele>
        <time>2025-05-05T09:26:41Z</time>
      </trkpt>
      <trkpt lat="51.675163032487035" lon="5.631104959174991">
        <ele>20.478570000000001</ele>
        <time>2025-05-05T09:27:48Z</time>
      </trkpt>
      <trkpt lat="51.674330960959196" lon="5.622112015262246">
        <ele>18.395206999999999</ele>
        <time>2025-05-05T09:29:04Z</time>
      </trkpt>
      <trkpt lat="51.67431402951479" lon="5.621528970077634">
        <ele>18.359425999999999</ele>
        <time>2025-05-05T09:29:09Z</time>
      </trkpt>
      <trkpt lat="51.674210010096431" lon="5.621487982571125">
        <ele>18.350686</ele>
        <time>2025-05-05T09:29:10Z</time>
      </trkpt>
      <trkpt lat="51.674028038978577" lon="5.619602976366878">
        <ele>18.254102</ele>
        <time>2025-05-05T09:29:28Z</time>
      </trkpt>
      <trkpt lat="51.674049999564886" lon="5.619269963353872">
        <ele>18.230699000000001</ele>
        <time>2025-05-05T09:29:31Z</time>
      </trkpt>
      <trkpt lat="51.673433007672429" lon="5.612667035311461">
        <ele>17.016317999999998</ele>
        <time>2025-05-05T09:30:29Z</time>
      </trkpt>
      <trkpt lat="51.673451028764248" lon="5.612343996763229">
        <ele>16.930942000000002</ele>
        <time>2025-05-05T09:30:31Z</time>
      </trkpt>
      <trkpt lat="51.673597041517496" lon="5.61195801012218">
        <ele>16.811914999999999</ele>
        <time>2025-05-05T09:30:35Z</time>
      </trkpt>
      <trkpt lat="51.673635011538863" lon="5.611775033175945">
        <ele>16.761109000000001</ele>
        <time>2025-05-05T09:30:37Z</time>
      </trkpt>
      <trkpt lat="51.67350098490715" lon="5.610287999734283">
        <ele>16.404339</ele>
        <time>2025-05-05T09:30:49Z</time>
      </trkpt>
      <trkpt lat="51.673445999622345" lon="5.609736973419786">
        <ele>16.299880000000002</ele>
        <time>2025-05-05T09:30:54Z</time>
      </trkpt>
      <trkpt lat="51.673430996015668" lon="5.609575035050511">
        <ele>16.269221999999999</ele>
        <time>2025-05-05T09:30:55Z</time>
      </trkpt>
      <trkpt lat="51.673430996015668" lon="5.609565982595086">
        <ele>16.267537999999998</ele>
        <time>2025-05-05T09:30:55Z</time>
      </trkpt>
      <trkpt lat="51.673355977982283" lon="5.608764002099633">
        <ele>16.115729000000002</ele>
        <time>2025-05-05T09:31:02Z</time>
      </trkpt>
      <trkpt lat="51.673283977434039" lon="5.60798498801887">
        <ele>15.968311999999999</ele>
        <time>2025-05-05T09:31:09Z</time>
      </trkpt>
      <trkpt lat="51.673211976885796" lon="5.607203040271998">
        <ele>15.902509999999999</ele>
        <time>2025-05-05T09:31:16Z</time>
      </trkpt>
      <trkpt lat="51.673182975500822" lon="5.606891987845302">
        <ele>15.879056</ele>
        <time>2025-05-05T09:31:19Z</time>
      </trkpt>
      <trkpt lat="51.673137964680791" lon="5.606412040069699">
        <ele>15.842853</ele>
        <time>2025-05-05T09:31:23Z</time>
      </trkpt>
      <trkpt lat="51.673081973567605" lon="5.605817008763552">
        <ele>15.797971</ele>
        <time>2025-05-05T09:31:28Z</time>
      </trkpt>
      <trkpt lat="51.673058001324534" lon="5.60555599629879">
        <ele>15.778294000000001</ele>
        <time>2025-05-05T09:31:31Z</time>
      </trkpt>
      <trkpt lat="51.673128996044397" lon="5.605370001867414">
        <ele>15.762005</ele>
        <time>2025-05-05T09:31:33Z</time>
      </trkpt>
      <trkpt lat="51.673116004094481" lon="5.605221977457404">
        <ele>15.750857999999999</ele>
        <time>2025-05-05T09:31:35Z</time>
      </trkpt>
      <trkpt lat="51.67307099327445" lon="5.604752004146576">
        <ele>15.757826</ele>
        <time>2025-05-05T09:31:41Z</time>
      </trkpt>
      <trkpt lat="51.67337198741734" lon="5.604336010292172">
        <ele>15.790285000000001</ele>
        <time>2025-05-05T09:31:49Z</time>
      </trkpt>
      <trkpt lat="51.673325970768929" lon="5.604246994480491">
        <ele>15.796168</ele>
        <time>2025-05-05T09:31:51Z</time>
      </trkpt>
      <trkpt lat="51.673293029889464" lon="5.604185974225402">
        <ele>15.800278</ele>
        <time>2025-05-05T09:31:52Z</time>
      </trkpt>
      <trkpt lat="51.67324198409915" lon="5.604088995605707">
        <ele>15.806735</ele>
        <time>2025-05-05T09:31:54Z</time>
      </trkpt>
      <trkpt lat="51.67326302267611" lon="5.60405102558434">
        <ele>15.80932</ele>
        <time>2025-05-05T09:31:54Z</time>
      </trkpt>
      <trkpt lat="51.673637023195624" lon="5.603552972897887">
        <ele>15.849033</ele>
        <time>2025-05-05T09:32:05Z</time>
      </trkpt>
      <trkpt lat="51.673496039584279" lon="5.603366978466511">
        <ele>15.863949</ele>
        <time>2025-05-05T09:32:07Z</time>
      </trkpt>
      <trkpt lat="51.673152968287468" lon="5.603133039548993">
        <ele>15.854399000000001</ele>
        <time>2025-05-05T09:32:13Z</time>
      </trkpt>
      <trkpt lat="51.672116965055466" lon="5.601928979158402">
        <ele>15.318312000000001</ele>
        <time>2025-05-05T09:32:30Z</time>
      </trkpt>
      <trkpt lat="51.672116965055466" lon="5.601787995547056">
        <ele>15.281604</ele>
        <time>2025-05-05T09:32:31Z</time>
      </trkpt>
      <trkpt lat="51.672142026945949" lon="5.60037899762392">
        <ele>15.099278999999999</ele>
        <time>2025-05-05T09:32:42Z</time>
      </trkpt>
      <trkpt lat="51.671733995899558" lon="5.600400036200881">
        <ele>15.072914000000001</ele>
        <time>2025-05-05T09:32:48Z</time>
      </trkpt>
      <trkpt lat="51.670710984617472" lon="5.600548982620239">
        <ele>15.018916000000001</ele>
        <time>2025-05-05T09:33:05Z</time>
      </trkpt>
      <trkpt lat="51.670567989349365" lon="5.600516041740775">
        <ele>15.020975999999999</ele>
        <time>2025-05-05T09:33:08Z</time>
      </trkpt>
      <trkpt lat="51.67051300406456" lon="5.600351002067328">
        <ele>15.022633000000001</ele>
        <time>2025-05-05T09:33:09Z</time>
      </trkpt>
      <trkpt lat="51.670504035428166" lon="5.599618004634976">
        <ele>15.029118</ele>
        <time>2025-05-05T09:33:16Z</time>
      </trkpt>
      <trkpt lat="51.67051300406456" lon="5.599408037960529">
        <ele>15.03098</ele>
        <time>2025-05-05T09:33:18Z</time>
      </trkpt>
      <trkpt lat="51.670618029311299" lon="5.599124981090426">
        <ele>15.033897</ele>
        <time>2025-05-05T09:33:21Z</time>
      </trkpt>
      <trkpt lat="51.670639989897609" lon="5.598982991650701">
        <ele>15.035192</ele>
        <time>2025-05-05T09:33:22Z</time>
      </trkpt>
      <trkpt lat="51.670634038746357" lon="5.598589964210987">
        <ele>15.038669000000001</ele>
        <time>2025-05-05T09:33:26Z</time>
      </trkpt>
      <trkpt lat="51.670394986867905" lon="5.598588958382607">
        <ele>15.042078</ele>
        <time>2025-05-05T09:33:29Z</time>
      </trkpt>
      <trkpt lat="51.670328015461564" lon="5.598598010838032">
        <ele>15.040281999999999</ele>
        <time>2025-05-05T09:33:30Z</time>
      </trkpt>
      <trkpt lat="51.669317996129394" lon="5.598862962797284">
        <ele>14.997469000000001</ele>
        <time>2025-05-05T09:33:45Z</time>
      </trkpt>
      <trkpt lat="51.669140970334411" lon="5.598867991939187">
        <ele>14.990062999999999</ele>
        <time>2025-05-05T09:33:47Z</time>
      </trkpt>
      <trkpt lat="51.668903008103371" lon="5.598740000277758">
        <ele>14.979566</ele>
        <time>2025-05-05T09:33:51Z</time>
      </trkpt>
      <trkpt lat="51.66838500648737" lon="5.59822996146977">
        <ele>14.887423</ele>
        <time>2025-05-05T09:34:01Z</time>
      </trkpt>
      <trkpt lat="51.668071020394564" lon="5.59801203198731">
        <ele>14.799173</ele>
        <time>2025-05-05T09:34:05Z</time>
      </trkpt>
      <trkpt lat="51.667842026799917" lon="5.597919998690486">
        <ele>14.738251</ele>
        <time>2025-05-05T09:34:09Z</time>
      </trkpt>
      <trkpt lat="51.667087990790606" lon="5.59752001427114">
        <ele>14.53335</ele>
        <time>2025-05-05T09:34:20Z</time>
      </trkpt>
      <trkpt lat="51.666662022471428" lon="5.597118018195033">
        <ele>14.417590000000001</ele>
        <time>2025-05-05T09:34:26Z</time>
      </trkpt>
      <trkpt lat="51.666074031963944" lon="5.596503959968686">
        <ele>14.258516999999999</ele>
        <time>2025-05-05T09:34:35Z</time>
      </trkpt>
      <trkpt lat="51.665799021720886" lon="5.596139011904597">
        <ele>14.177635</ele>
        <time>2025-05-05T09:34:41Z</time>
      </trkpt>
      <trkpt lat="51.665615038946271" lon="5.595798036083579">
        <ele>14.113979</ele>
        <time>2025-05-05T09:34:45Z</time>
      </trkpt>
      <trkpt lat="51.665434995666146" lon="5.595385981723666">
        <ele>14.118758</ele>
        <time>2025-05-05T09:34:50Z</time>
      </trkpt>
      <trkpt lat="51.66499100625515" lon="5.594220981001854">
        <ele>14.210193</ele>
        <time>2025-05-05T09:35:03Z</time>
      </trkpt>
      <trkpt lat="51.664431011304259" lon="5.59208401478827">
        <ele>13.73837</ele>
        <time>2025-05-05T09:35:24Z</time>
      </trkpt>
      <trkpt lat="51.664265971630812" lon="5.591383958235383">
        <ele>13.380941999999999</ele>
        <time>2025-05-05T09:35:30Z</time>
      </trkpt>
      <trkpt lat="51.664135968312621" lon="5.59000002220273">
        <ele>12.549906999999999</ele>
        <time>2025-05-05T09:35:40Z</time>
      </trkpt>
      <trkpt lat="51.664076959714293" lon="5.58961596339941">
        <ele>12.200343999999999</ele>
        <time>2025-05-05T09:35:43Z</time>
      </trkpt>
      <trkpt lat="51.663966989144683" lon="5.589146995916963">
        <ele>11.757291</ele>
        <time>2025-05-05T09:35:46Z</time>
      </trkpt>
      <trkpt lat="51.663761967793107" lon="5.588317019864917">
        <ele>10.967883</ele>
        <time>2025-05-05T09:35:53Z</time>
      </trkpt>
      <trkpt lat="51.663539009168744" lon="5.587248997762799">
        <ele>10.192637</ele>
        <time>2025-05-05T09:36:01Z</time>
      </trkpt>
      <trkpt lat="51.663404982537031" lon="5.586307039484382">
        <ele>9.847887</ele>
        <time>2025-05-05T09:36:08Z</time>
      </trkpt>
      <trkpt lat="51.663339016959071" lon="5.585434986278415">
        <ele>9.534522000000001</ele>
        <time>2025-05-05T09:36:16Z</time>
      </trkpt>
      <trkpt lat="51.663328036665916" lon="5.585260977968574">
        <ele>9.472132</ele>
        <time>2025-05-05T09:36:17Z</time>
      </trkpt>
      <trkpt lat="51.662987982854247" lon="5.57988197542727">
        <ele>9.848735</ele>
        <time>2025-05-05T09:37:10Z</time>
      </trkpt>
      <trkpt lat="51.662940038368106" lon="5.579547034576535">
        <ele>9.884632</ele>
        <time>2025-05-05T09:37:13Z</time>
      </trkpt>
      <trkpt lat="51.662838030606508" lon="5.579104973003268">
        <ele>9.933869</ele>
        <time>2025-05-05T09:37:18Z</time>
      </trkpt>
      <trkpt lat="51.662685982882977" lon="5.578696019947529">
        <ele>9.953614</ele>
        <time>2025-05-05T09:37:22Z</time>
      </trkpt>
      <trkpt lat="51.662489008158445" lon="5.578340040519834">
        <ele>9.970725</ele>
        <time>2025-05-05T09:37:26Z</time>
      </trkpt>
      <trkpt lat="51.661632964387536" lon="5.577159030362964">
        <ele>10.035874</ele>
        <time>2025-05-05T09:37:44Z</time>
      </trkpt>
      <trkpt lat="51.661420986056328" lon="5.576825011521578">
        <ele>9.995293</ele>
        <time>2025-05-05T09:37:48Z</time>
      </trkpt>
      <trkpt lat="51.660999963060021" lon="5.576016996055841">
        <ele>9.836573</ele>
        <time>2025-05-05T09:37:57Z</time>
      </trkpt>
      <trkpt lat="51.660697963088751" lon="5.575229013338685">
        <ele>9.697248999999999</ele>
        <time>2025-05-05T09:38:05Z</time>
      </trkpt>
      <trkpt lat="51.660617999732494" lon="5.574964983388782">
        <ele>9.653055</ele>
        <time>2025-05-05T09:38:07Z</time>
      </trkpt>
      <trkpt lat="51.660097986459732" lon="5.572904041036964">
        <ele>9.352413</ele>
        <time>2025-05-05T09:38:26Z</time>
      </trkpt>
      <trkpt lat="51.659694984555244" lon="5.571235036477447">
        <ele>9.329931999999999</ele>
        <time>2025-05-05T09:38:43Z</time>
      </trkpt>
      <trkpt lat="51.659460039809346" lon="5.569048030301929">
        <ele>9.622153000000001</ele>
        <time>2025-05-05T09:39:05Z</time>
      </trkpt>
      <trkpt lat="51.659401031211019" lon="5.568595994263887">
        <ele>9.652525000000001</ele>
        <time>2025-05-05T09:39:10Z</time>
      </trkpt>
      <trkpt lat="51.659219982102513" lon="5.567800970748067">
        <ele>9.708211</ele>
        <time>2025-05-05T09:39:18Z</time>
      </trkpt>
      <trkpt lat="51.659066006541252" lon="5.567194037139416">
        <ele>9.751334</ele>
        <time>2025-05-05T09:39:24Z</time>
      </trkpt>
      <trkpt lat="51.659015966579318" lon="5.566909974440932">
        <ele>9.770746000000001</ele>
        <time>2025-05-05T09:39:27Z</time>
      </trkpt>
      <trkpt lat="51.658947989344597" lon="5.564809972420335">
        <ele>9.593211999999999</ele>
        <time>2025-05-05T09:39:45Z</time>
      </trkpt>
      <trkpt lat="51.658919993788004" lon="5.564448041841388">
        <ele>9.544525</ele>
        <time>2025-05-05T09:39:48Z</time>
      </trkpt>
      <trkpt lat="51.65886702015996" lon="5.564193986356258">
        <ele>9.508759</ele>
        <time>2025-05-05T09:39:51Z</time>
      </trkpt>
      <trkpt lat="51.658723019063473" lon="5.563791990280151">
        <ele>9.446805</ele>
        <time>2025-05-05T09:39:55Z</time>
      </trkpt>
      <trkpt lat="51.658563008531928" lon="5.563486972823739">
        <ele>9.377011</ele>
        <time>2025-05-05T09:39:58Z</time>
      </trkpt>
      <trkpt lat="51.658390006050467" lon="5.563225038349628">
        <ele>9.29133</ele>
        <time>2025-05-05T09:40:02Z</time>
      </trkpt>
      <trkpt lat="51.65805397555232" lon="5.562805021181703">
        <ele>9.137858</ele>
        <time>2025-05-05T09:40:07Z</time>
      </trkpt>
      <trkpt lat="51.657809978350997" lon="5.56264903396368">
        <ele>9.043111</ele>
        <time>2025-05-05T09:40:11Z</time>
      </trkpt>
      <trkpt lat="51.657628007233143" lon="5.56241400539875">
        <ele>8.95894</ele>
        <time>2025-05-05T09:40:14Z</time>
      </trkpt>
      <trkpt lat="51.657475959509611" lon="5.562118962407112">
        <ele>8.87307</ele>
        <time>2025-05-05T09:40:17Z</time>
      </trkpt>
      <trkpt lat="51.657227016985416" lon="5.561349000781775">
        <ele>8.746214</ele>
        <time>2025-05-05T09:40:24Z</time>
      </trkpt>
      <trkpt lat="51.657226011157036" lon="5.56129502132535">
        <ele>8.743205</ele>
        <time>2025-05-05T09:40:25Z</time>
      </trkpt>
      <trkpt lat="51.657258030027151" lon="5.561244981363416">
        <ele>8.739204000000001</ele>
        <time>2025-05-05T09:40:25Z</time>
      </trkpt>
      <trkpt lat="51.656305007636547" lon="5.558326989412308">
        <ele>8.691841999999999</ele>
        <time>2025-05-05T09:40:56Z</time>
      </trkpt>
      <trkpt lat="51.656112978234887" lon="5.557737993076444">
        <ele>8.752729</ele>
        <time>2025-05-05T09:41:02Z</time>
      </trkpt>
      <trkpt lat="51.656039971858263" lon="5.557414032518864">
        <ele>8.784273000000001</ele>
        <time>2025-05-05T09:41:06Z</time>
      </trkpt>
      <trkpt lat="51.655626995489001" lon="5.555111020803452">
        <ele>9.137943</ele>
        <time>2025-05-05T09:41:29Z</time>
      </trkpt>
      <trkpt lat="51.655421974137425" lon="5.553863039240241">
        <ele>9.376982999999999</ele>
        <time>2025-05-05T09:41:42Z</time>
      </trkpt>
      <trkpt lat="51.65542901493609" lon="5.553647037595511">
        <ele>9.420441</ele>
        <time>2025-05-05T09:41:44Z</time>
      </trkpt>
      <trkpt lat="51.654471969231963" lon="5.552986040711403">
        <ele>9.867072</ele>
        <time>2025-05-05T09:42:02Z</time>
      </trkpt>
      <trkpt lat="51.654113978147507" lon="5.552684962749481">
        <ele>10.040281999999999</ele>
        <time>2025-05-05T09:42:09Z</time>
      </trkpt>
      <trkpt lat="51.653981963172555" lon="5.552538027986884">
        <ele>10.109107</ele>
        <time>2025-05-05T09:42:11Z</time>
      </trkpt>
      <trkpt lat="51.653486005961895" lon="5.551946014165878">
        <ele>10.177174000000001</ele>
        <time>2025-05-05T09:42:21Z</time>
      </trkpt>
      <trkpt lat="51.653250977396965" lon="5.551761025562882">
        <ele>10.175062</ele>
        <time>2025-05-05T09:42:25Z</time>
      </trkpt>
      <trkpt lat="51.653032964095473" lon="5.551668992266059">
        <ele>10.173242999999999</ele>
        <time>2025-05-05T09:42:28Z</time>
      </trkpt>
      <trkpt lat="51.652500964701176" lon="5.551576036959887">
        <ele>10.168922</ele>
        <time>2025-05-05T09:42:36Z</time>
      </trkpt>
      <trkpt lat="51.652124030515552" lon="5.55147796869278">
        <ele>10.148645999999999</ele>
        <time>2025-05-05T09:42:41Z</time>
      </trkpt>
      <trkpt lat="51.652114978060126" lon="5.550218001008034">
        <ele>9.899124000000001</ele>
        <time>2025-05-05T09:42:52Z</time>
      </trkpt>
      <trkpt lat="51.652112966403365" lon="5.549032967537642">
        <ele>9.664467999999999</ele>
        <time>2025-05-05T09:43:02Z</time>
      </trkpt>
      <trkpt lat="51.652108021080494" lon="5.546217989176512">
        <ele>8.636006999999999</ele>
        <time>2025-05-05T09:43:25Z</time>
      </trkpt>
      <trkpt lat="51.651366977021098" lon="5.546118998900056">
        <ele>8.322214000000001</ele>
        <time>2025-05-05T09:43:34Z</time>
      </trkpt>
      <trkpt lat="51.651105964556336" lon="5.546025959774852">
        <ele>8.242535999999999</ele>
        <time>2025-05-05T09:43:38Z</time>
      </trkpt>
      <trkpt lat="51.651104036718607" lon="5.545854968950152">
        <ele>8.210903999999999</ele>
        <time>2025-05-05T09:43:39Z</time>
      </trkpt>
      <trkpt lat="51.651093978434801" lon="5.544232986867428">
        <ele>7.925826</ele>
        <time>2025-05-05T09:43:54Z</time>
      </trkpt>
      <trkpt lat="51.651110993698239" lon="5.54400097578764">
        <ele>7.929362</ele>
        <time>2025-05-05T09:43:56Z</time>
      </trkpt>
      <trkpt lat="51.651188023388386" lon="5.543852029368281">
        <ele>7.932297</ele>
        <time>2025-05-05T09:43:58Z</time>
      </trkpt>
      <trkpt lat="51.651245020329952" lon="5.543821016326547">
        <ele>7.933765</ele>
        <time>2025-05-05T09:43:59Z</time>
      </trkpt>
      <trkpt lat="51.651817001402378" lon="5.543694030493498">
        <ele>7.94785</ele>
        <time>2025-05-05T09:44:07Z</time>
      </trkpt>
      <trkpt lat="51.651909034699202" lon="5.5435920227319">
        <ele>7.950574</ele>
        <time>2025-05-05T09:44:09Z</time>
      </trkpt>
      <trkpt lat="51.651947004720569" lon="5.543498983606696">
        <ele>7.952259</ele>
        <time>2025-05-05T09:44:10Z</time>
      </trkpt>
      <trkpt lat="51.652096034958959" lon="5.542446970939636">
        <ele>7.968632</ele>
        <time>2025-05-05T09:44:20Z</time>
      </trkpt>
      <trkpt lat="51.652346989139915" lon="5.540882991626859">
        <ele>8.05397</ele>
        <time>2025-05-05T09:44:35Z</time>
      </trkpt>
      <trkpt lat="51.652454026043415" lon="5.538747031241655">
        <ele>8.186009</ele>
        <time>2025-05-05T09:44:56Z</time>
      </trkpt>
      <trkpt lat="51.652474980801344" lon="5.537912026047707">
        <ele>8.248449000000001</ele>
        <time>2025-05-05T09:45:04Z</time>
      </trkpt>
      <trkpt lat="51.652604984119534" lon="5.536692040041089">
        <ele>8.338645</ele>
        <time>2025-05-05T09:45:15Z</time>
      </trkpt>
      <trkpt lat="51.652652006596327" lon="5.536162974312902">
        <ele>8.343610999999999</ele>
        <time>2025-05-05T09:45:20Z</time>
      </trkpt>
      <trkpt lat="51.652774969115853" lon="5.534219965338707">
        <ele>8.361761</ele>
        <time>2025-05-05T09:45:38Z</time>
      </trkpt>
      <trkpt lat="51.652819979935884" lon="5.533865997567773">
        <ele>8.365119</ele>
        <time>2025-05-05T09:45:42Z</time>
      </trkpt>
      <trkpt lat="51.653677029535174" lon="5.52872302941978">
        <ele>7.940831</ele>
        <time>2025-05-05T09:46:29Z</time>
      </trkpt>
      <trkpt lat="51.653850032016635" lon="5.527880983427167">
        <ele>7.880949</ele>
        <time>2025-05-05T09:46:37Z</time>
      </trkpt>
      <trkpt lat="51.654242975637317" lon="5.526381963863969">
        <ele>7.789885</ele>
        <time>2025-05-05T09:46:52Z</time>
      </trkpt>
      <trkpt lat="51.65452997200191" lon="5.524696027860045">
        <ele>7.677175</ele>
        <time>2025-05-05T09:47:07Z</time>
      </trkpt>
      <trkpt lat="51.65456903167069" lon="5.524268969893456">
        <ele>7.645689</ele>
        <time>2025-05-05T09:47:11Z</time>
      </trkpt>
      <trkpt lat="51.654643965885043" lon="5.522202998399735">
        <ele>7.509613</ele>
        <time>2025-05-05T09:47:30Z</time>
      </trkpt>
      <trkpt lat="51.654632985591888" lon="5.521659012883902">
        <ele>7.486894</ele>
        <time>2025-05-05T09:47:35Z</time>
      </trkpt>
      <trkpt lat="51.65409604087472" lon="5.514971008524299">
        <ele>7.146196</ele>
        <time>2025-05-05T09:48:35Z</time>
      </trkpt>
      <trkpt lat="51.654052035883069" lon="5.514639001339674">
        <ele>7.121808</ele>
        <time>2025-05-05T09:48:38Z</time>
      </trkpt>
      <trkpt lat="51.653880039229989" lon="5.513720009475946">
        <ele>7.0988</ele>
        <time>2025-05-05T09:48:47Z</time>
      </trkpt>
      <trkpt lat="51.653782976791263" lon="5.513279037550092">
        <ele>7.1237</ele>
        <time>2025-05-05T09:48:51Z</time>
      </trkpt>
      <trkpt lat="51.652603978291154" lon="5.507392007857561">
        <ele>7.619409</ele>
        <time>2025-05-05T09:49:51Z</time>
      </trkpt>
      <trkpt lat="51.651953039690852" lon="5.504029020667076">
        <ele>7.623022</ele>
        <time>2025-05-05T09:50:23Z</time>
      </trkpt>
      <trkpt lat="51.651426991447806" lon="5.501487040892243">
        <ele>7.314821</ele>
        <time>2025-05-05T09:50:47Z</time>
      </trkpt>
      <trkpt lat="51.651409976184368" lon="5.501403976231813">
        <ele>7.300626</ele>
        <time>2025-05-05T09:50:47Z</time>
      </trkpt>
      <trkpt lat="51.651179976761341" lon="5.5002770293504">
        <ele>7.108449</ele>
        <time>2025-05-05T09:50:57Z</time>
      </trkpt>
      <trkpt lat="51.650836989283562" lon="5.499071963131428">
        <ele>7.150633</ele>
        <time>2025-05-05T09:51:09Z</time>
      </trkpt>
      <trkpt lat="51.650734981521964" lon="5.49847299233079">
        <ele>7.170397</ele>
        <time>2025-05-05T09:51:14Z</time>
      </trkpt>
      <trkpt lat="51.650539012625813" lon="5.49696802161634">
        <ele>7.404527</ele>
        <time>2025-05-05T09:51:31Z</time>
      </trkpt>
      <trkpt lat="51.650444967672229" lon="5.496386988088489">
        <ele>7.612619</ele>
        <time>2025-05-05T09:51:38Z</time>
      </trkpt>
      <trkpt lat="51.650318987667561" lon="5.495743006467819">
        <ele>7.846646</ele>
        <time>2025-05-05T09:51:45Z</time>
      </trkpt>
      <trkpt lat="51.650213040411472" lon="5.495179994031787">
        <ele>8.050554</ele>
        <time>2025-05-05T09:51:51Z</time>
      </trkpt>
      <trkpt lat="51.650163000449538" lon="5.494599966332316">
        <ele>8.216165999999999</ele>
        <time>2025-05-05T09:51:57Z</time>
      </trkpt>
      <trkpt lat="51.650168029591441" lon="5.494199981912971">
        <ele>8.247455</ele>
        <time>2025-05-05T09:52:01Z</time>
      </trkpt>
      <trkpt lat="51.650320999324322" lon="5.493041016161442">
        <ele>8.340125000000001</ele>
        <time>2025-05-05T09:52:12Z</time>
      </trkpt>
      <trkpt lat="51.650347989052534" lon="5.492631979286671">
        <ele>8.372292</ele>
        <time>2025-05-05T09:52:16Z</time>
      </trkpt>
      <trkpt lat="51.650359975174069" lon="5.490080025047064">
        <ele>8.475281000000001</ele>
        <time>2025-05-05T09:52:40Z</time>
      </trkpt>
      <trkpt lat="51.650396017357707" lon="5.489530004560947">
        <ele>8.488664999999999</ele>
        <time>2025-05-05T09:52:45Z</time>
      </trkpt>
      <trkpt lat="51.650387970730662" lon="5.489206966012716">
        <ele>8.496487</ele>
        <time>2025-05-05T09:52:48Z</time>
      </trkpt>
      <trkpt lat="51.650313958525658" lon="5.488986019045115">
        <ele>8.501089</ele>
        <time>2025-05-05T09:52:50Z</time>
      </trkpt>
      <trkpt lat="51.650006007403135" lon="5.488371038809419">
        <ele>8.452318999999999</ele>
        <time>2025-05-05T09:52:57Z</time>
      </trkpt>
      <trkpt lat="51.64982202462852" lon="5.488084964454174">
        <ele>8.426895999999999</ele>
        <time>2025-05-05T09:53:01Z</time>
      </trkpt>
      <trkpt lat="51.649605017155409" lon="5.487858988344669">
        <ele>8.401199999999999</ele>
        <time>2025-05-05T09:53:04Z</time>
      </trkpt>
      <trkpt lat="51.649638963863254" lon="5.487725967541337">
        <ele>8.392324</ele>
        <time>2025-05-05T09:53:06Z</time>
      </trkpt>
      <trkpt lat="51.649660002440214" lon="5.487019959837198">
        <ele>8.348708</ele>
        <time>2025-05-05T09:53:15Z</time>
      </trkpt>
      <trkpt lat="51.649720016866922" lon="5.48654998652637">
        <ele>8.337533000000001</ele>
        <time>2025-05-05T09:53:21Z</time>
      </trkpt>
      <trkpt lat="51.649836022406816" lon="5.486043971031904">
        <ele>8.451461999999999</ele>
        <time>2025-05-05T09:53:28Z</time>
      </trkpt>
      <trkpt lat="51.650096029043198" lon="5.484973015263677">
        <ele>8.694354000000001</ele>
        <time>2025-05-05T09:53:43Z</time>
      </trkpt>
      <trkpt lat="51.6501459851861" lon="5.484726000577211">
        <ele>8.749226</ele>
        <time>2025-05-05T09:53:47Z</time>
      </trkpt>
      <trkpt lat="51.650170041248202" lon="5.484600020572543">
        <ele>8.777063</ele>
        <time>2025-05-05T09:53:49Z</time>
      </trkpt>
      <trkpt lat="51.650415966287255" lon="5.484178997576237">
        <ele>8.8992</ele>
        <time>2025-05-05T09:53:57Z</time>
      </trkpt>
      <trkpt lat="51.650319993495941" lon="5.483961990103126">
        <ele>8.942842000000001</ele>
        <time>2025-05-05T09:54:00Z</time>
      </trkpt>
      <trkpt lat="51.650279005989432" lon="5.483878003433347">
        <ele>8.951131</ele>
        <time>2025-05-05T09:54:01Z</time>
      </trkpt>
      <trkpt lat="51.649382980540395" lon="5.482852980494499">
        <ele>9.088467</ele>
        <time>2025-05-05T09:54:17Z</time>
      </trkpt>
      <trkpt lat="51.64932900108397" lon="5.482787014916539">
        <ele>9.096938</ele>
        <time>2025-05-05T09:54:18Z</time>
      </trkpt>
      <trkpt lat="51.64782302454114" lon="5.481131002306938">
        <ele>9.143392</ele>
        <time>2025-05-05T09:54:46Z</time>
      </trkpt>
      <trkpt lat="51.647715987637639" lon="5.480963028967381">
        <ele>9.14147</ele>
        <time>2025-05-05T09:54:48Z</time>
      </trkpt>
      <trkpt lat="51.64780299179256" lon="5.48074996098876">
        <ele>9.139435000000001</ele>
        <time>2025-05-05T09:54:50Z</time>
      </trkpt>
      <trkpt lat="51.647994015365839" lon="5.480228019878268">
        <ele>9.082852000000001</ele>
        <time>2025-05-05T09:54:56Z</time>
      </trkpt>
      <trkpt lat="51.648151008412242" lon="5.479667019098997">
        <ele>8.979651000000001</ele>
        <time>2025-05-05T09:55:01Z</time>
      </trkpt>
      <trkpt lat="51.64818998426199" lon="5.479569034650922">
        <ele>8.960127</ele>
        <time>2025-05-05T09:55:02Z</time>
      </trkpt>
      <trkpt lat="51.648208005353808" lon="5.479412041604519">
        <ele>8.933354</ele>
        <time>2025-05-05T09:55:03Z</time>
      </trkpt>
      <trkpt lat="51.648374972864985" lon="5.478336978703737">
        <ele>8.747521000000001</ele>
        <time>2025-05-05T09:55:12Z</time>
      </trkpt>
      <trkpt lat="51.648449990898371" lon="5.478194989264011">
        <ele>8.716250000000001</ele>
        <time>2025-05-05T09:55:14Z</time>
      </trkpt>
      <trkpt lat="51.648412020877004" lon="5.477988962084055">
        <ele>8.680211</ele>
        <time>2025-05-05T09:55:16Z</time>
      </trkpt>
      <trkpt lat="51.648455020040274" lon="5.477724010124803">
        <ele>8.650855999999999</ele>
        <time>2025-05-05T09:55:18Z</time>
      </trkpt>
      <trkpt lat="51.648528026416898" lon="5.477303992956877">
        <ele>8.649864000000001</ele>
        <time>2025-05-05T09:55:23Z</time>
      </trkpt>
      <trkpt lat="51.648709997534752" lon="5.476417019963265">
        <ele>8.647739</ele>
        <time>2025-05-05T09:55:32Z</time>
      </trkpt>
      <trkpt lat="51.649016020819545" lon="5.475058984011412">
        <ele>8.646322</ele>
        <time>2025-05-05T09:55:49Z</time>
      </trkpt>
      <trkpt lat="51.649060025811195" lon="5.474875001236796">
        <ele>8.668058</ele>
        <time>2025-05-05T09:55:52Z</time>
      </trkpt>
      <trkpt lat="51.649369988590479" lon="5.473570022732019">
        <ele>8.822088000000001</ele>
        <time>2025-05-05T09:56:10Z</time>
      </trkpt>
      <trkpt lat="51.649575009942055" lon="5.472758989781141">
        <ele>8.918616999999999</ele>
        <time>2025-05-05T09:56:18Z</time>
      </trkpt>
      <trkpt lat="51.649667965248227" lon="5.472295973449945">
        <ele>8.970087</ele>
        <time>2025-05-05T09:56:23Z</time>
      </trkpt>
      <trkpt lat="51.649799980223179" lon="5.47180999070406">
        <ele>9.013139000000001</ele>
        <time>2025-05-05T09:56:28Z</time>
      </trkpt>
      <trkpt lat="51.650099968537688" lon="5.470869960263372">
        <ele>9.098917</ele>
        <time>2025-05-05T09:56:39Z</time>
      </trkpt>
      <trkpt lat="51.650427030399442" lon="5.469879973679781">
        <ele>9.189928</ele>
        <time>2025-05-05T09:56:49Z</time>
      </trkpt>
      <trkpt lat="51.650616964325309" lon="5.469413017854095">
        <ele>9.178592999999999</ele>
        <time>2025-05-05T09:56:54Z</time>
      </trkpt>
      <trkpt lat="51.650869008153677" lon="5.468876995146275">
        <ele>9.147247</ele>
        <time>2025-05-05T09:57:01Z</time>
      </trkpt>
      <trkpt lat="51.650920975953341" lon="5.468774987384677">
        <ele>9.141094000000001</ele>
        <time>2025-05-05T09:57:02Z</time>
      </trkpt>
      <trkpt lat="51.650984007865191" lon="5.46863098628819">
        <ele>9.132880999999999</ele>
        <time>2025-05-05T09:57:03Z</time>
      </trkpt>
      <trkpt lat="51.651118034496903" lon="5.468367040157318">
        <ele>9.116982999999999</ele>
        <time>2025-05-05T09:57:06Z</time>
      </trkpt>
      <trkpt lat="51.65115600451827" lon="5.468211974948645">
        <ele>9.109215000000001</ele>
        <time>2025-05-05T09:57:08Z</time>
      </trkpt>
      <trkpt lat="51.651303023099899" lon="5.467564975842834">
        <ele>9.0771</ele>
        <time>2025-05-05T09:57:14Z</time>
      </trkpt>
      <trkpt lat="51.651320038363338" lon="5.467487024143338">
        <ele>9.073247</ele>
        <time>2025-05-05T09:57:15Z</time>
      </trkpt>
      <trkpt lat="51.651081992313266" lon="5.467325001955032">
        <ele>8.993722999999999</ele>
        <time>2025-05-05T09:57:18Z</time>
      </trkpt>
      <trkpt lat="51.650537000969052" lon="5.467175971716642">
        <ele>8.709898000000001</ele>
        <time>2025-05-05T09:57:26Z</time>
      </trkpt>
      <trkpt lat="51.650089994072914" lon="5.466988971456885">
        <ele>8.472783</ele>
        <time>2025-05-05T09:57:32Z</time>
      </trkpt>
      <trkpt lat="51.650010030716658" lon="5.466916970908642">
        <ele>8.425737</ele>
        <time>2025-05-05T09:57:34Z</time>
      </trkpt>
      <trkpt lat="51.649902993813157" lon="5.466827033087611">
        <ele>8.363766</ele>
        <time>2025-05-05T09:57:36Z</time>
      </trkpt>
      <trkpt lat="51.649695038795471" lon="5.466560991480947">
        <ele>8.227434000000001</ele>
        <time>2025-05-05T09:57:41Z</time>
      </trkpt>
      <trkpt lat="51.649470990523696" lon="5.466138040646911">
        <ele>8.008770999999999</ele>
        <time>2025-05-05T09:57:47Z</time>
      </trkpt>
      <trkpt lat="51.64926496334374" lon="5.465624984353781">
        <ele>7.724705</ele>
        <time>2025-05-05T09:57:54Z</time>
      </trkpt>
      <trkpt lat="51.649085003882647" lon="5.46519298106432">
        <ele>7.4828</ele>
        <time>2025-05-05T09:57:59Z</time>
      </trkpt>
      <trkpt lat="51.649037981405854" lon="5.464919982478023">
        <ele>7.351094</ele>
        <time>2025-05-05T09:58:02Z</time>
      </trkpt>
      <trkpt lat="51.648978972807527" lon="5.46474002301693">
        <ele>7.256458</ele>
        <time>2025-05-05T09:58:03Z</time>
      </trkpt>
      <trkpt lat="51.648922981694341" lon="5.464588981121779">
        <ele>7.174679</ele>
        <time>2025-05-05T09:58:05Z</time>
      </trkpt>
      <trkpt lat="51.648396011441946" lon="5.46360301785171">
        <ele>6.66611</ele>
        <time>2025-05-05T09:58:15Z</time>
      </trkpt>
      <trkpt lat="51.648328034207225" lon="5.46338701620698">
        <ele>6.602115</ele>
        <time>2025-05-05T09:58:17Z</time>
      </trkpt>
      <trkpt lat="51.648226026445627" lon="5.462540024891496">
        <ele>6.37415</ele>
        <time>2025-05-05T09:58:24Z</time>
      </trkpt>
      <trkpt lat="51.648083031177521" lon="5.462169041857123">
        <ele>6.258754</ele>
        <time>2025-05-05T09:58:28Z</time>
      </trkpt>
      <trkpt lat="51.647992003709078" lon="5.461881961673498">
        <ele>6.173597</ele>
        <time>2025-05-05T09:58:30Z</time>
      </trkpt>
      <trkpt lat="51.647765021771193" lon="5.461292965337634">
        <ele>6.011489</ele>
        <time>2025-05-05T09:58:37Z</time>
      </trkpt>
      <trkpt lat="51.647348022088408" lon="5.460607996210456">
        <ele>5.903391</ele>
        <time>2025-05-05T09:58:45Z</time>
      </trkpt>
      <trkpt lat="51.647092960774899" lon="5.460280012339354">
        <ele>5.844161</ele>
        <time>2025-05-05T09:58:50Z</time>
      </trkpt>
      <trkpt lat="51.646559033542871" lon="5.459772991016507">
        <ele>5.731645</ele>
        <time>2025-05-05T09:58:58Z</time>
      </trkpt>
      <trkpt lat="51.646605972200632" lon="5.459623960778117">
        <ele>5.712816</ele>
        <time>2025-05-05T09:59:00Z</time>
      </trkpt>
      <trkpt lat="51.646637991070747" lon="5.459286002442241">
        <ele>5.716157</ele>
        <time>2025-05-05T09:59:03Z</time>
      </trkpt>
      <trkpt lat="51.646859021857381" lon="5.458731958642602">
        <ele>5.759894</ele>
        <time>2025-05-05T09:59:09Z</time>
      </trkpt>
      <trkpt lat="51.64694300852716" lon="5.458370028063655">
        <ele>5.78556</ele>
        <time>2025-05-05T09:59:12Z</time>
      </trkpt>
      <trkpt lat="51.646949965506792" lon="5.458109015598893">
        <ele>5.802908</ele>
        <time>2025-05-05T09:59:15Z</time>
      </trkpt>
      <trkpt lat="51.64688098244369" lon="5.457733003422618">
        <ele>5.828947</ele>
        <time>2025-05-05T09:59:19Z</time>
      </trkpt>
      <trkpt lat="51.646788027137518" lon="5.457520019263029">
        <ele>5.846242</ele>
        <time>2025-05-05T09:59:21Z</time>
      </trkpt>
      <trkpt lat="51.646611001342535" lon="5.457248026505113">
        <ele>5.872417</ele>
        <time>2025-05-05T09:59:25Z</time>
      </trkpt>
      <trkpt lat="51.646583005785942" lon="5.457079969346523">
        <ele>5.883969</ele>
        <time>2025-05-05T09:59:27Z</time>
      </trkpt>
      <trkpt lat="51.646864973008633" lon="5.455242991447449">
        <ele>6.280421</ele>
        <time>2025-05-05T09:59:46Z</time>
      </trkpt>
      <trkpt lat="51.646868996322155" lon="5.454722978174686">
        <ele>6.395218</ele>
        <time>2025-05-05T09:59:51Z</time>
      </trkpt>
      <trkpt lat="51.64694401435554" lon="5.45382795855403">
        <ele>6.51527</ele>
        <time>2025-05-05T10:00:00Z</time>
      </trkpt>
      <trkpt lat="51.647047027945518" lon="5.453224964439869">
        <ele>6.475519</ele>
        <time>2025-05-05T10:00:06Z</time>
      </trkpt>
      <trkpt lat="51.64760903455317" lon="5.45062598772347">
        <ele>6.305416</ele>
        <time>2025-05-05T10:00:30Z</time>
      </trkpt>
      <trkpt lat="51.650587040930986" lon="5.438930969685316">
        <ele>5.569503</ele>
        <time>2025-05-05T10:02:24Z</time>
      </trkpt>
      <trkpt lat="51.651104958727956" lon="5.436886958777905">
        <ele>5.358702</ele>
        <time>2025-05-05T10:02:44Z</time>
      </trkpt>
      <trkpt lat="51.652855016291142" lon="5.430029975250363">
        <ele>4.408305</ele>
        <time>2025-05-05T10:03:48Z</time>
      </trkpt>
      <trkpt lat="51.654283041134477" lon="5.424415022134781">
        <ele>3.74617</ele>
        <time>2025-05-05T10:04:41Z</time>
      </trkpt>
      <trkpt lat="51.655955985188484" lon="5.417860960587859">
        <ele>3.857302</ele>
        <time>2025-05-05T10:05:47Z</time>
      </trkpt>
      <trkpt lat="51.656123958528042" lon="5.417329967021942">
        <ele>3.924718</ele>
        <time>2025-05-05T10:05:52Z</time>
      </trkpt>
      <trkpt lat="51.656716978177428" lon="5.415080012753606">
        <ele>4.379629</ele>
        <time>2025-05-05T10:06:17Z</time>
      </trkpt>
      <trkpt lat="51.656915964558721" lon="5.414623031392694">
        <ele>4.507833</ele>
        <time>2025-05-05T10:06:25Z</time>
      </trkpt>
      <trkpt lat="51.657030964270234" lon="5.414423039183021">
        <ele>4.570448</ele>
        <time>2025-05-05T10:06:29Z</time>
      </trkpt>
      <trkpt lat="51.657384010031819" lon="5.414003022015095">
        <ele>4.710217</ele>
        <time>2025-05-05T10:06:38Z</time>
      </trkpt>
      <trkpt lat="51.657518958672881" lon="5.413992963731289">
        <ele>4.731297</ele>
        <time>2025-05-05T10:06:41Z</time>
      </trkpt>
      <trkpt lat="51.657752981409431" lon="5.414154985919595">
        <ele>4.771021</ele>
        <time>2025-05-05T10:06:46Z</time>
      </trkpt>
      <trkpt lat="51.657909974455833" lon="5.414140988141298">
        <ele>4.795547</ele>
        <time>2025-05-05T10:06:50Z</time>
      </trkpt>
      <trkpt lat="51.657955991104245" lon="5.414135036990047">
        <ele>4.802746</ele>
        <time>2025-05-05T10:06:50Z</time>
      </trkpt>
      <trkpt lat="51.658153971657157" lon="5.414021965116262">
        <ele>4.835508</ele>
        <time>2025-05-05T10:06:53Z</time>
      </trkpt>
      <trkpt lat="51.658258996903896" lon="5.41386497206986">
        <ele>4.857848</ele>
        <time>2025-05-05T10:06:56Z</time>
      </trkpt>
      <trkpt lat="51.65830803103745" lon="5.413702027872205">
        <ele>4.875374</ele>
        <time>2025-05-05T10:06:57Z</time>
      </trkpt>
      <trkpt lat="51.658359998837113" lon="5.41251003742218">
        <ele>5.006069</ele>
        <time>2025-05-05T10:07:08Z</time>
      </trkpt>
      <trkpt lat="51.658382965251803" lon="5.412406018003821">
        <ele>5.026389</ele>
        <time>2025-05-05T10:07:10Z</time>
      </trkpt>
      <trkpt lat="51.658424958586693" lon="5.412268973886967">
        <ele>5.054514</ele>
        <time>2025-05-05T10:07:11Z</time>
      </trkpt>
      <trkpt lat="51.658657975494862" lon="5.411825990304351">
        <ele>5.161406</ele>
        <time>2025-05-05T10:07:17Z</time>
      </trkpt>
      <trkpt lat="51.658703992143273" lon="5.411657011136413">
        <ele>5.195371</ele>
        <time>2025-05-05T10:07:19Z</time>
      </trkpt>
      <trkpt lat="51.658693011850119" lon="5.411486020311713">
        <ele>5.227012</ele>
        <time>2025-05-05T10:07:21Z</time>
      </trkpt>
      <trkpt lat="51.65865303017199" lon="5.411374038085342">
        <ele>5.250796</ele>
        <time>2025-05-05T10:07:22Z</time>
      </trkpt>
      <trkpt lat="51.658426970243454" lon="5.411072038114071">
        <ele>5.337888</ele>
        <time>2025-05-05T10:07:27Z</time>
      </trkpt>
      <trkpt lat="51.657331958413124" lon="5.409635966643691">
        <ele>5.483862</ele>
        <time>2025-05-05T10:07:49Z</time>
      </trkpt>
      <trkpt lat="51.657242020592093" lon="5.409568995237351">
        <ele>5.481019</ele>
        <time>2025-05-05T10:07:51Z</time>
      </trkpt>
      <trkpt lat="51.657144958153367" lon="5.409590033814311">
        <ele>5.478211</ele>
        <time>2025-05-05T10:07:52Z</time>
      </trkpt>
      <trkpt lat="51.657006992027164" lon="5.409837970510125">
        <ele>5.472283</ele>
        <time>2025-05-05T10:07:55Z</time>
      </trkpt>
      <trkpt lat="51.656694011762738" lon="5.410617990419269">
        <ele>5.451967</ele>
        <time>2025-05-05T10:08:03Z</time>
      </trkpt>
      <trkpt lat="51.656437022611499" lon="5.411362973973155">
        <ele>5.33584</ele>
        <time>2025-05-05T10:08:10Z</time>
      </trkpt>
      <trkpt lat="51.656302995979786" lon="5.411797994747758">
        <ele>5.269676</ele>
        <time>2025-05-05T10:08:14Z</time>
      </trkpt>
      <trkpt lat="51.656109960749745" lon="5.412557981908321">
        <ele>5.157801</ele>
        <time>2025-05-05T10:08:21Z</time>
      </trkpt>
      <trkpt lat="51.656220015138388" lon="5.412584971636534">
        <ele>5.133368</ele>
        <time>2025-05-05T10:08:23Z</time>
      </trkpt>
      <trkpt lat="51.656273994594812" lon="5.412548007443547">
        <ele>5.120483</ele>
        <time>2025-05-05T10:08:24Z</time>
      </trkpt>
      <trkpt lat="51.656459989026189" lon="5.411939984187484">
        <ele>5.082656</ele>
        <time>2025-05-05T10:08:30Z</time>
      </trkpt>
      <trkpt lat="51.656776992604136" lon="5.411061979830265">
        <ele>5.17142</ele>
        <time>2025-05-05T10:08:40Z</time>
      </trkpt>
      <trkpt lat="51.656911019235849" lon="5.410755034536123">
        <ele>5.204219</ele>
        <time>2025-05-05T10:08:44Z</time>
      </trkpt>
      <trkpt lat="51.657388033345342" lon="5.409850962460041">
        <ele>5.307915</ele>
        <time>2025-05-05T10:08:55Z</time>
      </trkpt>
      <trkpt lat="51.657475959509611" lon="5.409677959978581">
        <ele>5.294614</ele>
        <time>2025-05-05T10:08:57Z</time>
      </trkpt>
      <trkpt lat="51.658228989690542" lon="5.408012978732586">
        <ele>5.01189</ele>
        <time>2025-05-05T10:09:15Z</time>
      </trkpt>
      <trkpt lat="51.658664010465145" lon="5.407261960208416">
        <ele>4.905863</ele>
        <time>2025-05-05T10:09:24Z</time>
      </trkpt>
      <trkpt lat="51.659610997885466" lon="5.405759001150727">
        <ele>4.835548</ele>
        <time>2025-05-05T10:09:44Z</time>
      </trkpt>
      <trkpt lat="51.659655002877116" lon="5.405689012259245">
        <ele>4.832277</ele>
        <time>2025-05-05T10:09:44Z</time>
      </trkpt>
      <trkpt lat="51.661026030778885" lon="5.40350996889174">
        <ele>4.439018</ele>
        <time>2025-05-05T10:10:12Z</time>
      </trkpt>
      <trkpt lat="51.661515031009912" lon="5.402730032801628">
        <ele>4.25989</ele>
        <time>2025-05-05T10:10:21Z</time>
      </trkpt>
      <trkpt lat="51.661628019064665" lon="5.402493998408318">
        <ele>4.210881</ele>
        <time>2025-05-05T10:10:23Z</time>
      </trkpt>
      <trkpt lat="51.661814013496041" lon="5.401723030954599">
        <ele>4.074891</ele>
        <time>2025-05-05T10:10:30Z</time>
      </trkpt>
      <trkpt lat="51.662433017045259" lon="5.398764973506331">
        <ele>4.029205</ele>
        <time>2025-05-05T10:10:59Z</time>
      </trkpt>
      <trkpt lat="51.662489008158445" lon="5.398571016266942">
        <ele>4.036816</ele>
        <time>2025-05-05T10:11:01Z</time>
      </trkpt>
      <trkpt lat="51.662663016468287" lon="5.398169020190835">
        <ele>4.061281</ele>
        <time>2025-05-05T10:11:06Z</time>
      </trkpt>
      <trkpt lat="51.663302974775434" lon="5.397032015025616">
        <ele>4.19162</ele>
        <time>2025-05-05T10:11:21Z</time>
      </trkpt>
      <trkpt lat="51.663597011938691" lon="5.396332964301109">
        <ele>4.263314</ele>
        <time>2025-05-05T10:11:29Z</time>
      </trkpt>
      <trkpt lat="51.663693990558386" lon="5.395900961011648">
        <ele>4.313954</ele>
        <time>2025-05-05T10:11:33Z</time>
      </trkpt>
      <trkpt lat="51.663714023306966" lon="5.395392011851072">
        <ele>4.429479</ele>
        <time>2025-05-05T10:11:38Z</time>
      </trkpt>
      <trkpt lat="51.663613021373749" lon="5.394860012456775">
        <ele>4.555501</ele>
        <time>2025-05-05T10:11:44Z</time>
      </trkpt>
      <trkpt lat="51.66348896920681" lon="5.394558012485504">
        <ele>4.637538</ele>
        <time>2025-05-05T10:11:48Z</time>
      </trkpt>
      <trkpt lat="51.662983959540725" lon="5.393623011186719">
        <ele>4.918365</ele>
        <time>2025-05-05T10:12:00Z</time>
      </trkpt>
      <trkpt lat="51.663240026682615" lon="5.393312964588404">
        <ele>4.96175</ele>
        <time>2025-05-05T10:12:06Z</time>
      </trkpt>
      <trkpt lat="51.663870010524988" lon="5.393009958788753">
        <ele>4.989436</ele>
        <time>2025-05-05T10:12:15Z</time>
      </trkpt>
      <trkpt lat="51.663944022729993" lon="5.392925972118974">
        <ele>4.993248</ele>
        <time>2025-05-05T10:12:17Z</time>
      </trkpt>
      <trkpt lat="51.664042007178068" lon="5.392672000452876">
        <ele>5.001061</ele>
        <time>2025-05-05T10:12:19Z</time>
      </trkpt>
      <trkpt lat="51.664168993011117" lon="5.391925005242229">
        <ele>5.021294</ele>
        <time>2025-05-05T10:12:26Z</time>
      </trkpt>
      <trkpt lat="51.664219032973051" lon="5.391760971397162">
        <ele>5.026067</ele>
        <time>2025-05-05T10:12:28Z</time>
      </trkpt>
      <trkpt lat="51.664298996329308" lon="5.391623005270958">
        <ele>5.023869</ele>
        <time>2025-05-05T10:12:30Z</time>
      </trkpt>
      <trkpt lat="51.664393963292241" lon="5.391546981409192">
        <ele>5.018029</ele>
        <time>2025-05-05T10:12:31Z</time>
      </trkpt>
      <trkpt lat="51.664512986317277" lon="5.39154002442956">
        <ele>5.011472</ele>
        <time>2025-05-05T10:12:33Z</time>
      </trkpt>
      <trkpt lat="51.665135007351637" lon="5.391800031065941">
        <ele>4.976091</ele>
        <time>2025-05-05T10:12:42Z</time>
      </trkpt>
      <trkpt lat="51.665419992059469" lon="5.391300972551107">
        <ele>4.952924</ele>
        <time>2025-05-05T10:12:49Z</time>
      </trkpt>
      <trkpt lat="51.667695008218288" lon="5.387037014588714">
        <ele>4.590429</ele>
        <time>2025-05-05T10:13:39Z</time>
      </trkpt>
      <trkpt lat="51.667727027088404" lon="5.386978005990386">
        <ele>4.58697</ele>
        <time>2025-05-05T10:13:39Z</time>
      </trkpt>
      <trkpt lat="51.668442003428936" lon="5.38550497032702">
        <ele>4.602968</ele>
        <time>2025-05-05T10:13:57Z</time>
      </trkpt>
      <trkpt lat="51.670057028532028" lon="5.38243199698627">
        <ele>4.700227</ele>
        <time>2025-05-05T10:14:35Z</time>
      </trkpt>
      <trkpt lat="51.670092986896634" lon="5.382328983396292">
        <ele>4.700728</ele>
        <time>2025-05-05T10:14:36Z</time>
      </trkpt>
      <trkpt lat="51.669989973306656" lon="5.381953977048397">
        <ele>4.702468</ele>
        <time>2025-05-05T10:14:39Z</time>
      </trkpt>
      <trkpt lat="51.671312972903252" lon="5.380702978000045">
        <ele>4.250466</ele>
        <time>2025-05-05T10:15:09Z</time>
      </trkpt>
      <trkpt lat="51.67231997475028" lon="5.379750039428473">
        <ele>3.966644</ele>
        <time>2025-05-05T10:15:31Z</time>
      </trkpt>
      <trkpt lat="51.672449978068471" lon="5.379549963399768">
        <ele>3.929262</ele>
        <time>2025-05-05T10:15:34Z</time>
      </trkpt>
      <trkpt lat="51.672515021637082" lon="5.379118965938687">
        <ele>3.872033</ele>
        <time>2025-05-05T10:15:40Z</time>
      </trkpt>
      <trkpt lat="51.672559026628733" lon="5.378467021510005">
        <ele>3.787413</ele>
        <time>2025-05-05T10:15:48Z</time>
      </trkpt>
      <trkpt lat="51.672612000256777" lon="5.378054967150092">
        <ele>3.783672</ele>
        <time>2025-05-05T10:15:53Z</time>
      </trkpt>
      <trkpt lat="51.67332898825407" lon="5.375944990664721">
        <ele>4.111523</ele>
        <time>2025-05-05T10:16:25Z</time>
      </trkpt>
      <trkpt lat="51.673389002680779" lon="5.375714991241694">
        <ele>4.145523</ele>
        <time>2025-05-05T10:16:28Z</time>
      </trkpt>
      <trkpt lat="51.673428984358907" lon="5.37540502846241">
        <ele>4.150839</ele>
        <time>2025-05-05T10:16:32Z</time>
      </trkpt>
      <trkpt lat="51.673472989350557" lon="5.374243967235088">
        <ele>4.141614</ele>
        <time>2025-05-05T10:16:47Z</time>
      </trkpt>
      <trkpt lat="51.673621013760567" lon="5.373728983104229">
        <ele>4.137112</ele>
        <time>2025-05-05T10:16:54Z</time>
      </trkpt>
      <trkpt lat="51.673523029312491" lon="5.373610965907574">
        <ele>4.135547</ele>
        <time>2025-05-05T10:16:56Z</time>
      </trkpt>
      <trkpt lat="51.673445999622345" lon="5.373350959271193">
        <ele>4.133262</ele>
        <time>2025-05-05T10:16:58Z</time>
      </trkpt>
      <trkpt lat="51.673301998525858" lon="5.371682038530707">
        <ele>4.121102</ele>
        <time>2025-05-05T10:17:13Z</time>
      </trkpt>
      <trkpt lat="51.673200996592641" lon="5.370640000328422">
        <ele>4.113742</ele>
        <time>2025-05-05T10:17:23Z</time>
      </trkpt>
      <trkpt lat="51.673114998266101" lon="5.370374964550138">
        <ele>4.111655</ele>
        <time>2025-05-05T10:17:26Z</time>
      </trkpt>
      <trkpt lat="51.672978037968278" lon="5.370234986767173">
        <ele>4.10983</ele>
        <time>2025-05-05T10:17:28Z</time>
      </trkpt>
      <trkpt lat="51.673068981617689" lon="5.369844976812601">
        <ele>4.131366</ele>
        <time>2025-05-05T10:17:34Z</time>
      </trkpt>
      <trkpt lat="51.672974014654756" lon="5.369674991816282">
        <ele>4.143937</ele>
        <time>2025-05-05T10:17:36Z</time>
      </trkpt>
      <trkpt lat="51.672587022185326" lon="5.368735967203975">
        <ele>4.205874</ele>
        <time>2025-05-05T10:17:46Z</time>
      </trkpt>
      <trkpt lat="51.672184020280838" lon="5.367731982842088">
        <ele>4.266595</ele>
        <time>2025-05-05T10:17:58Z</time>
      </trkpt>
      <trkpt lat="51.671973969787359" lon="5.367140974849463">
        <ele>4.231433</ele>
        <time>2025-05-05T10:18:04Z</time>
      </trkpt>
      <trkpt lat="51.671784035861492" lon="5.36646799184382">
        <ele>4.193259</ele>
        <time>2025-05-05T10:18:11Z</time>
      </trkpt>
      <trkpt lat="51.671177018433809" lon="5.364332031458616">
        <ele>4.069405</ele>
        <time>2025-05-05T10:18:32Z</time>
      </trkpt>
      <trkpt lat="51.670812992379069" lon="5.363258980214596">
        <ele>4.00285</ele>
        <time>2025-05-05T10:18:43Z</time>
      </trkpt>
      <trkpt lat="51.670332038775086" lon="5.362285003066063">
        <ele>3.953599</ele>
        <time>2025-05-05T10:18:54Z</time>
      </trkpt>
      <trkpt lat="51.670222990214825" lon="5.361890969797969">
        <ele>3.946597</ele>
        <time>2025-05-05T10:18:58Z</time>
      </trkpt>
      <trkpt lat="51.67044997215271" lon="5.361754009500146">
        <ele>3.940255</ele>
        <time>2025-05-05T10:19:02Z</time>
      </trkpt>
      <trkpt lat="51.670630015432835" lon="5.361593998968601">
        <ele>3.934876</ele>
        <time>2025-05-05T10:19:05Z</time>
      </trkpt>
      <trkpt lat="51.670860014855862" lon="5.361324017867446">
        <ele>3.927431</ele>
        <time>2025-05-05T10:19:09Z</time>
      </trkpt>
      <trkpt lat="51.672046976163983" lon="5.359727013856173">
        <ele>3.857256</ele>
        <time>2025-05-05T10:19:31Z</time>
      </trkpt>
      <trkpt lat="51.672115959227085" lon="5.359629029408097">
        <ele>3.852242</ele>
        <time>2025-05-05T10:19:33Z</time>
      </trkpt>
      <trkpt lat="51.672192988917232" lon="5.359512018039823">
        <ele>3.846472</ele>
        <time>2025-05-05T10:19:34Z</time>
      </trkpt>
      <trkpt lat="51.671491004526615" lon="5.3581109829247">
        <ele>3.831208</ele>
        <time>2025-05-05T10:19:57Z</time>
      </trkpt>
      <trkpt lat="51.671405006200075" lon="5.357979973778129">
        <ele>3.834334</ele>
        <time>2025-05-05T10:19:59Z</time>
      </trkpt>
      <trkpt lat="51.671284977346659" lon="5.357908979058266">
        <ele>3.837713</ele>
        <time>2025-05-05T10:20:02Z</time>
      </trkpt>
      <trkpt lat="51.670639989897609" lon="5.357692977413535">
        <ele>3.855122</ele>
        <time>2025-05-05T10:20:15Z</time>
      </trkpt>
      <trkpt lat="51.669830968603492" lon="5.357485022395849">
        <ele>3.935398</ele>
        <time>2025-05-05T10:20:32Z</time>
      </trkpt>
      <trkpt lat="51.669623013585806" lon="5.35738100297749">
        <ele>3.967244</ele>
        <time>2025-05-05T10:20:37Z</time>
      </trkpt>
      <trkpt lat="51.669019013643265" lon="5.356911029666662">
        <ele>4.065317</ele>
        <time>2025-05-05T10:20:51Z</time>
      </trkpt>
      <trkpt lat="51.668324992060661" lon="5.356041993945837">
        <ele>4.073544</ele>
        <time>2025-05-05T10:21:09Z</time>
      </trkpt>
      <trkpt lat="51.667284965515137" lon="5.354816978797317">
        <ele>3.923542</ele>
        <time>2025-05-05T10:21:34Z</time>
      </trkpt>
      <trkpt lat="51.667200978845358" lon="5.354625033214688">
        <ele>3.902783</ele>
        <time>2025-05-05T10:21:37Z</time>
      </trkpt>
      <trkpt lat="51.667145993560553" lon="5.35443602129817">
        <ele>3.882422</ele>
        <time>2025-05-05T10:21:39Z</time>
      </trkpt>
      <trkpt lat="51.667063012719154" lon="5.353781981393695">
        <ele>3.817316</ele>
        <time>2025-05-05T10:21:47Z</time>
      </trkpt>
      <trkpt lat="51.666332026943564" lon="5.351981967687607">
        <ele>3.618547</ele>
        <time>2025-05-05T10:22:14Z</time>
      </trkpt>
      <trkpt lat="51.665726015344262" lon="5.350488983094692">
        <ele>3.515658</ele>
        <time>2025-05-05T10:22:36Z</time>
      </trkpt>
      <trkpt lat="51.664877012372017" lon="5.348412031307817">
        <ele>3.429191</ele>
        <time>2025-05-05T10:23:06Z</time>
      </trkpt>
      <trkpt lat="51.663259975612164" lon="5.344456024467945">
        <ele>3.417587</ele>
        <time>2025-05-05T10:24:06Z</time>
      </trkpt>
      <trkpt lat="51.662187008187175" lon="5.341773983091116">
        <ele>3.534701</ele>
        <time>2025-05-05T10:24:36Z</time>
      </trkpt>
      <trkpt lat="51.662029009312391" lon="5.341406017541885">
        <ele>3.567131</ele>
        <time>2025-05-05T10:24:40Z</time>
      </trkpt>
      <trkpt lat="51.661727009341121" lon="5.340657010674477">
        <ele>3.631863</ele>
        <time>2025-05-05T10:24:48Z</time>
      </trkpt>
      <trkpt lat="51.661632964387536" lon="5.340236993506551">
        <ele>3.664217</ele>
        <time>2025-05-05T10:24:53Z</time>
      </trkpt>
      <trkpt lat="51.661627013236284" lon="5.340056028217077">
        <ele>3.677351</ele>
        <time>2025-05-05T10:24:54Z</time>
      </trkpt>
      <trkpt lat="51.6616400051862" lon="5.339910015463829">
        <ele>3.696807</ele>
        <time>2025-05-05T10:24:56Z</time>
      </trkpt>
      <trkpt lat="51.661359965801239" lon="5.339856036007404">
        <ele>3.771317</ele>
        <time>2025-05-05T10:25:02Z</time>
      </trkpt>
      <trkpt lat="51.661234991624951" lon="5.33986902795732">
        <ele>3.804413</ele>
        <time>2025-05-05T10:25:04Z</time>
      </trkpt>
      <trkpt lat="51.660225978121161" lon="5.340195000171661">
        <ele>4.076313</ele>
        <time>2025-05-05T10:25:26Z</time>
      </trkpt>
      <trkpt lat="51.659632958471775" lon="5.339875984936953">
        <ele>4.256013</ele>
        <time>2025-05-05T10:25:36Z</time>
      </trkpt>
      <trkpt lat="51.659543020650744" lon="5.339752016589046">
        <ele>4.29263</ele>
        <time>2025-05-05T10:25:38Z</time>
      </trkpt>
      <trkpt lat="51.659475965425372" lon="5.339066963642836">
        <ele>4.425675</ele>
        <time>2025-05-05T10:25:46Z</time>
      </trkpt>
      <trkpt lat="51.659367000684142" lon="5.33873001113534">
        <ele>4.498592</ele>
        <time>2025-05-05T10:25:49Z</time>
      </trkpt>
      <trkpt lat="51.65888998657465" lon="5.33787296153605">
        <ele>4.706757</ele>
        <time>2025-05-05T10:26:01Z</time>
      </trkpt>
      <trkpt lat="51.658665016293526" lon="5.337648997083306">
        <ele>4.637145</ele>
        <time>2025-05-05T10:26:05Z</time>
      </trkpt>
      <trkpt lat="51.658183978870511" lon="5.337233003228903">
        <ele>4.493459</ele>
        <time>2025-05-05T10:26:12Z</time>
      </trkpt>
      <trkpt lat="51.657742001116276" lon="5.336690023541451">
        <ele>4.347174</ele>
        <time>2025-05-05T10:26:20Z</time>
      </trkpt>
      <trkpt lat="51.657635970041156" lon="5.336593966931105">
        <ele>4.31517</ele>
        <time>2025-05-05T10:26:21Z</time>
      </trkpt>
      <trkpt lat="51.657317960634828" lon="5.336471004411578">
        <ele>4.234053</ele>
        <time>2025-05-05T10:26:26Z</time>
      </trkpt>
      <trkpt lat="51.657116040587425" lon="5.336347036063671">
        <ele>4.205216</ele>
        <time>2025-05-05T10:26:28Z</time>
      </trkpt>
      <trkpt lat="51.656921999529004" lon="5.336157018318772">
        <ele>4.174933</ele>
        <time>2025-05-05T10:26:32Z</time>
      </trkpt>
      <trkpt lat="51.656617987900972" lon="5.335674975067377">
        <ele>4.118046</ele>
        <time>2025-05-05T10:26:38Z</time>
      </trkpt>
      <trkpt lat="51.656522015109658" lon="5.335469031706452">
        <ele>4.096722</ele>
        <time>2025-05-05T10:26:40Z</time>
      </trkpt>
      <trkpt lat="51.656292015686631" lon="5.33460401929915">
        <ele>4.018834</ele>
        <time>2025-05-05T10:26:49Z</time>
      </trkpt>
      <trkpt lat="51.656172992661595" lon="5.334302019327879">
        <ele>4.011175</ele>
        <time>2025-05-05T10:26:52Z</time>
      </trkpt>
      <trkpt lat="51.656088000163436" lon="5.334190959110856">
        <ele>4.028682</ele>
        <time>2025-05-05T10:26:54Z</time>
      </trkpt>
      <trkpt lat="51.655893037095666" lon="5.334021979942918">
        <ele>4.064114</ele>
        <time>2025-05-05T10:26:58Z</time>
      </trkpt>
      <trkpt lat="51.655439995229244" lon="5.333685027435422">
        <ele>4.14396</ele>
        <time>2025-05-05T10:27:06Z</time>
      </trkpt>
      <trkpt lat="51.655275961384177" lon="5.333598023280501">
        <ele>4.171591</ele>
        <time>2025-05-05T10:27:08Z</time>
      </trkpt>
      <trkpt lat="51.655870992690325" lon="5.331569015979767">
        <ele>4.069681</ele>
        <time>2025-05-05T10:27:29Z</time>
      </trkpt>
      <trkpt lat="51.656571971252561" lon="5.330184996128082">
        <ele>3.710511</ele>
        <time>2025-05-05T10:27:44Z</time>
      </trkpt>
      <trkpt lat="51.657194998115301" lon="5.328832995146513">
        <ele>3.4076</ele>
        <time>2025-05-05T10:27:57Z</time>
      </trkpt>
      <trkpt lat="51.657394990324974" lon="5.328070996329188">
        <ele>3.259119</ele>
        <time>2025-05-05T10:28:05Z</time>
      </trkpt>
      <trkpt lat="51.657615015283227" lon="5.326943965628743">
        <ele>3.278259</ele>
        <time>2025-05-05T10:28:16Z</time>
      </trkpt>
      <trkpt lat="51.657954985275865" lon="5.32452997751534">
        <ele>3.496468</ele>
        <time>2025-05-05T10:28:41Z</time>
      </trkpt>
      <trkpt lat="51.659131972119212" lon="5.320817967876792">
        <ele>2.812767</ele>
        <time>2025-05-05T10:29:16Z</time>
      </trkpt>
      <trkpt lat="51.659597000107169" lon="5.319224987179041">
        <ele>2.550233</ele>
        <time>2025-05-05T10:29:31Z</time>
      </trkpt>
      <trkpt lat="51.660105027258396" lon="5.317442994564772">
        <ele>2.575473</ele>
        <time>2025-05-05T10:29:49Z</time>
      </trkpt>
      <trkpt lat="51.661070035770535" lon="5.314309000968933">
        <ele>3.320078</ele>
        <time>2025-05-05T10:30:25Z</time>
      </trkpt>
      <trkpt lat="51.661245971918106" lon="5.31374498270452">
        <ele>3.361092</ele>
        <time>2025-05-05T10:30:31Z</time>
      </trkpt>
      <trkpt lat="51.661750981584191" lon="5.312045970931649">
        <ele>3.483482</ele>
        <time>2025-05-05T10:30:49Z</time>
      </trkpt>
      <trkpt lat="51.662100004032254" lon="5.310219973325729">
        <ele>3.537297</ele>
        <time>2025-05-05T10:31:06Z</time>
      </trkpt>
      <trkpt lat="51.662144009023905" lon="5.309554031118751">
        <ele>3.552378</ele>
        <time>2025-05-05T10:31:13Z</time>
      </trkpt>
      <trkpt lat="51.662421030923724" lon="5.308044031262398">
        <ele>3.286427</ele>
        <time>2025-05-05T10:31:27Z</time>
      </trkpt>
      <trkpt lat="51.663017990067601" lon="5.305631970986724">
        <ele>2.649139</ele>
        <time>2025-05-05T10:31:48Z</time>
      </trkpt>
      <trkpt lat="51.663137013092637" lon="5.305527029559016">
        <ele>2.615161</ele>
        <time>2025-05-05T10:31:50Z</time>
      </trkpt>
      <trkpt lat="51.663733972236514" lon="5.305397026240826">
        <ele>2.464269</ele>
        <time>2025-05-05T10:31:58Z</time>
      </trkpt>
      <trkpt lat="51.664699986577034" lon="5.305385962128639">
        <ele>2.432337</ele>
        <time>2025-05-05T10:32:13Z</time>
      </trkpt>
      <trkpt lat="51.665114974603057" lon="5.305326031520963">
        <ele>2.586346</ele>
        <time>2025-05-05T10:32:20Z</time>
      </trkpt>
      <trkpt lat="51.665479000657797" lon="5.305224023759365">
        <ele>2.722906</ele>
        <time>2025-05-05T10:32:26Z</time>
      </trkpt>
      <trkpt lat="51.665598023682833" lon="5.305174989625812">
        <ele>2.768303</ele>
        <time>2025-05-05T10:32:28Z</time>
      </trkpt>
      <trkpt lat="51.66630101390183" lon="5.304843988269568">
        <ele>2.933721</ele>
        <time>2025-05-05T10:32:40Z</time>
      </trkpt>
      <trkpt lat="51.666599996387959" lon="5.30467702075839">
        <ele>2.867004</ele>
        <time>2025-05-05T10:32:45Z</time>
      </trkpt>
      <trkpt lat="51.667100982740521" lon="5.304321963340044">
        <ele>2.751622</ele>
        <time>2025-05-05T10:32:53Z</time>
      </trkpt>
      <trkpt lat="51.667626025155187" lon="5.303826006129384">
        <ele>2.623327</ele>
        <time>2025-05-05T10:33:01Z</time>
      </trkpt>
      <trkpt lat="51.667694002389908" lon="5.303788958117366">
        <ele>2.608195</ele>
        <time>2025-05-05T10:33:02Z</time>
      </trkpt>
      <trkpt lat="51.667789975181222" lon="5.303797004744411">
        <ele>2.590694</ele>
        <time>2025-05-05T10:33:03Z</time>
      </trkpt>
      <trkpt lat="51.667964989319444" lon="5.303793987259269">
        <ele>2.57503</ele>
        <time>2025-05-05T10:33:05Z</time>
      </trkpt>
      <trkpt lat="51.668032966554165" lon="5.303760962560773">
        <ele>2.568675</ele>
        <time>2025-05-05T10:33:06Z</time>
      </trkpt>
      <trkpt lat="51.668031038716435" lon="5.303651997819543">
        <ele>2.562621</ele>
        <time>2025-05-05T10:33:07Z</time>
      </trkpt>
      <trkpt lat="51.668074959889054" lon="5.303418980911374">
        <ele>2.549101</ele>
        <time>2025-05-05T10:33:10Z</time>
      </trkpt>
      <trkpt lat="51.668136985972524" lon="5.303140031173825">
        <ele>2.532649</ele>
        <time>2025-05-05T10:33:14Z</time>
      </trkpt>
      <trkpt lat="51.66840897873044" lon="5.302369985729456">
        <ele>2.48346</ele>
        <time>2025-05-05T10:33:24Z</time>
      </trkpt>
      <trkpt lat="51.668792031705379" lon="5.301091996952891">
        <ele>2.688949</ele>
        <time>2025-05-05T10:33:44Z</time>
      </trkpt>
      <trkpt lat="51.668817009776831" lon="5.300939027220011">
        <ele>2.772358</ele>
        <time>2025-05-05T10:33:46Z</time>
      </trkpt>
      <trkpt lat="51.668787002563477" lon="5.30078798532486">
        <ele>2.855945</ele>
        <time>2025-05-05T10:33:48Z</time>
      </trkpt>
      <trkpt lat="51.668713996186852" lon="5.300678014755249">
        <ele>2.940873</ele>
        <time>2025-05-05T10:33:51Z</time>
      </trkpt>
      <trkpt lat="51.668672002851963" lon="5.300647001713514">
        <ele>2.980135</ele>
        <time>2025-05-05T10:33:52Z</time>
      </trkpt>
      <trkpt lat="51.66827998124063" lon="5.300372997298837">
        <ele>3.343292</ele>
        <time>2025-05-05T10:34:00Z</time>
      </trkpt>
      <trkpt lat="51.667392002418637" lon="5.299739995971322">
        <ele>4.1381</ele>
        <time>2025-05-05T10:34:24Z</time>
      </trkpt>
      <trkpt lat="51.667330982163548" lon="5.299655003473163">
        <ele>4.196593</ele>
        <time>2025-05-05T10:34:25Z</time>
      </trkpt>
      <trkpt lat="51.667273985221982" lon="5.299447970464826">
        <ele>4.298506</ele>
        <time>2025-05-05T10:34:29Z</time>
      </trkpt>
      <trkpt lat="51.667172983288765" lon="5.299060977995396">
        <ele>4.487436</ele>
        <time>2025-05-05T10:34:35Z</time>
      </trkpt>
      <trkpt lat="51.667013978585601" lon="5.298431999981403">
        <ele>4.793078</ele>
        <time>2025-05-05T10:34:44Z</time>
      </trkpt>
      <trkpt lat="51.666483990848064" lon="5.296080037951469">
        <ele>5.892115</ele>
        <time>2025-05-05T10:35:20Z</time>
      </trkpt>
      <trkpt lat="51.666205963119864" lon="5.294891986995935">
        <ele>6.439871</ele>
        <time>2025-05-05T10:35:38Z</time>
      </trkpt>
      <trkpt lat="51.666178973391652" lon="5.294843958690763">
        <ele>6.467825</ele>
        <time>2025-05-05T10:35:39Z</time>
      </trkpt>
      <trkpt lat="51.666810968890786" lon="5.294484039768577">
        <ele>6.399571</ele>
        <time>2025-05-05T10:35:50Z</time>
      </trkpt>
      <trkpt lat="51.667068963870406" lon="5.29434397816658">
        <ele>6.346545</ele>
        <time>2025-05-05T10:35:54Z</time>
      </trkpt>
      <trkpt lat="51.668005976825953" lon="5.293861012905836">
        <ele>6.14169</ele>
        <time>2025-05-05T10:36:07Z</time>
      </trkpt>
      <trkpt lat="51.667996002361178" lon="5.29378398321569">
        <ele>6.120974</ele>
        <time>2025-05-05T10:36:08Z</time>
      </trkpt>
      <trkpt lat="51.66797898709774" lon="5.293705025687814">
        <ele>6.098953</ele>
        <time>2025-05-05T10:36:09Z</time>
      </trkpt>
      <trkpt lat="51.667624013498425" lon="5.292102992534638">
        <ele>5.650968</ele>
        <time>2025-05-05T10:36:28Z</time>
      </trkpt>
      <trkpt lat="51.66748596355319" lon="5.291436966508627">
        <ele>5.466055</ele>
        <time>2025-05-05T10:36:36Z</time>
      </trkpt>
      <trkpt lat="51.667501972988248" lon="5.291273016482592">
        <ele>5.422336</ele>
        <time>2025-05-05T10:36:38Z</time>
      </trkpt>
      <trkpt lat="51.66735403239727" lon="5.290587963536382">
        <ele>5.369262</ele>
        <time>2025-05-05T10:36:47Z</time>
      </trkpt>
      <trkpt lat="51.667302986606956" lon="5.290317982435226">
        <ele>5.354844</ele>
        <time>2025-05-05T10:36:51Z</time>
      </trkpt>
      <trkpt lat="51.667027976363897" lon="5.289114005863667">
        <ele>5.2893</ele>
        <time>2025-05-05T10:37:07Z</time>
      </trkpt>
      <trkpt lat="51.666981037706137" lon="5.288898004218936">
        <ele>5.277606</ele>
        <time>2025-05-05T10:37:10Z</time>
      </trkpt>
      <trkpt lat="51.666885986924171" lon="5.288690971210599">
        <ele>5.264451</ele>
        <time>2025-05-05T10:37:13Z</time>
      </trkpt>
      <trkpt lat="51.66552803479135" lon="5.286634974181652">
        <ele>5.292665</ele>
        <time>2025-05-05T10:37:41Z</time>
      </trkpt>
      <trkpt lat="51.665515964850783" lon="5.286573031917214">
        <ele>5.293553</ele>
        <time>2025-05-05T10:37:41Z</time>
      </trkpt>
      <trkpt lat="51.665425021201372" lon="5.286485021933913">
        <ele>5.297532</ele>
        <time>2025-05-05T10:37:43Z</time>
      </trkpt>
      <trkpt lat="51.665275990962982" lon="5.286257034167647">
        <ele>5.305907</ele>
        <time>2025-05-05T10:37:46Z</time>
      </trkpt>
      <trkpt lat="51.663645962253213" lon="5.283711031079292">
        <ele>5.459014</ele>
        <time>2025-05-05T10:38:20Z</time>
      </trkpt>
      <trkpt lat="51.663009021431208" lon="5.282753985375166">
        <ele>5.563563</ele>
        <time>2025-05-05T10:38:33Z</time>
      </trkpt>
      <trkpt lat="51.662518009543419" lon="5.282027022913098">
        <ele>5.615882</ele>
        <time>2025-05-05T10:38:44Z</time>
      </trkpt>
      <trkpt lat="51.662590010091662" lon="5.281808003783226">
        <ele>5.625861</ele>
        <time>2025-05-05T10:38:46Z</time>
      </trkpt>
      <trkpt lat="51.662574000656605" lon="5.281713036820293">
        <ele>5.629824</ele>
        <time>2025-05-05T10:38:47Z</time>
      </trkpt>
      <trkpt lat="51.662556985393167" lon="5.281633995473385">
        <ele>5.633191</ele>
        <time>2025-05-05T10:38:48Z</time>
      </trkpt>
      <trkpt lat="51.662535024806857" lon="5.281567024067044">
        <ele>5.636243</ele>
        <time>2025-05-05T10:38:49Z</time>
      </trkpt>
      <trkpt lat="51.662296978756785" lon="5.281539028510451">
        <ele>5.651732</ele>
        <time>2025-05-05T10:38:52Z</time>
      </trkpt>
      <trkpt lat="51.662245010957122" lon="5.281513966619968">
        <ele>5.655254</ele>
        <time>2025-05-05T10:38:53Z</time>
      </trkpt>
      <trkpt lat="51.662052981555462" lon="5.281315986067057">
        <ele>5.670048</ele>
        <time>2025-05-05T10:38:56Z</time>
      </trkpt>
      <trkpt lat="51.660208962857723" lon="5.278546018525958">
        <ele>5.61775</ele>
        <time>2025-05-05T10:39:34Z</time>
      </trkpt>
      <trkpt lat="51.659957002848387" lon="5.278153996914625">
        <ele>5.549933</ele>
        <time>2025-05-05T10:39:39Z</time>
      </trkpt>
      <trkpt lat="51.659679980948567" lon="5.277726016938686">
        <ele>5.475629</ele>
        <time>2025-05-05T10:39:44Z</time>
      </trkpt>
      <trkpt lat="51.659651985391974" lon="5.277681006118655">
        <ele>5.467972</ele>
        <time>2025-05-05T10:39:44Z</time>
      </trkpt>
      <trkpt lat="51.658931979909539" lon="5.276602003723383">
        <ele>5.354785</ele>
        <time>2025-05-05T10:39:58Z</time>
      </trkpt>
      <trkpt lat="51.658324040472507" lon="5.275593996047974">
        <ele>5.494426</ele>
        <time>2025-05-05T10:40:11Z</time>
      </trkpt>
      <trkpt lat="51.657043034210801" lon="5.273419981822372">
        <ele>5.943502</ele>
        <time>2025-05-05T10:40:42Z</time>
      </trkpt>
      <trkpt lat="51.657011015340686" lon="5.273337000980973">
        <ele>5.961171</ele>
        <time>2025-05-05T10:40:43Z</time>
      </trkpt>
      <trkpt lat="51.656996011734009" lon="5.273186964914203">
        <ele>5.988641</ele>
        <time>2025-05-05T10:40:44Z</time>
      </trkpt>
      <trkpt lat="51.656836001202464" lon="5.272988984361291">
        <ele>6.047428</ele>
        <time>2025-05-05T10:40:48Z</time>
      </trkpt>
      <trkpt lat="51.656772969290614" lon="5.272920001298189">
        <ele>6.069625</ele>
        <time>2025-05-05T10:40:49Z</time>
      </trkpt>
      <trkpt lat="51.656755032017827" lon="5.272791003808379">
        <ele>6.093531</ele>
        <time>2025-05-05T10:40:50Z</time>
      </trkpt>
      <trkpt lat="51.656717984005809" lon="5.272711962461472">
        <ele>6.111428</ele>
        <time>2025-05-05T10:40:51Z</time>
      </trkpt>
      <trkpt lat="51.656629974022508" lon="5.272649014368653">
        <ele>6.127538</ele>
        <time>2025-05-05T10:40:52Z</time>
      </trkpt>
      <trkpt lat="51.656606001779437" lon="5.272495960816741">
        <ele>6.110407</ele>
        <time>2025-05-05T10:40:54Z</time>
      </trkpt>
      <trkpt lat="51.656567025929689" lon="5.272292029112577">
        <ele>6.087236</ele>
        <time>2025-05-05T10:40:56Z</time>
      </trkpt>
      <trkpt lat="51.656390000134706" lon="5.27225699275732">
        <ele>6.056033</ele>
        <time>2025-05-05T10:40:58Z</time>
      </trkpt>
      <trkpt lat="51.656223032623529" lon="5.272006038576365">
        <ele>6.016081</ele>
        <time>2025-05-05T10:41:03Z</time>
      </trkpt>
      <trkpt lat="51.656143991276622" lon="5.271888021379709">
        <ele>5.997236</ele>
        <time>2025-05-05T10:41:05Z</time>
      </trkpt>
      <trkpt lat="51.655328013002872" lon="5.270760990679264">
        <ele>5.810257</ele>
        <time>2025-05-05T10:41:25Z</time>
      </trkpt>
      <trkpt lat="51.655198009684682" lon="5.270625958219171">
        <ele>5.786684</ele>
        <time>2025-05-05T10:41:28Z</time>
      </trkpt>
      <trkpt lat="51.655154004693031" lon="5.270714974030852">
        <ele>5.775922</ele>
        <time>2025-05-05T10:41:30Z</time>
      </trkpt>
      <trkpt lat="51.654229983687401" lon="5.269421981647611">
        <ele>5.589401</ele>
        <time>2025-05-05T10:41:47Z</time>
      </trkpt>
      <trkpt lat="51.654252028092742" lon="5.269315028563142">
        <ele>5.578741</ele>
        <time>2025-05-05T10:41:49Z</time>
      </trkpt>
      <trkpt lat="51.654005013406277" lon="5.268812030553818">
        <ele>5.538953</ele>
        <time>2025-05-05T10:41:57Z</time>
      </trkpt>
      <trkpt lat="51.653570998460054" lon="5.267736967653036">
        <ele>5.518713</ele>
        <time>2025-05-05T10:42:13Z</time>
      </trkpt>
      <trkpt lat="51.653416017070413" lon="5.267116958275437">
        <ele>5.508164</ele>
        <time>2025-05-05T10:42:21Z</time>
      </trkpt>
      <trkpt lat="51.653362959623337" lon="5.267042024061084">
        <ele>5.50637</ele>
        <time>2025-05-05T10:42:23Z</time>
      </trkpt>
      <trkpt lat="51.653141006827354" lon="5.266902968287468">
        <ele>5.500312</ele>
        <time>2025-05-05T10:42:28Z</time>
      </trkpt>
      <trkpt lat="51.653069006279111" lon="5.266767013818026">
        <ele>5.497491</ele>
        <time>2025-05-05T10:42:30Z</time>
      </trkpt>
      <trkpt lat="51.652950989082456" lon="5.266265021637082">
        <ele>5.41255</ele>
        <time>2025-05-05T10:42:36Z</time>
      </trkpt>
      <trkpt lat="51.652947971597314" lon="5.266124960035086">
        <ele>5.390129</ele>
        <time>2025-05-05T10:42:38Z</time>
      </trkpt>
      <trkpt lat="51.652986025437713" lon="5.265719024464488">
        <ele>5.324414</ele>
        <time>2025-05-05T10:42:41Z</time>
      </trkpt>
      <trkpt lat="51.65309096686542" lon="5.265435967594385">
        <ele>5.271639</ele>
        <time>2025-05-05T10:42:44Z</time>
      </trkpt>
      <trkpt lat="51.65336899459362" lon="5.265090968459845">
        <ele>5.181129</ele>
        <time>2025-05-05T10:42:49Z</time>
      </trkpt>
      <trkpt lat="51.653641993179917" lon="5.264688972383738">
        <ele>5.08574</ele>
        <time>2025-05-05T10:42:54Z</time>
      </trkpt>
      <trkpt lat="51.653742995113134" lon="5.264451010152698">
        <ele>5.03959</ele>
        <time>2025-05-05T10:42:56Z</time>
      </trkpt>
      <trkpt lat="51.653822036460042" lon="5.264173988252878">
        <ele>5.150778</ele>
        <time>2025-05-05T10:42:59Z</time>
      </trkpt>
      <trkpt lat="51.65388498455286" lon="5.263556996360421">
        <ele>5.426588</ele>
        <time>2025-05-05T10:43:06Z</time>
      </trkpt>
      <trkpt lat="51.654154965654016" lon="5.262923995032907">
        <ele>5.765414</ele>
        <time>2025-05-05T10:43:14Z</time>
      </trkpt>
      <trkpt lat="51.654273988679051" lon="5.262762978672981">
        <ele>5.875871</ele>
        <time>2025-05-05T10:43:17Z</time>
      </trkpt>
      <trkpt lat="51.654317993670702" lon="5.262624006718397">
        <ele>5.9447</ele>
        <time>2025-05-05T10:43:19Z</time>
      </trkpt>
      <trkpt lat="51.654343977570534" lon="5.261480966582894">
        <ele>6.386856</ele>
        <time>2025-05-05T10:43:33Z</time>
      </trkpt>
      <trkpt lat="51.65444104000926" lon="5.26045803911984">
        <ele>6.635698</ele>
        <time>2025-05-05T10:43:44Z</time>
      </trkpt>
      <trkpt lat="51.65442100726068" lon="5.260217981413007">
        <ele>6.693925</ele>
        <time>2025-05-05T10:43:47Z</time>
      </trkpt>
      <trkpt lat="51.654366021975875" lon="5.260053025558591">
        <ele>6.738964</ele>
        <time>2025-05-05T10:43:48Z</time>
      </trkpt>
      <trkpt lat="51.654555033892393" lon="5.259812967851758">
        <ele>6.832218</ele>
        <time>2025-05-05T10:43:52Z</time>
      </trkpt>
      <trkpt lat="51.654694005846977" lon="5.2596449945122">
        <ele>6.899554</ele>
        <time>2025-05-05T10:43:56Z</time>
      </trkpt>
      <trkpt lat="51.654613958671689" lon="5.259510967880487">
        <ele>6.944271</ele>
        <time>2025-05-05T10:43:58Z</time>
      </trkpt>
      <trkpt lat="51.65456903167069" lon="5.259434022009373">
        <ele>6.969707</ele>
        <time>2025-05-05T10:43:59Z</time>
      </trkpt>
      <trkpt lat="51.654651006683707" lon="5.25919203646481">
        <ele>7.018191</ele>
        <time>2025-05-05T10:44:02Z</time>
      </trkpt>
      <trkpt lat="51.654758965596557" lon="5.259014004841447">
        <ele>7.038183</ele>
        <time>2025-05-05T10:44:05Z</time>
      </trkpt>
      <trkpt lat="51.654918976128101" lon="5.258803032338619">
        <ele>7.064938</ele>
        <time>2025-05-05T10:44:09Z</time>
      </trkpt>
      <trkpt lat="51.654616976156831" lon="5.258547971025109">
        <ele>7.109062</ele>
        <time>2025-05-05T10:44:14Z</time>
      </trkpt>
      <trkpt lat="51.654413966462016" lon="5.258390977978706">
        <ele>7.138202</ele>
        <time>2025-05-05T10:44:18Z</time>
      </trkpt>
      <trkpt lat="51.654417989775538" lon="5.258171036839485">
        <ele>7.155875</ele>
        <time>2025-05-05T10:44:20Z</time>
      </trkpt>
      <trkpt lat="51.654488984495401" lon="5.257824026048183">
        <ele>7.185213</ele>
        <time>2025-05-05T10:44:23Z</time>
      </trkpt>
      <trkpt lat="51.654538018628955" lon="5.257383976131678">
        <ele>7.221107</ele>
        <time>2025-05-05T10:44:28Z</time>
      </trkpt>
      <trkpt lat="51.654594009742141" lon="5.257090022787452">
        <ele>7.242112</ele>
        <time>2025-05-05T10:44:31Z</time>
      </trkpt>
      <trkpt lat="51.654559979215264" lon="5.256748963147402">
        <ele>7.242606</ele>
        <time>2025-05-05T10:44:35Z</time>
      </trkpt>
      <trkpt lat="51.654558973386884" lon="5.256117973476648">
        <ele>7.24351</ele>
        <time>2025-05-05T10:44:42Z</time>
      </trkpt>
      <trkpt lat="51.654587974771857" lon="5.255479020997882">
        <ele>7.244428</ele>
        <time>2025-05-05T10:44:48Z</time>
      </trkpt>
      <trkpt lat="51.654740022495389" lon="5.255391011014581">
        <ele>7.244801</ele>
        <time>2025-05-05T10:44:50Z</time>
      </trkpt>
      <trkpt lat="51.654724013060331" lon="5.254648039117456">
        <ele>7.245866</ele>
        <time>2025-05-05T10:44:56Z</time>
      </trkpt>
      <trkpt lat="51.654704986140132" lon="5.2544229850173">
        <ele>7.246191</ele>
        <time>2025-05-05T10:44:58Z</time>
      </trkpt>
      <trkpt lat="51.65456903167069" lon="5.25410195812583">
        <ele>7.134682</ele>
        <time>2025-05-05T10:45:01Z</time>
      </trkpt>
      <trkpt lat="51.65448697283864" lon="5.253656962886453">
        <ele>6.999968</ele>
        <time>2025-05-05T10:45:05Z</time>
      </trkpt>
      <trkpt lat="51.654369961470366" lon="5.252913990989327">
        <ele>6.777511</ele>
        <time>2025-05-05T10:45:11Z</time>
      </trkpt>
      <trkpt lat="51.654358981177211" lon="5.252657001838088">
        <ele>6.702752</ele>
        <time>2025-05-05T10:45:13Z</time>
      </trkpt>
      <trkpt lat="51.654246998950839" lon="5.252420967444778">
        <ele>6.616525</ele>
        <time>2025-05-05T10:45:16Z</time>
      </trkpt>
      <trkpt lat="51.654172986745834" lon="5.252135982736945">
        <ele>6.526866</ele>
        <time>2025-05-05T10:45:19Z</time>
      </trkpt>
      <trkpt lat="51.653979029506445" lon="5.250588012859225">
        <ele>5.851491</ele>
        <time>2025-05-05T10:45:32Z</time>
      </trkpt>
      <trkpt lat="51.653998978435993" lon="5.250292969867587">
        <ele>5.709786</ele>
        <time>2025-05-05T10:45:34Z</time>
      </trkpt>
      <trkpt lat="51.653814995661378" lon="5.249229976907373">
        <ele>5.1828</ele>
        <time>2025-05-05T10:45:43Z</time>
      </trkpt>
      <trkpt lat="51.653811978176236" lon="5.248942980542779">
        <ele>5.045733</ele>
        <time>2025-05-05T10:45:45Z</time>
      </trkpt>
      <trkpt lat="51.65369002148509" lon="5.248378962278366">
        <ele>4.722039</ele>
        <time>2025-05-05T10:45:49Z</time>
      </trkpt>
      <trkpt lat="51.6535600181669" lon="5.247936984524131">
        <ele>4.453892</ele>
        <time>2025-05-05T10:45:53Z</time>
      </trkpt>
      <trkpt lat="51.653548032045364" lon="5.247644037008286">
        <ele>4.292923</ele>
        <time>2025-05-05T10:45:55Z</time>
      </trkpt>
      <trkpt lat="51.653449041768909" lon="5.247524008154869">
        <ele>4.183473</ele>
        <time>2025-05-05T10:45:56Z</time>
      </trkpt>
      <trkpt lat="51.653064982965589" lon="5.247866995632649">
        <ele>3.795559</ele>
        <time>2025-05-05T10:46:02Z</time>
      </trkpt>
      <trkpt lat="51.652941014617682" lon="5.247609000653029">
        <ele>3.616651</ele>
        <time>2025-05-05T10:46:05Z</time>
      </trkpt>
      <trkpt lat="51.652691988274455" lon="5.246277032420039">
        <ele>3.312809</ele>
        <time>2025-05-05T10:46:17Z</time>
      </trkpt>
      <trkpt lat="51.6521439794451" lon="5.242484975606203">
        <ele>3.251275</ele>
        <time>2025-05-05T10:46:52Z</time>
      </trkpt>
      <trkpt lat="51.652097962796688" lon="5.24196001701057">
        <ele>3.289111</ele>
        <time>2025-05-05T10:46:57Z</time>
      </trkpt>
      <trkpt lat="51.651902999728918" lon="5.240701977163553">
        <ele>4.094053</ele>
        <time>2025-05-05T10:47:11Z</time>
      </trkpt>
      <trkpt lat="51.651897970587015" lon="5.240291012451053">
        <ele>4.423678</ele>
        <time>2025-05-05T10:47:17Z</time>
      </trkpt>
      <trkpt lat="51.651720022782683" lon="5.239216033369303">
        <ele>5.315842</ele>
        <time>2025-05-05T10:47:32Z</time>
      </trkpt>
      <trkpt lat="51.651609968394041" lon="5.23897698149085">
        <ele>5.554459</ele>
        <time>2025-05-05T10:47:36Z</time>
      </trkpt>
      <trkpt lat="51.651545008644462" lon="5.238757040351629">
        <ele>5.674813</ele>
        <time>2025-05-05T10:47:39Z</time>
      </trkpt>
      <trkpt lat="51.651646010577679" lon="5.238601975142956">
        <ele>5.735615</ele>
        <time>2025-05-05T10:47:42Z</time>
      </trkpt>
      <trkpt lat="51.651723040267825" lon="5.238482030108571">
        <ele>5.782313</ele>
        <time>2025-05-05T10:47:44Z</time>
      </trkpt>
      <trkpt lat="51.651706025004387" lon="5.238403994590044">
        <ele>5.804675</ele>
        <time>2025-05-05T10:47:45Z</time>
      </trkpt>
      <trkpt lat="51.651556994765997" lon="5.238297041505575">
        <ele>5.875793</ele>
        <time>2025-05-05T10:47:48Z</time>
      </trkpt>
      <trkpt lat="51.651482982560992" lon="5.23809595964849">
        <ele>5.939015</ele>
        <time>2025-05-05T10:47:51Z</time>
      </trkpt>
      <trkpt lat="51.651445012539625" lon="5.237865038216114">
        <ele>6.00366</ele>
        <time>2025-05-05T10:47:54Z</time>
      </trkpt>
      <trkpt lat="51.651239991188049" lon="5.235576024278998">
        <ele>6.251407</ele>
        <time>2025-05-05T10:48:13Z</time>
      </trkpt>
      <trkpt lat="51.651104958727956" lon="5.234078010544181">
        <ele>5.918714</ele>
        <time>2025-05-05T10:48:26Z</time>
      </trkpt>
      <trkpt lat="51.650764988735318" lon="5.231514992192388">
        <ele>5.79282</ele>
        <time>2025-05-05T10:48:49Z</time>
      </trkpt>
      <trkpt lat="51.650604978203773" lon="5.229946989566088">
        <ele>6.054847</ele>
        <time>2025-05-05T10:49:05Z</time>
      </trkpt>
      <trkpt lat="51.650590980425477" lon="5.22980198264122">
        <ele>6.109193</ele>
        <time>2025-05-05T10:49:07Z</time>
      </trkpt>
      <trkpt lat="51.650329967960715" lon="5.22851100191474">
        <ele>6.612042</ele>
        <time>2025-05-05T10:49:22Z</time>
      </trkpt>
      <trkpt lat="51.650046994909644" lon="5.227539036422968">
        <ele>6.934688</ele>
        <time>2025-05-05T10:49:34Z</time>
      </trkpt>
      <trkpt lat="51.649897964671254" lon="5.22717802785337">
        <ele>7.008756</ele>
        <time>2025-05-05T10:49:38Z</time>
      </trkpt>
      <trkpt lat="51.649550031870604" lon="5.226284014061093">
        <ele>7.189047</ele>
        <time>2025-05-05T10:49:49Z</time>
      </trkpt>
      <trkpt lat="51.648434987291694" lon="5.223037032410502">
        <ele>7.187032</ele>
        <time>2025-05-05T10:50:22Z</time>
      </trkpt>
      <trkpt lat="51.648381007835269" lon="5.222806027159095">
        <ele>7.163342</ele>
        <time>2025-05-05T10:50:24Z</time>
      </trkpt>
      <trkpt lat="51.648226026445627" lon="5.221787039190531">
        <ele>6.791871</ele>
        <time>2025-05-05T10:50:33Z</time>
      </trkpt>
      <trkpt lat="51.6478699631989" lon="5.219341032207012">
        <ele>6.169485</ele>
        <time>2025-05-05T10:50:53Z</time>
      </trkpt>
      <trkpt lat="51.6478699631989" lon="5.219133999198675">
        <ele>6.176584</ele>
        <time>2025-05-05T10:50:55Z</time>
      </trkpt>
      <trkpt lat="51.647930983453989" lon="5.219010030850768">
        <ele>6.18201</ele>
        <time>2025-05-05T10:50:56Z</time>
      </trkpt>
      <trkpt lat="51.647902987897396" lon="5.218937024474144">
        <ele>6.184953</ele>
        <time>2025-05-05T10:50:57Z</time>
      </trkpt>
      <trkpt lat="51.647830987349153" lon="5.218770978972316">
        <ele>6.191899</ele>
        <time>2025-05-05T10:50:59Z</time>
      </trkpt>
      <trkpt lat="51.647770972922444" lon="5.218574004247785">
        <ele>6.199424</ele>
        <time>2025-05-05T10:51:01Z</time>
      </trkpt>
      <trkpt lat="51.647966019809246" lon="5.217829020693898">
        <ele>6.227152</ele>
        <time>2025-05-05T10:51:09Z</time>
      </trkpt>
      <trkpt lat="51.648456025868654" lon="5.215746033936739">
        <ele>6.521462</ele>
        <time>2025-05-05T10:51:32Z</time>
      </trkpt>
      <trkpt lat="51.648536995053291" lon="5.215504970401526">
        <ele>6.566027</ele>
        <time>2025-05-05T10:51:35Z</time>
      </trkpt>
      <trkpt lat="51.648871013894677" lon="5.214734002947807">
        <ele>6.718597</ele>
        <time>2025-05-05T10:51:43Z</time>
      </trkpt>
      <trkpt lat="51.648982996121049" lon="5.214541973546147">
        <ele>6.755484</ele>
        <time>2025-05-05T10:51:46Z</time>
      </trkpt>
      <trkpt lat="51.649485994130373" lon="5.213637985289097">
        <ele>6.925445</ele>
        <time>2025-05-05T10:51:58Z</time>
      </trkpt>
      <trkpt lat="51.64960702881217" lon="5.213387031108141">
        <ele>6.969936</ele>
        <time>2025-05-05T10:52:01Z</time>
      </trkpt>
      <trkpt lat="51.649769973009825" lon="5.212926026433706">
        <ele>7.044204</ele>
        <time>2025-05-05T10:52:06Z</time>
      </trkpt>
      <trkpt lat="51.649934006854892" lon="5.212106024846435">
        <ele>7.131437</ele>
        <time>2025-05-05T10:52:15Z</time>
      </trkpt>
      <trkpt lat="51.650043977424502" lon="5.211048983037472">
        <ele>7.163478</ele>
        <time>2025-05-05T10:52:25Z</time>
      </trkpt>
      <trkpt lat="51.650031991302967" lon="5.210429979488254">
        <ele>7.181993</ele>
        <time>2025-05-05T10:52:31Z</time>
      </trkpt>
      <trkpt lat="51.6499940212816" lon="5.210031000897288">
        <ele>7.194061</ele>
        <time>2025-05-05T10:52:35Z</time>
      </trkpt>
      <trkpt lat="51.649903999641538" lon="5.209657000377774">
        <ele>7.206054</ele>
        <time>2025-05-05T10:52:38Z</time>
      </trkpt>
      <trkpt lat="51.64973602630198" lon="5.209058029577136">
        <ele>7.179229</ele>
        <time>2025-05-05T10:52:44Z</time>
      </trkpt>
      <trkpt lat="51.64948096498847" lon="5.208185976371169">
        <ele>7.127671</ele>
        <time>2025-05-05T10:52:52Z</time>
      </trkpt>
      <trkpt lat="51.648762971162796" lon="5.206054039299488">
        <ele>7.03398</ele>
        <time>2025-05-05T10:53:15Z</time>
      </trkpt>
      <trkpt lat="51.648291992023587" lon="5.204679993912578">
        <ele>7.004001</ele>
        <time>2025-05-05T10:53:29Z</time>
      </trkpt>
      <trkpt lat="51.648056041449308" lon="5.20399603061378">
        <ele>6.968652</ele>
        <time>2025-05-05T10:53:36Z</time>
      </trkpt>
      <trkpt lat="51.647499985992908" lon="5.202329959720373">
        <ele>6.855636</ele>
        <time>2025-05-05T10:53:53Z</time>
      </trkpt>
      <trkpt lat="51.645346004515886" lon="5.196064990013838">
        <ele>6.842237</ele>
        <time>2025-05-05T10:54:59Z</time>
      </trkpt>
      <trkpt lat="51.644155019894242" lon="5.192575016990304">
        <ele>6.713283</ele>
        <time>2025-05-05T10:55:35Z</time>
      </trkpt>
      <trkpt lat="51.643522018566728" lon="5.190709959715605">
        <ele>6.824003</ele>
        <time>2025-05-05T10:55:55Z</time>
      </trkpt>
      <trkpt lat="51.643513971939683" lon="5.190683975815773">
        <ele>6.827149</ele>
        <time>2025-05-05T10:55:55Z</time>
      </trkpt>
      <trkpt lat="51.642548041418195" lon="5.187870003283024">
        <ele>7.218042</ele>
        <time>2025-05-05T10:56:26Z</time>
      </trkpt>
      <trkpt lat="51.641700966283679" lon="5.185579983517528">
        <ele>7.401517</ele>
        <time>2025-05-05T10:56:52Z</time>
      </trkpt>
      <trkpt lat="51.641001999378204" lon="5.184527970850468">
        <ele>7.395985</ele>
        <time>2025-05-05T10:57:06Z</time>
      </trkpt>
      <trkpt lat="51.640775017440319" lon="5.184227982535958">
        <ele>7.317981</ele>
        <time>2025-05-05T10:57:10Z</time>
      </trkpt>
      <trkpt lat="51.640681978315115" lon="5.184103008359671">
        <ele>7.2802</ele>
        <time>2025-05-05T10:57:12Z</time>
      </trkpt>
      <trkpt lat="51.640590028837323" lon="5.18388700671494">
        <ele>7.22948</ele>
        <time>2025-05-05T10:57:14Z</time>
      </trkpt>
      <trkpt lat="51.640515010803938" lon="5.183403035625815">
        <ele>7.132899</ele>
        <time>2025-05-05T10:57:18Z</time>
      </trkpt>
      <trkpt lat="51.639945041388273" lon="5.18004298210144">
        <ele>6.580937</ele>
        <time>2025-05-05T10:57:48Z</time>
      </trkpt>
      <trkpt lat="51.639845967292786" lon="5.179616007953882">
        <ele>6.521412</ele>
        <time>2025-05-05T10:57:52Z</time>
      </trkpt>
      <trkpt lat="51.639666007831693" lon="5.178596014156938">
        <ele>6.438157</ele>
        <time>2025-05-05T10:58:02Z</time>
      </trkpt>
      <trkpt lat="51.63893099874258" lon="5.172359962016344">
        <ele>6.496479</ele>
        <time>2025-05-05T10:58:59Z</time>
      </trkpt>
      <trkpt lat="51.638911971822381" lon="5.171453962102532">
        <ele>6.638629</ele>
        <time>2025-05-05T10:59:09Z</time>
      </trkpt>
      <trkpt lat="51.63903996348381" lon="5.169890988618136">
        <ele>6.891983</ele>
        <time>2025-05-05T10:59:25Z</time>
      </trkpt>
      <trkpt lat="51.639124033972621" lon="5.169056989252567">
        <ele>7.031915</ele>
        <time>2025-05-05T10:59:34Z</time>
      </trkpt>
      <trkpt lat="51.639340035617352" lon="5.166773004457355">
        <ele>7.275287</ele>
        <time>2025-05-05T10:59:55Z</time>
      </trkpt>
      <trkpt lat="51.639384962618351" lon="5.166047969833016">
        <ele>7.28956</ele>
        <time>2025-05-05T11:00:02Z</time>
      </trkpt>
      <trkpt lat="51.639379011467099" lon="5.165723003447056">
        <ele>7.295929</ele>
        <time>2025-05-05T11:00:05Z</time>
      </trkpt>
      <trkpt lat="51.639372976496816" lon="5.165330981835723">
        <ele>7.303611</ele>
        <time>2025-05-05T11:00:08Z</time>
      </trkpt>
      <trkpt lat="51.63940398953855" lon="5.165025964379311">
        <ele>7.309665</ele>
        <time>2025-05-05T11:00:11Z</time>
      </trkpt>
      <trkpt lat="51.639443971216679" lon="5.162375019863248">
        <ele>7.756308</ele>
        <time>2025-05-05T11:00:37Z</time>
      </trkpt>
      <trkpt lat="51.639527035877109" lon="5.159825999289751">
        <ele>8.305816999999999</ele>
        <time>2025-05-05T11:01:04Z</time>
      </trkpt>
      <trkpt lat="51.639556037262082" lon="5.159206995740533">
        <ele>8.443981000000001</ele>
        <time>2025-05-05T11:01:10Z</time>
      </trkpt>
      <trkpt lat="51.639517983421683" lon="5.158840036019683">
        <ele>8.454426</ele>
        <time>2025-05-05T11:01:14Z</time>
      </trkpt>
      <trkpt lat="51.63963901810348" lon="5.156341977417469">
        <ele>8.153476</ele>
        <time>2025-05-05T11:01:36Z</time>
      </trkpt>
      <trkpt lat="51.639672964811325" lon="5.155435977503657">
        <ele>7.89513</ele>
        <time>2025-05-05T11:01:43Z</time>
      </trkpt>
      <trkpt lat="51.63963901810348" lon="5.155197009444237">
        <ele>7.815261</ele>
        <time>2025-05-05T11:01:45Z</time>
      </trkpt>
      <trkpt lat="51.639494011178613" lon="5.154598960652947">
        <ele>7.606133</ele>
        <time>2025-05-05T11:01:50Z</time>
      </trkpt>
      <trkpt lat="51.639449000358582" lon="5.154297966510057">
        <ele>7.505283</ele>
        <time>2025-05-05T11:01:53Z</time>
      </trkpt>
      <trkpt lat="51.639388985931873" lon="5.153161967173219">
        <ele>7.185738</ele>
        <time>2025-05-05T11:02:02Z</time>
      </trkpt>
      <trkpt lat="51.639320002868772" lon="5.152552016079426">
        <ele>7.178562</ele>
        <time>2025-05-05T11:02:07Z</time>
      </trkpt>
      <trkpt lat="51.639297036454082" lon="5.151461027562618">
        <ele>7.165928</ele>
        <time>2025-05-05T11:02:17Z</time>
      </trkpt>
      <trkpt lat="51.639306005090475" lon="5.150079019367695">
        <ele>7.17832</ele>
        <time>2025-05-05T11:02:31Z</time>
      </trkpt>
      <trkpt lat="51.639480013400316" lon="5.14880295842886">
        <ele>7.266066</ele>
        <time>2025-05-05T11:02:44Z</time>
      </trkpt>
      <trkpt lat="51.639460986480117" lon="5.14867102727294">
        <ele>7.275167</ele>
        <time>2025-05-05T11:02:45Z</time>
      </trkpt>
      <trkpt lat="51.639457968994975" lon="5.148578993976116">
        <ele>7.281355</ele>
        <time>2025-05-05T11:02:46Z</time>
      </trkpt>
      <trkpt lat="51.639363002032042" lon="5.148591985926032">
        <ele>7.291673</ele>
        <time>2025-05-05T11:02:47Z</time>
      </trkpt>
      <trkpt lat="51.6392080206424" lon="5.148750990629196">
        <ele>7.311559</ele>
        <time>2025-05-05T11:02:50Z</time>
      </trkpt>
      <trkpt lat="51.638967962935567" lon="5.14899498783052">
        <ele>7.342271</ele>
        <time>2025-05-05T11:02:54Z</time>
      </trkpt>
      <trkpt lat="51.638891017064452" lon="5.149077968671918">
        <ele>7.342011</ele>
        <time>2025-05-05T11:02:56Z</time>
      </trkpt>
      <trkpt lat="51.636103028431535" lon="5.15204600058496">
        <ele>6.72986</ele>
        <time>2025-05-05T11:03:42Z</time>
      </trkpt>
      <trkpt lat="51.633373964577913" lon="5.154926022514701">
        <ele>7.209076</ele>
        <time>2025-05-05T11:04:33Z</time>
      </trkpt>
      <trkpt lat="51.633346974849701" lon="5.154952006414533">
        <ele>7.215092</ele>
        <time>2025-05-05T11:04:33Z</time>
      </trkpt>
      <trkpt lat="51.633257959038019" lon="5.155039010569453">
        <ele>7.234999</ele>
        <time>2025-05-05T11:04:35Z</time>
      </trkpt>
      <trkpt lat="51.6332140378654" lon="5.155081003904343">
        <ele>7.244779</ele>
        <time>2025-05-05T11:04:36Z</time>
      </trkpt>
      <trkpt lat="51.63229102268815" lon="5.155989015474916">
        <ele>7.352153</ele>
        <time>2025-05-05T11:04:53Z</time>
      </trkpt>
      <trkpt lat="51.629002969712019" lon="5.159176988527179">
        <ele>7.511233</ele>
        <time>2025-05-05T11:05:50Z</time>
      </trkpt>
      <trkpt lat="51.625579968094826" lon="5.162491025403142">
        <ele>7.506291</ele>
        <time>2025-05-05T11:06:49Z</time>
      </trkpt>
      <trkpt lat="51.624874966219068" lon="5.163173982873559">
        <ele>7.448968</ele>
        <time>2025-05-05T11:07:01Z</time>
      </trkpt>
      <trkpt lat="51.624033004045486" lon="5.163975963369012">
        <ele>7.350848</ele>
        <time>2025-05-05T11:07:15Z</time>
      </trkpt>
      <trkpt lat="51.623915992677212" lon="5.163957020267844">
        <ele>7.339053</ele>
        <time>2025-05-05T11:07:17Z</time>
      </trkpt>
      <trkpt lat="51.623820019885898" lon="5.163901029154658">
        <ele>7.328811</ele>
        <time>2025-05-05T11:07:20Z</time>
      </trkpt>
      <trkpt lat="51.62378397770226" lon="5.163937993347645">
        <ele>7.324528</ele>
        <time>2025-05-05T11:07:20Z</time>
      </trkpt>
      <trkpt lat="51.623737961053848" lon="5.163984009996057">
        <ele>7.319097</ele>
        <time>2025-05-05T11:07:21Z</time>
      </trkpt>
      <trkpt lat="51.623702002689242" lon="5.164019968360663">
        <ele>7.314846</ele>
        <time>2025-05-05T11:07:22Z</time>
      </trkpt>
      <trkpt lat="51.623692028224468" lon="5.16416497528553">
        <ele>7.305761</ele>
        <time>2025-05-05T11:07:24Z</time>
      </trkpt>
      <trkpt lat="51.6237180121243" lon="5.164242004975677">
        <ele>7.305574</ele>
        <time>2025-05-05T11:07:25Z</time>
      </trkpt>
      <trkpt lat="51.623747013509274" lon="5.164330014958978">
        <ele>7.305377</ele>
        <time>2025-05-05T11:07:27Z</time>
      </trkpt>
      <trkpt lat="51.623821025714278" lon="5.164369996637106">
        <ele>7.305127</ele>
        <time>2025-05-05T11:07:28Z</time>
      </trkpt>
      <trkpt lat="51.623965026810765" lon="5.164705021306872">
        <ele>7.304319</ele>
        <time>2025-05-05T11:07:32Z</time>
      </trkpt>
      <trkpt lat="51.625795969739556" lon="5.16974899917841">
        <ele>7.319193</ele>
        <time>2025-05-05T11:08:26Z</time>
      </trkpt>
      <trkpt lat="51.626885030418634" lon="5.172445960342884">
        <ele>7.37434</ele>
        <time>2025-05-05T11:08:55Z</time>
      </trkpt>
      <trkpt lat="51.627682987600565" lon="5.174421994015575">
        <ele>7.34787</ele>
        <time>2025-05-05T11:09:17Z</time>
      </trkpt>
      <trkpt lat="51.628134017810225" lon="5.175476018339396">
        <ele>7.251724</ele>
        <time>2025-05-05T11:09:29Z</time>
      </trkpt>
      <trkpt lat="51.62874698638916" lon="5.176791977137327">
        <ele>7.091586</ele>
        <time>2025-05-05T11:09:43Z</time>
      </trkpt>
      <trkpt lat="51.628782022744417" lon="5.176895996555686">
        <ele>7.075199</ele>
        <time>2025-05-05T11:09:44Z</time>
      </trkpt>
      <trkpt lat="51.628801971673965" lon="5.177087020128965">
        <ele>7.048369</ele>
        <time>2025-05-05T11:09:46Z</time>
      </trkpt>
      <trkpt lat="51.628729971125722" lon="5.177404023706913">
        <ele>7.001612</ele>
        <time>2025-05-05T11:09:49Z</time>
      </trkpt>
      <trkpt lat="51.628784034401178" lon="5.177479041740298">
        <ele>6.985703</ele>
        <time>2025-05-05T11:09:50Z</time>
      </trkpt>
      <trkpt lat="51.628822004422545" lon="5.177536038681865">
        <ele>6.974117</ele>
        <time>2025-05-05T11:09:51Z</time>
      </trkpt>
      <trkpt lat="51.628855029121041" lon="5.177597980946302">
        <ele>6.962804</ele>
        <time>2025-05-05T11:09:51Z</time>
      </trkpt>
      <trkpt lat="51.629055021330714" lon="5.177592029795051">
        <ele>6.918168</ele>
        <time>2025-05-05T11:09:54Z</time>
      </trkpt>
      <trkpt lat="51.629232969135046" lon="5.177838038653135">
        <ele>6.865835</ele>
        <time>2025-05-05T11:09:57Z</time>
      </trkpt>
      <trkpt lat="51.629429021850228" lon="5.178263001143932">
        <ele>6.792498</ele>
        <time>2025-05-05T11:10:02Z</time>
      </trkpt>
      <trkpt lat="51.630003014579415" lon="5.17954702489078">
        <ele>6.71901</ele>
        <time>2025-05-05T11:10:16Z</time>
      </trkpt>
      <trkpt lat="51.631531035527587" lon="5.183256017044187">
        <ele>7.023029</ele>
        <time>2025-05-05T11:10:59Z</time>
      </trkpt>
      <trkpt lat="51.631804034113884" lon="5.184024972841144">
        <ele>7.069478</ele>
        <time>2025-05-05T11:11:07Z</time>
      </trkpt>
      <trkpt lat="51.632366962730885" lon="5.185806965455413">
        <ele>7.166304</ele>
        <time>2025-05-05T11:11:26Z</time>
      </trkpt>
      <trkpt lat="51.633327025920153" lon="5.188846997916699">
        <ele>6.97886</ele>
        <time>2025-05-05T11:11:56Z</time>
      </trkpt>
      <trkpt lat="51.633485024794936" lon="5.18930297344923">
        <ele>6.992236</ele>
        <time>2025-05-05T11:12:01Z</time>
      </trkpt>
      <trkpt lat="51.634262027218938" lon="5.191393001005054">
        <ele>7.026156</ele>
        <time>2025-05-05T11:12:24Z</time>
      </trkpt>
      <trkpt lat="51.634432012215257" lon="5.19192298874259">
        <ele>7.014823</ele>
        <time>2025-05-05T11:12:30Z</time>
      </trkpt>
      <trkpt lat="51.63446101360023" lon="5.192177966237068">
        <ele>7.009898</ele>
        <time>2025-05-05T11:12:32Z</time>
      </trkpt>
      <trkpt lat="51.634449027478695" lon="5.192316016182303">
        <ele>7.007251</ele>
        <time>2025-05-05T11:12:33Z</time>
      </trkpt>
      <trkpt lat="51.634285999462008" lon="5.192870981991291">
        <ele>6.995586</ele>
        <time>2025-05-05T11:12:41Z</time>
      </trkpt>
      <trkpt lat="51.634253980591893" lon="5.193207012489438">
        <ele>6.989129</ele>
        <time>2025-05-05T11:12:45Z</time>
      </trkpt>
      <trkpt lat="51.633921973407269" lon="5.194676024839282">
        <ele>6.976535</ele>
        <time>2025-05-05T11:13:04Z</time>
      </trkpt>
      <trkpt lat="51.633791970089078" lon="5.195771036669612">
        <ele>6.970576</ele>
        <time>2025-05-05T11:13:18Z</time>
      </trkpt>
      <trkpt lat="51.633777972310781" lon="5.196452988311648">
        <ele>6.974741</ele>
        <time>2025-05-05T11:13:27Z</time>
      </trkpt>
      <trkpt lat="51.6337959934026" lon="5.199036039412022">
        <ele>7.093341</ele>
        <time>2025-05-05T11:14:00Z</time>
      </trkpt>
      <trkpt lat="51.633817031979561" lon="5.199634004384279">
        <ele>7.111465</ele>
        <time>2025-05-05T11:14:08Z</time>
      </trkpt>
      <trkpt lat="51.633830023929477" lon="5.201125983148813">
        <ele>7.14794</ele>
        <time>2025-05-05T11:14:27Z</time>
      </trkpt>
      <trkpt lat="51.633853996172547" lon="5.201497972011566">
        <ele>7.157082</ele>
        <time>2025-05-05T11:14:31Z</time>
      </trkpt>
      <trkpt lat="51.634088018909097" lon="5.204275986179709">
        <ele>7.044782</ele>
        <time>2025-05-05T11:15:06Z</time>
      </trkpt>
      <trkpt lat="51.6342450119555" lon="5.205855974927545">
        <ele>6.897114</ele>
        <time>2025-05-05T11:15:25Z</time>
      </trkpt>
      <trkpt lat="51.634926963597536" lon="5.209870990365744">
        <ele>6.434181</ele>
        <time>2025-05-05T11:16:16Z</time>
      </trkpt>
      <trkpt lat="51.635162997990847" lon="5.211375039070845">
        <ele>6.236554</ele>
        <time>2025-05-05T11:16:35Z</time>
      </trkpt>
      <trkpt lat="51.635182024911046" lon="5.211659017950296">
        <ele>6.194442</ele>
        <time>2025-05-05T11:16:38Z</time>
      </trkpt>
      <trkpt lat="51.635603969916701" lon="5.213961023837328">
        <ele>5.821434</ele>
        <time>2025-05-05T11:17:07Z</time>
      </trkpt>
      <trkpt lat="51.635683011263609" lon="5.214521018788219">
        <ele>5.718954</ele>
        <time>2025-05-05T11:17:13Z</time>
      </trkpt>
      <trkpt lat="51.635712012648582" lon="5.214892001822591">
        <ele>5.652226</ele>
        <time>2025-05-05T11:17:18Z</time>
      </trkpt>
      <trkpt lat="51.635711006820202" lon="5.215414026752114">
        <ele>5.559075</ele>
        <time>2025-05-05T11:17:24Z</time>
      </trkpt>
      <trkpt lat="51.635688040405512" lon="5.215705968439579">
        <ele>5.50655</ele>
        <time>2025-05-05T11:17:28Z</time>
      </trkpt>
      <trkpt lat="51.63560195825994" lon="5.216234028339386">
        <ele>5.415246</ele>
        <time>2025-05-05T11:17:34Z</time>
      </trkpt>
      <trkpt lat="51.635530963540077" lon="5.216509038582444">
        <ele>5.423834</ele>
        <time>2025-05-05T11:17:38Z</time>
      </trkpt>
      <trkpt lat="51.635378999635577" lon="5.216984963044524">
        <ele>5.439268</ele>
        <time>2025-05-05T11:17:45Z</time>
      </trkpt>
      <trkpt lat="51.634755972772837" lon="5.218596970662475">
        <ele>5.494024</ele>
        <time>2025-05-05T11:18:09Z</time>
      </trkpt>
      <trkpt lat="51.634478028863668" lon="5.219307001680136">
        <ele>5.640113</ele>
        <time>2025-05-05T11:18:20Z</time>
      </trkpt>
      <trkpt lat="51.634263033047318" lon="5.219756020233035">
        <ele>5.754769</ele>
        <time>2025-05-05T11:18:28Z</time>
      </trkpt>
      <trkpt lat="51.633649980649352" lon="5.220614997670054">
        <ele>6.019411</ele>
        <time>2025-05-05T11:18:45Z</time>
      </trkpt>
      <trkpt lat="51.633642017841339" lon="5.220807027071714">
        <ele>6.058318</ele>
        <time>2025-05-05T11:18:48Z</time>
      </trkpt>
      <trkpt lat="51.633319985121489" lon="5.221630968153477">
        <ele>6.114733</ele>
        <time>2025-05-05T11:19:00Z</time>
      </trkpt>
      <trkpt lat="51.6328289732337" lon="5.22341899573803">
        <ele>6.185986</ele>
        <time>2025-05-05T11:19:25Z</time>
      </trkpt>
      <trkpt lat="51.632723025977612" lon="5.223804982379079">
        <ele>6.259924</ele>
        <time>2025-05-05T11:19:30Z</time>
      </trkpt>
      <trkpt lat="51.632665023207664" lon="5.224182000383735">
        <ele>6.343654</ele>
        <time>2025-05-05T11:19:35Z</time>
      </trkpt>
      <trkpt lat="51.632682960480452" lon="5.224548960104585">
        <ele>6.423016</ele>
        <time>2025-05-05T11:19:40Z</time>
      </trkpt>
      <trkpt lat="51.6328289732337" lon="5.225631985813379">
        <ele>6.661925</ele>
        <time>2025-05-05T11:19:56Z</time>
      </trkpt>
      <trkpt lat="51.633488964289427" lon="5.228690039366484">
        <ele>7.303769</ele>
        <time>2025-05-05T11:20:39Z</time>
      </trkpt>
      <trkpt lat="51.633592983707786" lon="5.229181973263621">
        <ele>7.404829</ele>
        <time>2025-05-05T11:20:44Z</time>
      </trkpt>
      <trkpt lat="51.633839998394251" lon="5.229545999318361">
        <ele>7.511012</ele>
        <time>2025-05-05T11:20:49Z</time>
      </trkpt>
      <trkpt lat="51.634380966424942" lon="5.230490975081921">
        <ele>7.764125</ele>
        <time>2025-05-05T11:21:02Z</time>
      </trkpt>
      <trkpt lat="51.634810036048293" lon="5.231253979727626">
        <ele>7.958957</ele>
        <time>2025-05-05T11:21:13Z</time>
      </trkpt>
      <trkpt lat="51.635474972426891" lon="5.233140997588635">
        <ele>8.231138</ele>
        <time>2025-05-05T11:21:33Z</time>
      </trkpt>
      <trkpt lat="51.635121004655957" lon="5.233382983133197">
        <ele>8.308726</ele>
        <time>2025-05-05T11:21:42Z</time>
      </trkpt>
      <trkpt lat="51.634093970060349" lon="5.23418303579092">
        <ele>8.39959</ele>
        <time>2025-05-05T11:22:06Z</time>
      </trkpt>
      <trkpt lat="51.633867993950844" lon="5.23435696028173">
        <ele>8.419542</ele>
        <time>2025-05-05T11:22:11Z</time>
      </trkpt>
      <trkpt lat="51.633758023381233" lon="5.23444103077054">
        <ele>8.429238</ele>
        <time>2025-05-05T11:22:13Z</time>
      </trkpt>
      <trkpt lat="51.6326770093292" lon="5.235329009592533">
        <ele>8.321586</ele>
        <time>2025-05-05T11:22:37Z</time>
      </trkpt>
      <trkpt lat="51.632447009906173" lon="5.235474016517401">
        <ele>8.286927</ele>
        <time>2025-05-05T11:22:42Z</time>
      </trkpt>
      <trkpt lat="51.631920039653778" lon="5.235952036455274">
        <ele>8.202059</ele>
        <time>2025-05-05T11:22:54Z</time>
      </trkpt>
      <trkpt lat="51.631662966683507" lon="5.236194021999836">
        <ele>8.107968</ele>
        <time>2025-05-05T11:22:59Z</time>
      </trkpt>
      <trkpt lat="51.63138804025948" lon="5.236561987549067">
        <ele>7.990891</ele>
        <time>2025-05-05T11:23:06Z</time>
      </trkpt>
      <trkpt lat="51.63055001758039" lon="5.237873001024127">
        <ele>7.609454</ele>
        <time>2025-05-05T11:23:28Z</time>
      </trkpt>
      <trkpt lat="51.630398975685239" lon="5.23779203183949">
        <ele>7.58451</ele>
        <time>2025-05-05T11:23:31Z</time>
      </trkpt>
      <trkpt lat="51.630124971270561" lon="5.237559014931321">
        <ele>7.535951</ele>
        <time>2025-05-05T11:23:37Z</time>
      </trkpt>
      <trkpt lat="51.629983987659216" lon="5.237699998542666">
        <ele>7.509941</ele>
        <time>2025-05-05T11:23:40Z</time>
      </trkpt>
      <trkpt lat="51.629844009876251" lon="5.237838970497251">
        <ele>7.484166</ele>
        <time>2025-05-05T11:23:44Z</time>
      </trkpt>
      <trkpt lat="51.62960596382618" lon="5.238043991848826">
        <ele>7.441868</ele>
        <time>2025-05-05T11:23:49Z</time>
      </trkpt>
      <trkpt lat="51.629652986302972" lon="5.238266028463841">
        <ele>7.419048</ele>
        <time>2025-05-05T11:23:51Z</time>
      </trkpt>
      <trkpt lat="51.629775026813149" lon="5.238509019836783">
        <ele>7.388642</ele>
        <time>2025-05-05T11:23:54Z</time>
      </trkpt>
      <trkpt lat="51.629908969625831" lon="5.238749999552965">
        <ele>7.357165</ele>
        <time>2025-05-05T11:23:58Z</time>
      </trkpt>
      <trkpt lat="51.630016006529331" lon="5.238925013691187">
        <ele>7.333268</ele>
        <time>2025-05-05T11:24:02Z</time>
      </trkpt>
      <trkpt lat="51.630411967635155" lon="5.239558015018702">
        <ele>7.008652</ele>
        <time>2025-05-05T11:24:13Z</time>
      </trkpt>
      <trkpt lat="51.630641967058182" lon="5.240000998601317">
        <ele>6.791394</ele>
        <time>2025-05-05T11:24:19Z</time>
      </trkpt>
      <trkpt lat="51.63121503777802" lon="5.241395998746157">
        <ele>6.185677</ele>
        <time>2025-05-05T11:24:37Z</time>
      </trkpt>
      <trkpt lat="51.631525000557303" lon="5.242146011441946">
        <ele>5.951196</ele>
        <time>2025-05-05T11:24:47Z</time>
      </trkpt>
      <trkpt lat="51.631770003587008" lon="5.242740036919713">
        <ele>5.765609</ele>
        <time>2025-05-05T11:24:55Z</time>
      </trkpt>
      <trkpt lat="51.631831023842096" lon="5.242966013029218">
        <ele>5.701479</ele>
        <time>2025-05-05T11:24:58Z</time>
      </trkpt>
      <trkpt lat="51.631995979696512" lon="5.245258966460824">
        <ele>5.5455</ele>
        <time>2025-05-05T11:25:28Z</time>
      </trkpt>
      <trkpt lat="51.632020035758615" lon="5.245489971712232">
        <ele>5.555193</ele>
        <time>2025-05-05T11:25:31Z</time>
      </trkpt>
      <trkpt lat="51.632096981629729" lon="5.245861038565636">
        <ele>5.571383</ele>
        <time>2025-05-05T11:25:36Z</time>
      </trkpt>
      <trkpt lat="51.632753033190966" lon="5.24662303738296">
        <ele>5.616991</ele>
        <time>2025-05-05T11:25:52Z</time>
      </trkpt>
      <trkpt lat="51.631911993026733" lon="5.249830959364772">
        <ele>5.764264</ele>
        <time>2025-05-05T11:26:25Z</time>
      </trkpt>
      <trkpt lat="51.631838986650109" lon="5.250035980716348">
        <ele>5.783273</ele>
        <time>2025-05-05T11:26:27Z</time>
      </trkpt>
      <trkpt lat="51.631277985870838" lon="5.252072028815746">
        <ele>5.836376</ele>
        <time>2025-05-05T11:26:49Z</time>
      </trkpt>
      <trkpt lat="51.630327980965376" lon="5.254653990268707">
        <ele>5.657324</ele>
        <time>2025-05-05T11:27:14Z</time>
      </trkpt>
      <trkpt lat="51.628555962815881" lon="5.259466040879488">
        <ele>6.431708</ele>
        <time>2025-05-05T11:28:11Z</time>
      </trkpt>
      <trkpt lat="51.628051036968827" lon="5.260862968862057">
        <ele>6.401191</ele>
        <time>2025-05-05T11:28:25Z</time>
      </trkpt>
      <trkpt lat="51.627914998680353" lon="5.261205034330487">
        <ele>6.393524</ele>
        <time>2025-05-05T11:28:29Z</time>
      </trkpt>
      <trkpt lat="51.627792958170176" lon="5.261432016268373">
        <ele>6.387856</ele>
        <time>2025-05-05T11:28:31Z</time>
      </trkpt>
      <trkpt lat="51.627330025658011" lon="5.262267021462321">
        <ele>6.352279</ele>
        <time>2025-05-05T11:28:41Z</time>
      </trkpt>
      <trkpt lat="51.627080999314785" lon="5.262773958966136">
        <ele>6.331624</ele>
        <time>2025-05-05T11:28:47Z</time>
      </trkpt>
      <trkpt lat="51.626042984426022" lon="5.264556035399437">
        <ele>6.383462</ele>
        <time>2025-05-05T11:29:10Z</time>
      </trkpt>
      <trkpt lat="51.624611020088196" lon="5.267131961882114">
        <ele>6.715208</ele>
        <time>2025-05-05T11:29:42Z</time>
      </trkpt>
      <trkpt lat="51.622767001390457" lon="5.270410962402821">
        <ele>7.461278</ele>
        <time>2025-05-05T11:30:28Z</time>
      </trkpt>
      <trkpt lat="51.621712977066636" lon="5.272283982485533">
        <ele>7.454324</ele>
        <time>2025-05-05T11:30:51Z</time>
      </trkpt>
      <trkpt lat="51.621088022366166" lon="5.273401960730553">
        <ele>6.893422</ele>
        <time>2025-05-05T11:31:03Z</time>
      </trkpt>
      <trkpt lat="51.621018033474684" lon="5.273568006232381">
        <ele>6.818606</ele>
        <time>2025-05-05T11:31:04Z</time>
      </trkpt>
      <trkpt lat="51.62040900439024" lon="5.274570984765887">
        <ele>6.347536</ele>
        <time>2025-05-05T11:31:26Z</time>
      </trkpt>
      <trkpt lat="51.620146986097097" lon="5.27509099803865">
        <ele>6.203478</ele>
        <time>2025-05-05T11:31:37Z</time>
      </trkpt>
      <trkpt lat="51.620024023577571" lon="5.275416970252991">
        <ele>6.121417</ele>
        <time>2025-05-05T11:31:43Z</time>
      </trkpt>
      <trkpt lat="51.61980802193284" lon="5.276120966300368">
        <ele>5.952494</ele>
        <time>2025-05-05T11:31:56Z</time>
      </trkpt>
      <trkpt lat="51.619263030588627" lon="5.277590984478593">
        <ele>5.728701</ele>
        <time>2025-05-05T11:32:26Z</time>
      </trkpt>
      <trkpt lat="51.618899004533887" lon="5.278128013014793">
        <ele>5.67477</ele>
        <time>2025-05-05T11:32:39Z</time>
      </trkpt>
      <trkpt lat="51.618803031742573" lon="5.278219962492585">
        <ele>5.662565</ele>
        <time>2025-05-05T11:32:42Z</time>
      </trkpt>
      <trkpt lat="51.618372034281492" lon="5.27846697717905">
        <ele>5.612584</ele>
        <time>2025-05-05T11:32:55Z</time>
      </trkpt>
      <trkpt lat="51.617643982172012" lon="5.27882999740541">
        <ele>5.609774</ele>
        <time>2025-05-05T11:33:06Z</time>
      </trkpt>
      <trkpt lat="51.616746028885245" lon="5.279349004849792">
        <ele>5.626325</ele>
        <time>2025-05-05T11:33:20Z</time>
      </trkpt>
      <trkpt lat="51.616216963157058" lon="5.279692998155952">
        <ele>5.614406</ele>
        <time>2025-05-05T11:33:29Z</time>
      </trkpt>
      <trkpt lat="51.615941030904651" lon="5.279934983700514">
        <ele>5.600887</ele>
        <time>2025-05-05T11:33:34Z</time>
      </trkpt>
      <trkpt lat="51.614754991605878" lon="5.281245997175574">
        <ele>5.514904</ele>
        <time>2025-05-05T11:33:54Z</time>
      </trkpt>
      <trkpt lat="51.614576959982514" lon="5.281509021297097">
        <ele>5.486061</ele>
        <time>2025-05-05T11:33:58Z</time>
      </trkpt>
      <trkpt lat="51.614551981911063" lon="5.281662996858358">
        <ele>5.47426</ele>
        <time>2025-05-05T11:33:59Z</time>
      </trkpt>
      <trkpt lat="51.61422299221158" lon="5.281931972131133">
        <ele>5.430204</ele>
        <time>2025-05-05T11:34:05Z</time>
      </trkpt>
      <trkpt lat="51.613995004445314" lon="5.282067004591227">
        <ele>5.401198</ele>
        <time>2025-05-05T11:34:08Z</time>
      </trkpt>
      <trkpt lat="51.613919986411929" lon="5.282068010419607">
        <ele>5.392243</ele>
        <time>2025-05-05T11:34:09Z</time>
      </trkpt>
      <trkpt lat="51.613828036934137" lon="5.282014030963182">
        <ele>5.380551</ele>
        <time>2025-05-05T11:34:11Z</time>
      </trkpt>
      <trkpt lat="51.613783026114106" lon="5.28203196823597">
        <ele>5.375015</ele>
        <time>2025-05-05T11:34:11Z</time>
      </trkpt>
      <trkpt lat="51.613742038607597" lon="5.282047977671027">
        <ele>5.369978</ele>
        <time>2025-05-05T11:34:12Z</time>
      </trkpt>
      <trkpt lat="51.61379300057888" lon="5.282529015094042">
        <ele>5.32839</ele>
        <time>2025-05-05T11:34:18Z</time>
      </trkpt>
      <trkpt lat="51.613800963386893" lon="5.28280695900321">
        <ele>5.279974</ele>
        <time>2025-05-05T11:34:21Z</time>
      </trkpt>
      <trkpt lat="51.613838011398911" lon="5.282985996454954">
        <ele>5.247153</ele>
        <time>2025-05-05T11:34:24Z</time>
      </trkpt>
      <trkpt lat="51.613843962550163" lon="5.283523024991155">
        <ele>5.153715</ele>
        <time>2025-05-05T11:34:28Z</time>
      </trkpt>
      <trkpt lat="51.613838011398911" lon="5.283908005803824">
        <ele>5.086715</ele>
        <time>2025-05-05T11:34:32Z</time>
      </trkpt>
      <trkpt lat="51.613820996135473" lon="5.284101963043213">
        <ele>5.05263</ele>
        <time>2025-05-05T11:34:33Z</time>
      </trkpt>
      <trkpt lat="51.613757964223623" lon="5.284524997696281">
        <ele>4.976953</ele>
        <time>2025-05-05T11:34:37Z</time>
      </trkpt>
      <trkpt lat="51.613624021410942" lon="5.285063032060862">
        <ele>4.876108</ele>
        <time>2025-05-05T11:34:42Z</time>
      </trkpt>
      <trkpt lat="51.613411959260702" lon="5.285650016739965">
        <ele>4.901407</ele>
        <time>2025-05-05T11:34:48Z</time>
      </trkpt>
      <trkpt lat="51.613311963155866" lon="5.285911029204726">
        <ele>4.948847</ele>
        <time>2025-05-05T11:34:50Z</time>
      </trkpt>
      <trkpt lat="51.613248009234667" lon="5.286085037514567">
        <ele>4.98013</ele>
        <time>2025-05-05T11:34:52Z</time>
      </trkpt>
      <trkpt lat="51.613110965117812" lon="5.286462977528572">
        <ele>5.047833</ele>
        <time>2025-05-05T11:34:56Z</time>
      </trkpt>
      <trkpt lat="51.613023960962892" lon="5.286675039678812">
        <ele>5.087141</ele>
        <time>2025-05-05T11:34:59Z</time>
      </trkpt>
      <trkpt lat="51.613004012033343" lon="5.286724995821714">
        <ele>5.096341</ele>
        <time>2025-05-05T11:34:59Z</time>
      </trkpt>
      <trkpt lat="51.612823968753219" lon="5.287213996052742">
        <ele>5.184275</ele>
        <time>2025-05-05T11:35:07Z</time>
      </trkpt>
      <trkpt lat="51.612555999308825" lon="5.287923021242023">
        <ele>5.36177</ele>
        <time>2025-05-05T11:35:20Z</time>
      </trkpt>
      <trkpt lat="51.612060964107513" lon="5.289118029177189">
        <ele>5.939139</ele>
        <time>2025-05-05T11:35:40Z</time>
      </trkpt>
      <trkpt lat="51.612016037106514" lon="5.289297988638282">
        <ele>6.017131</ele>
        <time>2025-05-05T11:35:43Z</time>
      </trkpt>
      <trkpt lat="51.611944958567619" lon="5.290114972740412">
        <ele>6.348715</ele>
        <time>2025-05-05T11:35:55Z</time>
      </trkpt>
      <trkpt lat="51.611882010474801" lon="5.290312031283975">
        <ele>6.43778</ele>
        <time>2025-05-05T11:35:58Z</time>
      </trkpt>
      <trkpt lat="51.611747983843088" lon="5.29043298214674">
        <ele>6.473256</ele>
        <time>2025-05-05T11:36:01Z</time>
      </trkpt>
      <trkpt lat="51.611658968031406" lon="5.290472041815519">
        <ele>6.491028</ele>
        <time>2025-05-05T11:36:03Z</time>
      </trkpt>
      <trkpt lat="51.611629966646433" lon="5.290484027937055">
        <ele>6.496797</ele>
        <time>2025-05-05T11:36:04Z</time>
      </trkpt>
      <trkpt lat="51.611298965290189" lon="5.2906250115484">
        <ele>6.562765</ele>
        <time>2025-05-05T11:36:11Z</time>
      </trkpt>
      <trkpt lat="51.611350011080503" lon="5.290954001247883">
        <ele>6.603337</ele>
        <time>2025-05-05T11:36:14Z</time>
      </trkpt>
      <trkpt lat="51.611454030498862" lon="5.291345017030835">
        <ele>6.65423</ele>
        <time>2025-05-05T11:36:19Z</time>
      </trkpt>
      <trkpt lat="51.611538017168641" lon="5.291524976491928">
        <ele>6.68117</ele>
        <time>2025-05-05T11:36:21Z</time>
      </trkpt>
      <trkpt lat="51.611634995788336" lon="5.291619021445513">
        <ele>6.702983</ele>
        <time>2025-05-05T11:36:23Z</time>
      </trkpt>
      <trkpt lat="51.612175041809678" lon="5.292390994727612">
        <ele>6.708185</ele>
        <time>2025-05-05T11:36:38Z</time>
      </trkpt>
      <trkpt lat="51.613422017544508" lon="5.294187990948558">
        <ele>6.161907</ele>
        <time>2025-05-05T11:37:09Z</time>
      </trkpt>
      <trkpt lat="51.613495023921132" lon="5.294249011203647">
        <ele>6.138016</ele>
        <time>2025-05-05T11:37:10Z</time>
      </trkpt>
      <trkpt lat="51.613900037482381" lon="5.294871032238007">
        <ele>5.975444</ele>
        <time>2025-05-05T11:37:21Z</time>
      </trkpt>
      <trkpt lat="51.614644015207887" lon="5.29591198079288">
        <ele>5.68914</ele>
        <time>2025-05-05T11:37:41Z</time>
      </trkpt>
      <trkpt lat="51.614733031019568" lon="5.296158995479345">
        <ele>5.600883</ele>
        <time>2025-05-05T11:37:44Z</time>
      </trkpt>
      <trkpt lat="51.614749040454626" lon="5.296512963250279">
        <ele>5.477909</ele>
        <time>2025-05-05T11:37:48Z</time>
      </trkpt>
      <trkpt lat="51.614734958857298" lon="5.296727037057281">
        <ele>5.403354</ele>
        <time>2025-05-05T11:37:50Z</time>
      </trkpt>
      <trkpt lat="51.61469497717917" lon="5.297490963712335">
        <ele>5.137711</ele>
        <time>2025-05-05T11:37:55Z</time>
      </trkpt>
      <trkpt lat="51.614708974957466" lon="5.297786006703973">
        <ele>5.035205</ele>
        <time>2025-05-05T11:37:58Z</time>
      </trkpt>
      <trkpt lat="51.614752979949117" lon="5.298134023323655">
        <ele>4.912159</ele>
        <time>2025-05-05T11:38:01Z</time>
      </trkpt>
      <trkpt lat="51.614762032404542" lon="5.298234019428492">
        <ele>4.87715</ele>
        <time>2025-05-05T11:38:01Z</time>
      </trkpt>
      <trkpt lat="51.614761026576161" lon="5.298573989421129">
        <ele>4.759349</ele>
        <time>2025-05-05T11:38:04Z</time>
      </trkpt>
      <trkpt lat="51.614711992442608" lon="5.298928963020444">
        <ele>4.689099</ele>
        <time>2025-05-05T11:38:07Z</time>
      </trkpt>
      <trkpt lat="51.614650972187519" lon="5.299161979928613">
        <ele>4.721807</ele>
        <time>2025-05-05T11:38:10Z</time>
      </trkpt>
      <trkpt lat="51.61417999304831" lon="5.300955036655068">
        <ele>4.973631</ele>
        <time>2025-05-05T11:38:30Z</time>
      </trkpt>
      <trkpt lat="51.614165995270014" lon="5.301114963367581">
        <ele>4.994531</ele>
        <time>2025-05-05T11:38:31Z</time>
      </trkpt>
      <trkpt lat="51.614170018583536" lon="5.301761962473393">
        <ele>5.076643</ele>
        <time>2025-05-05T11:38:38Z</time>
      </trkpt>
      <trkpt lat="51.614139005541801" lon="5.302531002089381">
        <ele>5.170996</ele>
        <time>2025-05-05T11:38:45Z</time>
      </trkpt>
      <trkpt lat="51.614182004705071" lon="5.303155034780502">
        <ele>5.247866</ele>
        <time>2025-05-05T11:38:51Z</time>
      </trkpt>
      <trkpt lat="51.614299016073346" lon="5.303268022835255">
        <ele>5.274767</ele>
        <time>2025-05-05T11:38:53Z</time>
      </trkpt>
      <trkpt lat="51.614486016333103" lon="5.30590002425015">
        <ele>5.716472</ele>
        <time>2025-05-05T11:39:29Z</time>
      </trkpt>
      <trkpt lat="51.614622976630926" lon="5.307918973267078">
        <ele>6.214845</ele>
        <time>2025-05-05T11:39:56Z</time>
      </trkpt>
      <trkpt lat="51.614690031856298" lon="5.308175040408969">
        <ele>6.307353</ele>
        <time>2025-05-05T11:40:00Z</time>
      </trkpt>
      <trkpt lat="51.614938974380493" lon="5.308860009536147">
        <ele>6.571661</ele>
        <time>2025-05-05T11:40:11Z</time>
      </trkpt>
      <trkpt lat="51.615309035405517" lon="5.310053005814552">
        <ele>6.992803</ele>
        <time>2025-05-05T11:40:30Z</time>
      </trkpt>
      <trkpt lat="51.616247976198792" lon="5.312839988619089">
        <ele>7.506</ele>
        <time>2025-05-05T11:41:13Z</time>
      </trkpt>
      <trkpt lat="51.616562968119979" lon="5.313827963545919">
        <ele>7.248306</ele>
        <time>2025-05-05T11:41:26Z</time>
      </trkpt>
      <trkpt lat="51.616630023345351" lon="5.314267007634044">
        <ele>7.143417</ele>
        <time>2025-05-05T11:41:31Z</time>
      </trkpt>
      <trkpt lat="51.616659024730325" lon="5.314488038420677">
        <ele>7.091007</ele>
        <time>2025-05-05T11:41:34Z</time>
      </trkpt>
      <trkpt lat="51.616919031366706" lon="5.315316002815962">
        <ele>6.804337</ele>
        <time>2025-05-05T11:41:44Z</time>
      </trkpt>
      <trkpt lat="51.616945015266538" lon="5.315503003075719">
        <ele>6.719209</ele>
        <time>2025-05-05T11:41:46Z</time>
      </trkpt>
      <trkpt lat="51.616922970861197" lon="5.315810032188892">
        <ele>6.581924</ele>
        <time>2025-05-05T11:41:48Z</time>
      </trkpt>
      <trkpt lat="51.617190018296242" lon="5.316653000190854">
        <ele>6.16153</ele>
        <time>2025-05-05T11:41:55Z</time>
      </trkpt>
      <trkpt lat="51.617439966648817" lon="5.317395972087979">
        <ele>5.78612</ele>
        <time>2025-05-05T11:42:05Z</time>
      </trkpt>
      <trkpt lat="51.617654962465167" lon="5.3180390316993">
        <ele>5.759717</ele>
        <time>2025-05-05T11:42:14Z</time>
      </trkpt>
      <trkpt lat="51.617725035175681" lon="5.318261990323663">
        <ele>5.809895</ele>
        <time>2025-05-05T11:42:17Z</time>
      </trkpt>
      <trkpt lat="51.617970038205385" lon="5.318979984149337">
        <ele>5.974415</ele>
        <time>2025-05-05T11:42:28Z</time>
      </trkpt>
      <trkpt lat="51.618156032636762" lon="5.319449035450816">
        <ele>6.086167</ele>
        <time>2025-05-05T11:42:36Z</time>
      </trkpt>
      <trkpt lat="51.618346972391009" lon="5.319743994623423">
        <ele>6.171753</ele>
        <time>2025-05-05T11:42:42Z</time>
      </trkpt>
      <trkpt lat="51.618535984307528" lon="5.319953039288521">
        <ele>6.245899</ele>
        <time>2025-05-05T11:42:47Z</time>
      </trkpt>
      <trkpt lat="51.618847036734223" lon="5.32029502093792">
        <ele>6.35645</ele>
        <time>2025-05-05T11:42:56Z</time>
      </trkpt>
      <trkpt lat="51.61890503950417" lon="5.32033902592957">
        <ele>6.375227</ele>
        <time>2025-05-05T11:42:57Z</time>
      </trkpt>
      <trkpt lat="51.619045017287135" lon="5.320367021486163">
        <ele>6.416544</ele>
        <time>2025-05-05T11:43:00Z</time>
      </trkpt>
      <trkpt lat="51.619166973978281" lon="5.320471962913871">
        <ele>6.457057</ele>
        <time>2025-05-05T11:43:03Z</time>
      </trkpt>
      <trkpt lat="51.619233023375273" lon="5.320548992604017">
        <ele>6.480925</ele>
        <time>2025-05-05T11:43:04Z</time>
      </trkpt>
      <trkpt lat="51.619347017258406" lon="5.320816040039063">
        <ele>6.539849</ele>
        <time>2025-05-05T11:43:07Z</time>
      </trkpt>
      <trkpt lat="51.619542986154556" lon="5.321109993383288">
        <ele>6.618292</ele>
        <time>2025-05-05T11:43:12Z</time>
      </trkpt>
      <trkpt lat="51.619965014979243" lon="5.321597987785935">
        <ele>6.770443</ele>
        <time>2025-05-05T11:43:19Z</time>
      </trkpt>
      <trkpt lat="51.622022017836571" lon="5.325507977977395">
        <ele>8.100021999999999</ele>
        <time>2025-05-05T11:44:13Z</time>
      </trkpt>
      <trkpt lat="51.622970011085272" lon="5.327312014997006">
        <ele>8.420336000000001</ele>
        <time>2025-05-05T11:44:36Z</time>
      </trkpt>
      <trkpt lat="51.624581012874842" lon="5.330405021086335">
        <ele>8.574227000000001</ele>
        <time>2025-05-05T11:45:13Z</time>
      </trkpt>
      <trkpt lat="51.625572005286813" lon="5.332306958734989">
        <ele>8.518287000000001</ele>
        <time>2025-05-05T11:45:36Z</time>
      </trkpt>
      <trkpt lat="51.625697985291481" lon="5.332492031157017">
        <ele>8.511703000000001</ele>
        <time>2025-05-05T11:45:38Z</time>
      </trkpt>
      <trkpt lat="51.626048013567924" lon="5.332942977547646">
        <ele>8.505146</ele>
        <time>2025-05-05T11:45:45Z</time>
      </trkpt>
      <trkpt lat="51.626559980213642" lon="5.333546977490187">
        <ele>8.502959000000001</ele>
        <time>2025-05-05T11:45:54Z</time>
      </trkpt>
      <trkpt lat="51.627271017059684" lon="5.334396986290813">
        <ele>8.501388</ele>
        <time>2025-05-05T11:46:07Z</time>
      </trkpt>
      <trkpt lat="51.62741401232779" lon="5.334525983780623">
        <ele>8.509786999999999</ele>
        <time>2025-05-05T11:46:10Z</time>
      </trkpt>
      <trkpt lat="51.628031004220247" lon="5.335281025618315">
        <ele>8.549491</ele>
        <time>2025-05-05T11:46:21Z</time>
      </trkpt>
      <trkpt lat="51.628149021416903" lon="5.335427038371563">
        <ele>8.557115</ele>
        <time>2025-05-05T11:46:24Z</time>
      </trkpt>
      <trkpt lat="51.628761989995837" lon="5.336177973076701">
        <ele>8.583617</ele>
        <time>2025-05-05T11:46:35Z</time>
      </trkpt>
      <trkpt lat="51.628902973607183" lon="5.336265983060002">
        <ele>8.56859</ele>
        <time>2025-05-05T11:46:38Z</time>
      </trkpt>
      <trkpt lat="51.62896198220551" lon="5.336416019126773">
        <ele>8.557636000000001</ele>
        <time>2025-05-05T11:46:39Z</time>
      </trkpt>
      <trkpt lat="51.629621973261237" lon="5.337220011278987">
        <ele>8.47541</ele>
        <time>2025-05-05T11:46:51Z</time>
      </trkpt>
      <trkpt lat="51.631552996113896" lon="5.33956803381443">
        <ele>7.968933</ele>
        <time>2025-05-05T11:47:25Z</time>
      </trkpt>
      <trkpt lat="51.631854996085167" lon="5.339935999363661">
        <ele>8.014633</ele>
        <time>2025-05-05T11:47:30Z</time>
      </trkpt>
      <trkpt lat="51.6319499630481" lon="5.340070025995374">
        <ele>8.030246999999999</ele>
        <time>2025-05-05T11:47:32Z</time>
      </trkpt>
      <trkpt lat="51.631992040202022" lon="5.340182008221746">
        <ele>8.040291</ele>
        <time>2025-05-05T11:47:34Z</time>
      </trkpt>
      <trkpt lat="51.632078038528562" lon="5.340284015983343">
        <ele>8.053496000000001</ele>
        <time>2025-05-05T11:47:36Z</time>
      </trkpt>
      <trkpt lat="51.632321029901505" lon="5.340671008452773">
        <ele>8.095749</ele>
        <time>2025-05-05T11:47:44Z</time>
      </trkpt>
      <trkpt lat="51.632393030449748" lon="5.340752983465791">
        <ele>8.106652</ele>
        <time>2025-05-05T11:47:45Z</time>
      </trkpt>
      <trkpt lat="51.632795026525855" lon="5.341453962028027">
        <ele>8.179906000000001</ele>
        <time>2025-05-05T11:47:58Z</time>
      </trkpt>
      <trkpt lat="51.632945984601974" lon="5.341644985601306">
        <ele>8.194266000000001</ele>
        <time>2025-05-05T11:48:02Z</time>
      </trkpt>
      <trkpt lat="51.633158968761563" lon="5.341813964769244">
        <ele>8.202515999999999</ele>
        <time>2025-05-05T11:48:07Z</time>
      </trkpt>
      <trkpt lat="51.633531041443348" lon="5.342006999999285">
        <ele>8.216094999999999</ele>
        <time>2025-05-05T11:48:15Z</time>
      </trkpt>
      <trkpt lat="51.633890038356185" lon="5.342195006087422">
        <ele>8.229210999999999</ele>
        <time>2025-05-05T11:48:23Z</time>
      </trkpt>
      <trkpt lat="51.635203985497355" lon="5.342728011310101">
        <ele>8.241451</ele>
        <time>2025-05-05T11:48:50Z</time>
      </trkpt>
      <trkpt lat="51.635590977966785" lon="5.342943007126451">
        <ele>8.234310000000001</ele>
        <time>2025-05-05T11:48:58Z</time>
      </trkpt>
      <trkpt lat="51.635806979611516" lon="5.34313696436584">
        <ele>8.229996</ele>
        <time>2025-05-05T11:49:03Z</time>
      </trkpt>
      <trkpt lat="51.63594301789999" lon="5.343214999884367">
        <ele>8.227478</ele>
        <time>2025-05-05T11:49:06Z</time>
      </trkpt>
      <trkpt lat="51.636551963165402" lon="5.343590006232262">
        <ele>8.191119000000001</ele>
        <time>2025-05-05T11:49:19Z</time>
      </trkpt>
      <trkpt lat="51.636744998395443" lon="5.343768959864974">
        <ele>8.169950999999999</ele>
        <time>2025-05-05T11:49:23Z</time>
      </trkpt>
      <trkpt lat="51.636983966454864" lon="5.344110019505024">
        <ele>8.139604</ele>
        <time>2025-05-05T11:49:30Z</time>
      </trkpt>
      <trkpt lat="51.637016991153359" lon="5.344156958162785">
        <ele>8.135417</ele>
        <time>2025-05-05T11:49:30Z</time>
      </trkpt>
      <trkpt lat="51.637749988585711" lon="5.345270996913314">
        <ele>7.948368</ele>
        <time>2025-05-05T11:49:51Z</time>
      </trkpt>
      <trkpt lat="51.638019969686866" lon="5.345847001299262">
        <ele>7.555945</ele>
        <time>2025-05-05T11:50:00Z</time>
      </trkpt>
      <trkpt lat="51.638079984113574" lon="5.346157969906926">
        <ele>7.37889</ele>
        <time>2025-05-05T11:50:03Z</time>
      </trkpt>
      <trkpt lat="51.638159025460482" lon="5.34674403257668">
        <ele>7.052884</ele>
        <time>2025-05-05T11:50:10Z</time>
      </trkpt>
      <trkpt lat="51.638100016862154" lon="5.346770016476512">
        <ele>6.999304</ele>
        <time>2025-05-05T11:50:11Z</time>
      </trkpt>
      <trkpt lat="51.638005971908569" lon="5.346812009811401">
        <ele>6.913856</ele>
        <time>2025-05-05T11:50:12Z</time>
      </trkpt>
      <trkpt lat="51.637966996058822" lon="5.346836987882853">
        <ele>6.877089</ele>
        <time>2025-05-05T11:50:13Z</time>
      </trkpt>
      <trkpt lat="51.638002032414079" lon="5.347053995355964">
        <ele>6.755199</ele>
        <time>2025-05-05T11:50:15Z</time>
      </trkpt>
      <trkpt lat="51.637990968301892" lon="5.347156003117561">
        <ele>6.698915</ele>
        <time>2025-05-05T11:50:16Z</time>
      </trkpt>
      <trkpt lat="51.638015024363995" lon="5.347257005050778">
        <ele>6.64012</ele>
        <time>2025-05-05T11:50:17Z</time>
      </trkpt>
      <trkpt lat="51.638128012418747" lon="5.347639974206686">
        <ele>6.421809</ele>
        <time>2025-05-05T11:50:22Z</time>
      </trkpt>
      <trkpt lat="51.638215016573668" lon="5.348327038809657">
        <ele>6.111709</ele>
        <time>2025-05-05T11:50:29Z</time>
      </trkpt>
      <trkpt lat="51.638210993260145" lon="5.348390992730856">
        <ele>6.083261</ele>
        <time>2025-05-05T11:50:29Z</time>
      </trkpt>
      <trkpt lat="51.638186015188694" lon="5.34850599244237">
        <ele>6.02937</ele>
        <time>2025-05-05T11:50:30Z</time>
      </trkpt>
      <trkpt lat="51.638056011870503" lon="5.348642030730844">
        <ele>5.918916</ele>
        <time>2025-05-05T11:50:32Z</time>
      </trkpt>
      <trkpt lat="51.637483024969697" lon="5.348844034597278">
        <ele>5.500926</ele>
        <time>2025-05-05T11:50:40Z</time>
      </trkpt>
      <trkpt lat="51.637386968359351" lon="5.348966997116804">
        <ele>5.413522</ele>
        <time>2025-05-05T11:50:42Z</time>
      </trkpt>
      <trkpt lat="51.637354027479887" lon="5.349169000983238">
        <ele>5.321139</ele>
        <time>2025-05-05T11:50:44Z</time>
      </trkpt>
      <trkpt lat="51.637445976957679" lon="5.349818011745811">
        <ele>5.272041</ele>
        <time>2025-05-05T11:50:51Z</time>
      </trkpt>
      <trkpt lat="51.637500962242484" lon="5.350201986730099">
        <ele>5.354198</ele>
        <time>2025-05-05T11:50:55Z</time>
      </trkpt>
      <trkpt lat="51.63759701885283" lon="5.350492000579834">
        <ele>5.422717</ele>
        <time>2025-05-05T11:50:59Z</time>
      </trkpt>
      <trkpt lat="51.637631971389055" lon="5.350639019161463">
        <ele>5.45554</ele>
        <time>2025-05-05T11:51:00Z</time>
      </trkpt>
      <trkpt lat="51.637631971389055" lon="5.350797018036246">
        <ele>5.488478</ele>
        <time>2025-05-05T11:51:02Z</time>
      </trkpt>
      <trkpt lat="51.637594001367688" lon="5.350988041609526">
        <ele>5.530292</ele>
        <time>2025-05-05T11:51:04Z</time>
      </trkpt>
      <trkpt lat="51.637605987489223" lon="5.351156014949083">
        <ele>5.565546</ele>
        <time>2025-05-05T11:51:06Z</time>
      </trkpt>
      <trkpt lat="51.637589978054166" lon="5.351583994925022">
        <ele>5.654934</ele>
        <time>2025-05-05T11:51:10Z</time>
      </trkpt>
      <trkpt lat="51.63757698610425" lon="5.352298971265554">
        <ele>5.793149</ele>
        <time>2025-05-05T11:51:17Z</time>
      </trkpt>
      <trkpt lat="51.637517977505922" lon="5.353589029982686">
        <ele>5.606334</ele>
        <time>2025-05-05T11:51:28Z</time>
      </trkpt>
      <trkpt lat="51.637480007484555" lon="5.354280034080148">
        <ele>5.506145</ele>
        <time>2025-05-05T11:51:33Z</time>
      </trkpt>
      <trkpt lat="51.637480007484555" lon="5.354870036244392">
        <ele>5.420934</ele>
        <time>2025-05-05T11:51:38Z</time>
      </trkpt>
      <trkpt lat="51.637538010254502" lon="5.355506977066398">
        <ele>5.47819</ele>
        <time>2025-05-05T11:51:45Z</time>
      </trkpt>
      <trkpt lat="51.637756023555994" lon="5.356818996369839">
        <ele>5.858694</ele>
        <time>2025-05-05T11:51:59Z</time>
      </trkpt>
      <trkpt lat="51.637802962213755" lon="5.357096018269658">
        <ele>5.939144</ele>
        <time>2025-05-05T11:52:02Z</time>
      </trkpt>
      <trkpt lat="51.637926008552313" lon="5.357913002371788">
        <ele>6.174666</ele>
        <time>2025-05-05T11:52:12Z</time>
      </trkpt>
      <trkpt lat="51.637884015217423" lon="5.357958013191819">
        <ele>6.19231</ele>
        <time>2025-05-05T11:52:13Z</time>
      </trkpt>
      <trkpt lat="51.638129018247128" lon="5.359372962266207">
        <ele>6.278144</ele>
        <time>2025-05-05T11:52:31Z</time>
      </trkpt>
      <trkpt lat="51.638282993808389" lon="5.360855972394347">
        <ele>6.360304</ele>
        <time>2025-05-05T11:52:50Z</time>
      </trkpt>
      <trkpt lat="51.63832800462842" lon="5.360853038728237">
        <ele>6.360313</ele>
        <time>2025-05-05T11:52:50Z</time>
      </trkpt>
      <trkpt lat="51.638375027105212" lon="5.360850021243095">
        <ele>6.360322</ele>
        <time>2025-05-05T11:52:51Z</time>
      </trkpt>
      <trkpt lat="51.638428000733256" lon="5.360847003757954">
        <ele>6.360332</ele>
        <time>2025-05-05T11:52:52Z</time>
      </trkpt>
      <trkpt lat="51.638430012390018" lon="5.361176999285817">
        <ele>6.360371</ele>
        <time>2025-05-05T11:52:56Z</time>
      </trkpt>
      <trkpt lat="51.638438981026411" lon="5.361409010365605">
        <ele>6.360399</ele>
        <time>2025-05-05T11:53:00Z</time>
      </trkpt>
      <trkpt lat="51.638475023210049" lon="5.361929023638368">
        <ele>6.360461</ele>
        <time>2025-05-05T11:53:06Z</time>
      </trkpt>
      <trkpt lat="51.6384809743613" lon="5.363000985234976">
        <ele>6.360588</ele>
        <time>2025-05-05T11:53:20Z</time>
      </trkpt>
      <trkpt lat="51.638400005176663" lon="5.364049980416894">
        <ele>6.214864</ele>
        <time>2025-05-05T11:53:32Z</time>
      </trkpt>
      <trkpt lat="51.638204036280513" lon="5.365481022745371">
        <ele>5.88528</ele>
        <time>2025-05-05T11:53:49Z</time>
      </trkpt>
      <trkpt lat="51.638228008523583" lon="5.366247966885567">
        <ele>5.712558</ele>
        <time>2025-05-05T11:53:58Z</time>
      </trkpt>
      <trkpt lat="51.638316018506885" lon="5.36700401455164">
        <ele>5.637301</ele>
        <time>2025-05-05T11:54:07Z</time>
      </trkpt>
      <trkpt lat="51.638331022113562" lon="5.36715597845614">
        <ele>5.622672</ele>
        <time>2025-05-05T11:54:09Z</time>
      </trkpt>
      <trkpt lat="51.638378966599703" lon="5.36767196841538">
        <ele>5.573081</ele>
        <time>2025-05-05T11:54:16Z</time>
      </trkpt>
      <trkpt lat="51.638368992134929" lon="5.367989977821708">
        <ele>5.542818</ele>
        <time>2025-05-05T11:54:20Z</time>
      </trkpt>
      <trkpt lat="51.638333033770323" lon="5.368190975859761">
        <ele>5.522934</ele>
        <time>2025-05-05T11:54:22Z</time>
      </trkpt>
      <trkpt lat="51.637530969455838" lon="5.370848961174488">
        <ele>5.725549</ele>
        <time>2025-05-05T11:55:00Z</time>
      </trkpt>
      <trkpt lat="51.637310022488236" lon="5.371618000790477">
        <ele>5.848532</ele>
        <time>2025-05-05T11:55:12Z</time>
      </trkpt>
      <trkpt lat="51.637241039425135" lon="5.371955037117004">
        <ele>5.906813</ele>
        <time>2025-05-05T11:55:17Z</time>
      </trkpt>
      <trkpt lat="51.637141965329647" lon="5.372574962675571">
        <ele>6.013394</ele>
        <time>2025-05-05T11:55:25Z</time>
      </trkpt>
      <trkpt lat="51.637155041098595" lon="5.372876040637493">
        <ele>6.063627</ele>
        <time>2025-05-05T11:55:30Z</time>
      </trkpt>
      <trkpt lat="51.637235004454851" lon="5.37319203838706">
        <ele>6.120445</ele>
        <time>2025-05-05T11:55:34Z</time>
      </trkpt>
      <trkpt lat="51.637845039367676" lon="5.374916028231382">
        <ele>6.223314</ele>
        <time>2025-05-05T11:55:59Z</time>
      </trkpt>
      <trkpt lat="51.638325992971659" lon="5.375893022865057">
        <ele>6.018007</ele>
        <time>2025-05-05T11:56:14Z</time>
      </trkpt>
      <trkpt lat="51.638466976583004" lon="5.376226035878062">
        <ele>5.951641</ele>
        <time>2025-05-05T11:56:19Z</time>
      </trkpt>
      <trkpt lat="51.638622041791677" lon="5.376710006967187">
        <ele>5.861978</ele>
        <time>2025-05-05T11:56:25Z</time>
      </trkpt>
      <trkpt lat="51.638725977391005" lon="5.37736102938652">
        <ele>5.736991</ele>
        <time>2025-05-05T11:56:33Z</time>
      </trkpt>
      <trkpt lat="51.638789009302855" lon="5.377719020470977">
        <ele>5.667609</ele>
        <time>2025-05-05T11:56:37Z</time>
      </trkpt>
      <trkpt lat="51.638846006244421" lon="5.377857992425561">
        <ele>5.636545</ele>
        <time>2025-05-05T11:56:39Z</time>
      </trkpt>
      <trkpt lat="51.638969974592328" lon="5.378085980191827">
        <ele>5.58002</ele>
        <time>2025-05-05T11:56:42Z</time>
      </trkpt>
      <trkpt lat="51.638910965994" lon="5.378205003216863">
        <ele>5.551621</ele>
        <time>2025-05-05T11:56:43Z</time>
      </trkpt>
      <trkpt lat="51.638857992365956" lon="5.378302987664938">
        <ele>5.527384</ele>
        <time>2025-05-05T11:56:44Z</time>
      </trkpt>
      <trkpt lat="51.638799989596009" lon="5.378437014296651">
        <ele>5.496923</ele>
        <time>2025-05-05T11:56:46Z</time>
      </trkpt>
      <trkpt lat="51.638784985989332" lon="5.378534998744726">
        <ele>5.478102</ele>
        <time>2025-05-05T11:56:48Z</time>
      </trkpt>
      <trkpt lat="51.638748021796346" lon="5.379098011180759">
        <ele>5.372541</ele>
        <time>2025-05-05T11:56:54Z</time>
      </trkpt>
      <trkpt lat="51.638717008754611" lon="5.379675021395087">
        <ele>5.319809</ele>
        <time>2025-05-05T11:57:02Z</time>
      </trkpt>
      <trkpt lat="51.638590022921562" lon="5.381340002641082">
        <ele>5.324797</ele>
        <time>2025-05-05T11:57:23Z</time>
      </trkpt>
      <trkpt lat="51.638460019603372" lon="5.382289001718164">
        <ele>5.329425</ele>
        <time>2025-05-05T11:57:35Z</time>
      </trkpt>
      <trkpt lat="51.63824200630188" lon="5.383470011875033">
        <ele>5.382988</ele>
        <time>2025-05-05T11:57:51Z</time>
      </trkpt>
      <trkpt lat="51.637889966368675" lon="5.385137004777789">
        <ele>5.445822</ele>
        <time>2025-05-05T11:58:07Z</time>
      </trkpt>
      <trkpt lat="51.637267023324966" lon="5.387669010087848">
        <ele>5.293115</ele>
        <time>2025-05-05T11:58:32Z</time>
      </trkpt>
      <trkpt lat="51.637065019458532" lon="5.388457998633385">
        <ele>5.284664</ele>
        <time>2025-05-05T11:58:42Z</time>
      </trkpt>
      <trkpt lat="51.636368986219168" lon="5.391200976446271">
        <ele>5.279095</ele>
        <time>2025-05-05T11:59:10Z</time>
      </trkpt>
      <trkpt lat="51.635743025690317" lon="5.393591998144984">
        <ele>5.315742</ele>
        <time>2025-05-05T11:59:42Z</time>
      </trkpt>
      <trkpt lat="51.634734012186527" lon="5.396806038916111">
        <ele>5.384003</ele>
        <time>2025-05-05T12:00:28Z</time>
      </trkpt>
      <trkpt lat="51.634347019717097" lon="5.399054987356067">
        <ele>5.443835</ele>
        <time>2025-05-05T12:00:57Z</time>
      </trkpt>
      <trkpt lat="51.634200001135468" lon="5.400064000859857">
        <ele>5.494234</ele>
        <time>2025-05-05T12:01:11Z</time>
      </trkpt>
      <trkpt lat="51.633977964520454" lon="5.401529995724559">
        <ele>5.562271</ele>
        <time>2025-05-05T12:01:25Z</time>
      </trkpt>
      <trkpt lat="51.633793981745839" lon="5.403182990849018">
        <ele>5.619459</ele>
        <time>2025-05-05T12:01:40Z</time>
      </trkpt>
      <trkpt lat="51.633658027276397" lon="5.40505601093173">
        <ele>5.803755</ele>
        <time>2025-05-05T12:01:59Z</time>
      </trkpt>
      <trkpt lat="51.633627014234662" lon="5.405756989493966">
        <ele>5.909308</ele>
        <time>2025-05-05T12:02:06Z</time>
      </trkpt>
      <trkpt lat="51.633604969829321" lon="5.408287988975644">
        <ele>6.317564</ele>
        <time>2025-05-05T12:02:30Z</time>
      </trkpt>
      <trkpt lat="51.633554007858038" lon="5.408958038315177">
        <ele>6.432782</ele>
        <time>2025-05-05T12:02:37Z</time>
      </trkpt>
      <trkpt lat="51.633455017581582" lon="5.40965398773551">
        <ele>6.55466</ele>
        <time>2025-05-05T12:02:44Z</time>
      </trkpt>
      <trkpt lat="51.633309004828334" lon="5.410337029024959">
        <ele>6.654983</ele>
        <time>2025-05-05T12:02:51Z</time>
      </trkpt>
      <trkpt lat="51.633118987083435" lon="5.410962989553809">
        <ele>6.746496</ele>
        <time>2025-05-05T12:02:58Z</time>
      </trkpt>
      <trkpt lat="51.6329360101372" lon="5.411446960642934">
        <ele>6.820923</ele>
        <time>2025-05-05T12:03:04Z</time>
      </trkpt>
      <trkpt lat="51.632894016802311" lon="5.411548968404532">
        <ele>6.836998</ele>
        <time>2025-05-05T12:03:05Z</time>
      </trkpt>
      <trkpt lat="51.633012033998966" lon="5.411636978387833">
        <ele>6.864509</ele>
        <time>2025-05-05T12:03:07Z</time>
      </trkpt>
      <trkpt lat="51.633028965443373" lon="5.411648964509368">
        <ele>6.868436</ele>
        <time>2025-05-05T12:03:08Z</time>
      </trkpt>
      <trkpt lat="51.633046986535192" lon="5.411661034449935">
        <ele>6.872558</ele>
        <time>2025-05-05T12:03:08Z</time>
      </trkpt>
      <trkpt lat="51.63306500762701" lon="5.411761030554771">
        <ele>6.886231</ele>
        <time>2025-05-05T12:03:09Z</time>
      </trkpt>
      <trkpt lat="51.633085962384939" lon="5.411773016676307">
        <ele>6.890946</ele>
        <time>2025-05-05T12:03:10Z</time>
      </trkpt>
      <trkpt lat="51.633105995133519" lon="5.411783996969461">
        <ele>6.895417</ele>
        <time>2025-05-05T12:03:10Z</time>
      </trkpt>
      <trkpt lat="51.633233986794949" lon="5.411816015839577">
        <ele>6.922823</ele>
        <time>2025-05-05T12:03:12Z</time>
      </trkpt>
      <trkpt lat="51.633239015936852" lon="5.411946019157767">
        <ele>6.939929</ele>
        <time>2025-05-05T12:03:13Z</time>
      </trkpt>
      <trkpt lat="51.633249996230006" lon="5.412093037739396">
        <ele>6.958621</ele>
        <time>2025-05-05T12:03:15Z</time>
      </trkpt>
      <trkpt lat="51.633260976523161" lon="5.41220803745091">
        <ele>6.950539</ele>
        <time>2025-05-05T12:03:17Z</time>
      </trkpt>
      <trkpt lat="51.63328000344336" lon="5.412333011627197">
        <ele>6.941601</ele>
        <time>2025-05-05T12:03:18Z</time>
      </trkpt>
      <trkpt lat="51.633282015100121" lon="5.412348015233874">
        <ele>6.940536</ele>
        <time>2025-05-05T12:03:18Z</time>
      </trkpt>
      <trkpt lat="51.633324008435011" lon="5.412558987736702">
        <ele>6.925146</ele>
        <time>2025-05-05T12:03:20Z</time>
      </trkpt>
      <trkpt lat="51.633329959586263" lon="5.412588994950056">
        <ele>6.922957</ele>
        <time>2025-05-05T12:03:21Z</time>
      </trkpt>
      <trkpt lat="51.633449988439679" lon="5.413040025159717">
        <ele>6.888877</ele>
        <time>2025-05-05T12:03:25Z</time>
      </trkpt>
      <trkpt lat="51.633510002866387" lon="5.413131974637508">
        <ele>6.879608</ele>
        <time>2025-05-05T12:03:26Z</time>
      </trkpt>
      <trkpt lat="51.634771982207894" lon="5.413528019562364">
        <ele>6.77115</ele>
        <time>2025-05-05T12:03:44Z</time>
      </trkpt>
      <trkpt lat="51.635055039077997" lon="5.413703033700585">
        <ele>6.792129</ele>
        <time>2025-05-05T12:03:49Z</time>
      </trkpt>
      <trkpt lat="51.636338979005814" lon="5.415082024410367">
        <ele>6.914816</ele>
        <time>2025-05-05T12:04:13Z</time>
      </trkpt>
      <trkpt lat="51.636394970118999" lon="5.415198029950261">
        <ele>6.92709</ele>
        <time>2025-05-05T12:04:14Z</time>
      </trkpt>
      <trkpt lat="51.636407962068915" lon="5.415329039096832">
        <ele>6.93817</ele>
        <time>2025-05-05T12:04:15Z</time>
      </trkpt>
      <trkpt lat="51.636600997298956" lon="5.415294002741575">
        <ele>6.964306</ele>
        <time>2025-05-05T12:04:18Z</time>
      </trkpt>
      <trkpt lat="51.636612983420491" lon="5.415485026314855">
        <ele>6.980339</ele>
        <time>2025-05-05T12:04:20Z</time>
      </trkpt>
      <trkpt lat="51.636639973148704" lon="5.416100006550551">
        <ele>7.031832</ele>
        <time>2025-05-05T12:04:26Z</time>
      </trkpt>
      <trkpt lat="51.636919006705284" lon="5.419699028134346">
        <ele>7.334963</ele>
        <time>2025-05-05T12:05:13Z</time>
      </trkpt>
      <trkpt lat="51.637632977217436" lon="5.424482999369502">
        <ele>7.245942</ele>
        <time>2025-05-05T12:06:14Z</time>
      </trkpt>
      <trkpt lat="51.637712018564343" lon="5.42497199960053">
        <ele>7.219078</ele>
        <time>2025-05-05T12:06:20Z</time>
      </trkpt>
      <trkpt lat="51.638104040175676" lon="5.427654040977359">
        <ele>6.901511</ele>
        <time>2025-05-05T12:06:54Z</time>
      </trkpt>
      <trkpt lat="51.638146033510566" lon="5.427944976836443">
        <ele>6.860181</ele>
        <time>2025-05-05T12:06:57Z</time>
      </trkpt>
      <trkpt lat="51.638920018449426" lon="5.433130022138357">
        <ele>6.428611</ele>
        <time>2025-05-05T12:08:03Z</time>
      </trkpt>
      <trkpt lat="51.639150017872453" lon="5.436099981889129">
        <ele>6.390425</ele>
        <time>2025-05-05T12:08:30Z</time>
      </trkpt>
      <trkpt lat="51.639110036194324" lon="5.436480017378926">
        <ele>6.3953</ele>
        <time>2025-05-05T12:08:33Z</time>
      </trkpt>
      <trkpt lat="51.638690019026399" lon="5.438460996374488">
        <ele>6.496575</ele>
        <time>2025-05-05T12:08:54Z</time>
      </trkpt>
      <trkpt lat="51.6397899761796" lon="5.43908997438848">
        <ele>6.52637</ele>
        <time>2025-05-05T12:09:11Z</time>
      </trkpt>
      <trkpt lat="51.639629965648055" lon="5.439900001510978">
        <ele>6.432422</ele>
        <time>2025-05-05T12:09:19Z</time>
      </trkpt>
      <trkpt lat="51.639640023931861" lon="5.440369974821806">
        <ele>6.380446</ele>
        <time>2025-05-05T12:09:23Z</time>
      </trkpt>
      <trkpt lat="51.639599958434701" lon="5.440750010311604">
        <ele>6.337847</ele>
        <time>2025-05-05T12:09:26Z</time>
      </trkpt>
      <trkpt lat="51.63905999623239" lon="5.443619973957539">
        <ele>5.86235</ele>
        <time>2025-05-05T12:09:52Z</time>
      </trkpt>
      <trkpt lat="51.638980032876134" lon="5.4439000133425">
        <ele>5.80905</ele>
        <time>2025-05-05T12:09:54Z</time>
      </trkpt>
      <trkpt lat="51.638860004022717" lon="5.444179968908429">
        <ele>5.751209</ele>
        <time>2025-05-05T12:09:57Z</time>
      </trkpt>
      <trkpt lat="51.638599997386336" lon="5.444539971649647">
        <ele>5.665032</ele>
        <time>2025-05-05T12:10:02Z</time>
      </trkpt>
      <trkpt lat="51.638400005176663" lon="5.44486996717751">
        <ele>5.59307</ele>
        <time>2025-05-05T12:10:06Z</time>
      </trkpt>
      <trkpt lat="51.638360023498535" lon="5.444985972717404">
        <ele>5.572366</ele>
        <time>2025-05-05T12:10:07Z</time>
      </trkpt>
      <trkpt lat="51.6383290104568" lon="5.445078006014228">
        <ele>5.556033</ele>
        <time>2025-05-05T12:10:08Z</time>
      </trkpt>
      <trkpt lat="51.635785019025207" lon="5.452459026128054">
        <ele>4.506463</ele>
        <time>2025-05-05T12:11:21Z</time>
      </trkpt>
      <trkpt lat="51.634188015013933" lon="5.456339009106159">
        <ele>5.399505</ele>
        <time>2025-05-05T12:12:09Z</time>
      </trkpt>
      <trkpt lat="51.634089024737477" lon="5.456580994650722">
        <ele>5.435841</ele>
        <time>2025-05-05T12:12:12Z</time>
      </trkpt>
      <trkpt lat="51.634024986997247" lon="5.456756008788943">
        <ele>5.451903</ele>
        <time>2025-05-05T12:12:14Z</time>
      </trkpt>
      <trkpt lat="51.634004032239318" lon="5.456787021830678">
        <ele>5.455532</ele>
        <time>2025-05-05T12:12:14Z</time>
      </trkpt>
      <trkpt lat="51.633990034461021" lon="5.456834966316819">
        <ele>5.459725</ele>
        <time>2025-05-05T12:12:15Z</time>
      </trkpt>
      <trkpt lat="51.633981987833977" lon="5.45685701072216">
        <ele>5.461742</ele>
        <time>2025-05-05T12:12:15Z</time>
      </trkpt>
      <trkpt lat="51.635649986565113" lon="5.458286963403225">
        <ele>5.694629</ele>
        <time>2025-05-05T12:12:44Z</time>
      </trkpt>
      <trkpt lat="51.636086013168097" lon="5.458610001951456">
        <ele>5.746892</ele>
        <time>2025-05-05T12:12:51Z</time>
      </trkpt>
      <trkpt lat="51.637819977477193" lon="5.459695039317012">
        <ele>5.999806</ele>
        <time>2025-05-05T12:13:20Z</time>
      </trkpt>
      <trkpt lat="51.637992979958653" lon="5.459806015715003">
        <ele>6.0298</ele>
        <time>2025-05-05T12:13:22Z</time>
      </trkpt>
      <trkpt lat="51.64030697196722" lon="5.461228005588055">
        <ele>6.475774</ele>
        <time>2025-05-05T12:14:01Z</time>
      </trkpt>
      <trkpt lat="51.640574019402266" lon="5.461459010839462">
        <ele>6.545629</ele>
        <time>2025-05-05T12:14:06Z</time>
      </trkpt>
      <trkpt lat="51.640697987750173" lon="5.461614998057485">
        <ele>6.581891</ele>
        <time>2025-05-05T12:14:08Z</time>
      </trkpt>
      <trkpt lat="51.640845006331801" lon="5.461822031065822">
        <ele>6.62689</ele>
        <time>2025-05-05T12:14:11Z</time>
      </trkpt>
      <trkpt lat="51.641023959964514" lon="5.462154960259795">
        <ele>6.68991</ele>
        <time>2025-05-05T12:14:15Z</time>
      </trkpt>
      <trkpt lat="51.641626032069325" lon="5.463855983689427">
        <ele>7.022887</ele>
        <time>2025-05-05T12:14:35Z</time>
      </trkpt>
      <trkpt lat="51.641978994011879" lon="5.464862985536456">
        <ele>7.289293</ele>
        <time>2025-05-05T12:14:47Z</time>
      </trkpt>
      <trkpt lat="51.64213296957314" lon="5.465221982449293">
        <ele>7.38982</ele>
        <time>2025-05-05T12:14:51Z</time>
      </trkpt>
      <trkpt lat="51.642370009794831" lon="5.465573016554117">
        <ele>7.5093</ele>
        <time>2025-05-05T12:14:56Z</time>
      </trkpt>
      <trkpt lat="51.642613001167774" lon="5.465793963521719">
        <ele>7.601687</ele>
        <time>2025-05-05T12:15:01Z</time>
      </trkpt>
      <trkpt lat="51.643503997474909" lon="5.466505000367761">
        <ele>7.904011</ele>
        <time>2025-05-05T12:15:17Z</time>
      </trkpt>
      <trkpt lat="51.643602987751365" lon="5.466586975380778">
        <ele>7.937857</ele>
        <time>2025-05-05T12:15:19Z</time>
      </trkpt>
      <trkpt lat="51.643712958320975" lon="5.466612037271261">
        <ele>7.971636</ele>
        <time>2025-05-05T12:15:21Z</time>
      </trkpt>
      <trkpt lat="51.643856037408113" lon="5.466590998694301">
        <ele>8.015298</ele>
        <time>2025-05-05T12:15:23Z</time>
      </trkpt>
      <trkpt lat="51.643983023241162" lon="5.466512963175774">
        <ele>8.056623999999999</ele>
        <time>2025-05-05T12:15:25Z</time>
      </trkpt>
      <trkpt lat="51.644149990752339" lon="5.466270977631211">
        <ele>8.082216000000001</ele>
        <time>2025-05-05T12:15:29Z</time>
      </trkpt>
      <trkpt lat="51.644213022664189" lon="5.46605296432972">
        <ele>8.055802999999999</ele>
        <time>2025-05-05T12:15:31Z</time>
      </trkpt>
      <trkpt lat="51.644294997677207" lon="5.465434966608882">
        <ele>7.986393</ele>
        <time>2025-05-05T12:15:37Z</time>
      </trkpt>
      <trkpt lat="51.644421983510256" lon="5.464732982218266">
        <ele>7.906081</ele>
        <time>2025-05-05T12:15:43Z</time>
      </trkpt>
      <trkpt lat="51.644565984606743" lon="5.464120013639331">
        <ele>7.834092</ele>
        <time>2025-05-05T12:15:49Z</time>
      </trkpt>
      <trkpt lat="51.644886005669832" lon="5.463107982650399">
        <ele>7.506522</ele>
        <time>2025-05-05T12:15:58Z</time>
      </trkpt>
      <trkpt lat="51.64539503864944" lon="5.461891014128923">
        <ele>6.879843</ele>
        <time>2025-05-05T12:16:10Z</time>
      </trkpt>
      <trkpt lat="51.645582038909197" lon="5.461320960894227">
        <ele>6.604532</ele>
        <time>2025-05-05T12:16:15Z</time>
      </trkpt>
      <trkpt lat="51.645727967843413" lon="5.460970010608435">
        <ele>6.476669</ele>
        <time>2025-05-05T12:16:18Z</time>
      </trkpt>
      <trkpt lat="51.646225014701486" lon="5.460086977109313">
        <ele>6.194818</ele>
        <time>2025-05-05T12:16:28Z</time>
      </trkpt>
      <trkpt lat="51.646404974162579" lon="5.460018999874592">
        <ele>6.124377</ele>
        <time>2025-05-05T12:16:30Z</time>
      </trkpt>
      <trkpt lat="51.646478986367583" lon="5.460028974339366">
        <ele>6.096083</ele>
        <time>2025-05-05T12:16:31Z</time>
      </trkpt>
      <trkpt lat="51.646842006593943" lon="5.460271965712309">
        <ele>5.946319</ele>
        <time>2025-05-05T12:16:37Z</time>
      </trkpt>
      <trkpt lat="51.646863967180252" lon="5.46031597070396">
        <ele>5.932959</ele>
        <time>2025-05-05T12:16:37Z</time>
      </trkpt>
      <trkpt lat="51.646883999928832" lon="5.460521997883916">
        <ele>5.883664</ele>
        <time>2025-05-05T12:16:39Z</time>
      </trkpt>
      <trkpt lat="51.646968992426991" lon="5.460644960403442">
        <ele>5.863675</ele>
        <time>2025-05-05T12:16:41Z</time>
      </trkpt>
      <trkpt lat="51.647040992975235" lon="5.460737999528647">
        <ele>5.878827</ele>
        <time>2025-05-05T12:16:43Z</time>
      </trkpt>
      <trkpt lat="51.647093966603279" lon="5.460758032277226">
        <ele>5.887765</ele>
        <time>2025-05-05T12:16:43Z</time>
      </trkpt>
      <trkpt lat="51.64717803709209" lon="5.460707992315292">
        <ele>5.90247</ele>
        <time>2025-05-05T12:16:45Z</time>
      </trkpt>
      <trkpt lat="51.64726696908474" lon="5.460747973993421">
        <ele>5.917643</ele>
        <time>2025-05-05T12:16:46Z</time>
      </trkpt>
      <trkpt lat="51.647649016231298" lon="5.461377035826445">
        <ele>6.007323</ele>
        <time>2025-05-05T12:16:55Z</time>
      </trkpt>
      <trkpt lat="51.647913968190551" lon="5.461938958615065">
        <ele>6.079245</ele>
        <time>2025-05-05T12:17:01Z</time>
      </trkpt>
      <trkpt lat="51.648001978173852" lon="5.462205000221729">
        <ele>6.10996</ele>
        <time>2025-05-05T12:17:04Z</time>
      </trkpt>
      <trkpt lat="51.648019999265671" lon="5.462446985766292">
        <ele>6.134795</ele>
        <time>2025-05-05T12:17:07Z</time>
      </trkpt>
      <trkpt lat="51.648066015914083" lon="5.46263599768281">
        <ele>6.165698</ele>
        <time>2025-05-05T12:17:09Z</time>
      </trkpt>
      <trkpt lat="51.648122007027268" lon="5.463329013437033">
        <ele>6.442681</ele>
        <time>2025-05-05T12:17:19Z</time>
      </trkpt>
      <trkpt lat="51.648156037554145" lon="5.463508972898126">
        <ele>6.517255</ele>
        <time>2025-05-05T12:17:21Z</time>
      </trkpt>
      <trkpt lat="51.648321999236941" lon="5.463855983689427">
        <ele>6.690913</ele>
        <time>2025-05-05T12:17:27Z</time>
      </trkpt>
      <trkpt lat="51.648403974249959" lon="5.463915998116136">
        <ele>6.748437</ele>
        <time>2025-05-05T12:17:29Z</time>
      </trkpt>
      <trkpt lat="51.648884005844593" lon="5.464843036606908">
        <ele>7.226965</ele>
        <time>2025-05-05T12:17:47Z</time>
      </trkpt>
      <trkpt lat="51.64896396920085" lon="5.465016961097717">
        <ele>7.314321</ele>
        <time>2025-05-05T12:17:50Z</time>
      </trkpt>
      <trkpt lat="51.649085003882647" lon="5.46519298106432">
        <ele>7.431701</ele>
        <time>2025-05-05T12:17:54Z</time>
      </trkpt>
      <trkpt lat="51.64926496334374" lon="5.465624984353781">
        <ele>7.664223</ele>
        <time>2025-05-05T12:18:02Z</time>
      </trkpt>
      <trkpt lat="51.649470990523696" lon="5.466138040646911">
        <ele>7.93727</ele>
        <time>2025-05-05T12:18:11Z</time>
      </trkpt>
      <trkpt lat="51.649695038795471" lon="5.466560991480947">
        <ele>8.185763</ele>
        <time>2025-05-05T12:18:19Z</time>
      </trkpt>
      <trkpt lat="51.649902993813157" lon="5.466827033087611">
        <ele>8.376984</ele>
        <time>2025-05-05T12:18:25Z</time>
      </trkpt>
      <trkpt lat="51.650010030716658" lon="5.466916970908642">
        <ele>8.463903999999999</ele>
        <time>2025-05-05T12:18:28Z</time>
      </trkpt>
      <trkpt lat="51.650089994072914" lon="5.466988971456885">
        <ele>8.52989</ele>
        <time>2025-05-05T12:18:30Z</time>
      </trkpt>
      <trkpt lat="51.650537000969052" lon="5.467175971716642">
        <ele>8.73325</ele>
        <time>2025-05-05T12:18:38Z</time>
      </trkpt>
      <trkpt lat="51.651081992313266" lon="5.467325001955032">
        <ele>8.938188</ele>
        <time>2025-05-05T12:18:47Z</time>
      </trkpt>
      <trkpt lat="51.651320038363338" lon="5.467487024143338">
        <ele>9.03397</ele>
        <time>2025-05-05T12:18:51Z</time>
      </trkpt>
      <trkpt lat="51.651303023099899" lon="5.467564975842834">
        <ele>9.052986000000001</ele>
        <time>2025-05-05T12:18:52Z</time>
      </trkpt>
      <trkpt lat="51.65115600451827" lon="5.468211974948645">
        <ele>9.211475999999999</ele>
        <time>2025-05-05T12:18:59Z</time>
      </trkpt>
      <trkpt lat="51.651118034496903" lon="5.468367040157318">
        <ele>9.249812</ele>
        <time>2025-05-05T12:19:00Z</time>
      </trkpt>
      <trkpt lat="51.651468984782696" lon="5.468578012660146">
        <ele>9.157047</ele>
        <time>2025-05-05T12:19:06Z</time>
      </trkpt>
      <trkpt lat="51.651851031929255" lon="5.46869502402842">
        <ele>9.035593</ele>
        <time>2025-05-05T12:19:11Z</time>
      </trkpt>
      <trkpt lat="51.651990003883839" lon="5.468714972957969">
        <ele>8.992003</ele>
        <time>2025-05-05T12:19:13Z</time>
      </trkpt>
      <trkpt lat="51.653192974627018" lon="5.468893004581332">
        <ele>8.71738</ele>
        <time>2025-05-05T12:19:29Z</time>
      </trkpt>
      <trkpt lat="51.654244987294078" lon="5.469130966812372">
        <ele>8.779598999999999</ele>
        <time>2025-05-05T12:19:45Z</time>
      </trkpt>
      <trkpt lat="51.654768018051982" lon="5.469282008707523">
        <ele>8.799891000000001</ele>
        <time>2025-05-05T12:19:54Z</time>
      </trkpt>
      <trkpt lat="51.654939008876681" lon="5.469466997310519">
        <ele>8.780946</ele>
        <time>2025-05-05T12:19:57Z</time>
      </trkpt>
      <trkpt lat="51.655070018023252" lon="5.469690039753914">
        <ele>8.763419000000001</ele>
        <time>2025-05-05T12:20:00Z</time>
      </trkpt>
      <trkpt lat="51.65532298386097" lon="5.470329998061061">
        <ele>8.720109000000001</ele>
        <time>2025-05-05T12:20:07Z</time>
      </trkpt>
      <trkpt lat="51.655600005760789" lon="5.470799971371889">
        <ele>8.683112</ele>
        <time>2025-05-05T12:20:13Z</time>
      </trkpt>
      <trkpt lat="51.65687195956707" lon="5.472595039755106">
        <ele>8.050954000000001</ele>
        <time>2025-05-05T12:20:35Z</time>
      </trkpt>
      <trkpt lat="51.656972961500287" lon="5.472653964534402">
        <ele>7.999554</ele>
        <time>2025-05-05T12:20:37Z</time>
      </trkpt>
      <trkpt lat="51.656989976763725" lon="5.472769970074296">
        <ele>7.964175</ele>
        <time>2025-05-05T12:20:38Z</time>
      </trkpt>
      <trkpt lat="51.657027024775743" lon="5.472834007814527">
        <ele>7.938208</ele>
        <time>2025-05-05T12:20:39Z</time>
      </trkpt>
      <trkpt lat="51.657341010868549" lon="5.473211025819182">
        <ele>7.767632</ele>
        <time>2025-05-05T12:20:46Z</time>
      </trkpt>
      <trkpt lat="51.657690033316612" lon="5.473549989983439">
        <ele>7.68308</ele>
        <time>2025-05-05T12:20:54Z</time>
      </trkpt>
      <trkpt lat="51.658393023535609" lon="5.474234959110618">
        <ele>7.512623</ele>
        <time>2025-05-05T12:21:10Z</time>
      </trkpt>
      <trkpt lat="51.658578012138605" lon="5.474480967968702">
        <ele>7.462859</ele>
        <time>2025-05-05T12:21:15Z</time>
      </trkpt>
      <trkpt lat="51.658646995201707" lon="5.474632009863854">
        <ele>7.438717</ele>
        <time>2025-05-05T12:21:17Z</time>
      </trkpt>
      <trkpt lat="51.658714972436428" lon="5.474956976249814">
        <ele>7.399574</ele>
        <time>2025-05-05T12:21:21Z</time>
      </trkpt>
      <trkpt lat="51.658788984641433" lon="5.475927013903856">
        <ele>7.323508</ele>
        <time>2025-05-05T12:21:33Z</time>
      </trkpt>
      <trkpt lat="51.658989982679486" lon="5.477429972961545">
        <ele>7.20384</ele>
        <time>2025-05-05T12:21:52Z</time>
      </trkpt>
      <trkpt lat="51.659037005156279" lon="5.478302026167512">
        <ele>7.129221</ele>
        <time>2025-05-05T12:22:03Z</time>
      </trkpt>
      <trkpt lat="51.659025019034743" lon="5.478389030322433">
        <ele>7.121301</ele>
        <time>2025-05-05T12:22:04Z</time>
      </trkpt>
      <trkpt lat="51.658941032364964" lon="5.478488020598888">
        <ele>7.106396</ele>
        <time>2025-05-05T12:22:06Z</time>
      </trkpt>
      <trkpt lat="51.658699968829751" lon="5.478539988398552">
        <ele>7.071568</ele>
        <time>2025-05-05T12:22:11Z</time>
      </trkpt>
      <trkpt lat="51.65858999826014" lon="5.478609977290034">
        <ele>7.054629</ele>
        <time>2025-05-05T12:22:13Z</time>
      </trkpt>
      <trkpt lat="51.65815900079906" lon="5.479032006114721">
        <ele>6.982397</ele>
        <time>2025-05-05T12:22:23Z</time>
      </trkpt>
      <trkpt lat="51.658083982765675" lon="5.479106018319726">
        <ele>6.969802</ele>
        <time>2025-05-05T12:22:25Z</time>
      </trkpt>
      <trkpt lat="51.65790201164782" lon="5.479229986667633">
        <ele>6.9415</ele>
        <time>2025-05-05T12:22:30Z</time>
      </trkpt>
      <trkpt lat="51.657763039693236" lon="5.479425033554435">
        <ele>6.934267</ele>
        <time>2025-05-05T12:22:35Z</time>
      </trkpt>
      <trkpt lat="51.657488029450178" lon="5.479963989928365">
        <ele>7.006895</ele>
        <time>2025-05-05T12:22:47Z</time>
      </trkpt>
      <trkpt lat="51.656737010926008" lon="5.481644980609417">
        <ele>7.222481</ele>
        <time>2025-05-05T12:23:24Z</time>
      </trkpt>
      <trkpt lat="51.656545987352729" lon="5.482136998325586">
        <ele>7.278571</ele>
        <time>2025-05-05T12:23:35Z</time>
      </trkpt>
      <trkpt lat="51.656554033979774" lon="5.482373032718897">
        <ele>7.301315</ele>
        <time>2025-05-05T12:23:39Z</time>
      </trkpt>
      <trkpt lat="51.656600972637534" lon="5.482508987188339">
        <ele>7.316296</ele>
        <time>2025-05-05T12:23:42Z</time>
      </trkpt>
      <trkpt lat="51.656842958182096" lon="5.482909977436066">
        <ele>7.37013</ele>
        <time>2025-05-05T12:23:52Z</time>
      </trkpt>
      <trkpt lat="51.657042028382421" lon="5.483128996565938">
        <ele>7.407506</ele>
        <time>2025-05-05T12:23:58Z</time>
      </trkpt>
      <trkpt lat="51.657789023593068" lon="5.484338002279401">
        <ele>7.550206</ele>
        <time>2025-05-05T12:24:28Z</time>
      </trkpt>
      <trkpt lat="51.657660026103258" lon="5.484419977292419">
        <ele>7.564818</ele>
        <time>2025-05-05T12:24:31Z</time>
      </trkpt>
      <trkpt lat="51.655762027949095" lon="5.487114004790783">
        <ele>7.859076</ele>
        <time>2025-05-05T12:25:10Z</time>
      </trkpt>
      <trkpt lat="51.655636969953775" lon="5.487307962030172">
        <ele>7.881064</ele>
        <time>2025-05-05T12:25:12Z</time>
      </trkpt>
      <trkpt lat="51.655565975233912" lon="5.487465038895607">
        <ele>7.896337</ele>
        <time>2025-05-05T12:25:14Z</time>
      </trkpt>
      <trkpt lat="51.655576033517718" lon="5.48758196644485">
        <ele>7.905622</ele>
        <time>2025-05-05T12:25:15Z</time>
      </trkpt>
      <trkpt lat="51.655632024630904" lon="5.487770978361368">
        <ele>7.922087</ele>
        <time>2025-05-05T12:25:17Z</time>
      </trkpt>
      <trkpt lat="51.655990015715361" lon="5.488830031827092">
        <ele>7.97799</ele>
        <time>2025-05-05T12:25:28Z</time>
      </trkpt>
      <trkpt lat="51.656066961586475" lon="5.489446017891169">
        <ele>8.007111999999999</ele>
        <time>2025-05-05T12:25:34Z</time>
      </trkpt>
      <trkpt lat="51.656042989343405" lon="5.490000983700156">
        <ele>8.032895</ele>
        <time>2025-05-05T12:25:40Z</time>
      </trkpt>
      <trkpt lat="51.655739983543754" lon="5.492292009294033">
        <ele>8.079738000000001</ele>
        <time>2025-05-05T12:26:02Z</time>
      </trkpt>
      <trkpt lat="51.655669994652271" lon="5.492551010102034">
        <ele>8.083322000000001</ele>
        <time>2025-05-05T12:26:04Z</time>
      </trkpt>
      <trkpt lat="51.655675023794174" lon="5.492992987856269">
        <ele>8.08893</ele>
        <time>2025-05-05T12:26:08Z</time>
      </trkpt>
      <trkpt lat="51.655547032132745" lon="5.494140973314643">
        <ele>7.980814</ele>
        <time>2025-05-05T12:26:19Z</time>
      </trkpt>
      <trkpt lat="51.65555901825428" lon="5.494466023519635">
        <ele>7.936461</ele>
        <time>2025-05-05T12:26:21Z</time>
      </trkpt>
      <trkpt lat="51.655654991045594" lon="5.494707003235817">
        <ele>7.897445</ele>
        <time>2025-05-05T12:26:24Z</time>
      </trkpt>
      <trkpt lat="51.656339960172772" lon="5.495580984279513">
        <ele>7.705609</ele>
        <time>2025-05-05T12:26:36Z</time>
      </trkpt>
      <trkpt lat="51.657779971137643" lon="5.497609991580248">
        <ele>7.951674</ele>
        <time>2025-05-05T12:27:06Z</time>
      </trkpt>
      <trkpt lat="51.658750008791685" lon="5.498780021443963">
        <ele>7.833416</ele>
        <time>2025-05-05T12:27:24Z</time>
      </trkpt>
      <trkpt lat="51.65931997820735" lon="5.499384021386504">
        <ele>7.737013</ele>
        <time>2025-05-05T12:27:33Z</time>
      </trkpt>
      <trkpt lat="51.659457022324204" lon="5.499520981684327">
        <ele>7.693902</ele>
        <time>2025-05-05T12:27:35Z</time>
      </trkpt>
      <trkpt lat="51.65949197486043" lon="5.499557023867965">
        <ele>7.682799</ele>
        <time>2025-05-05T12:27:36Z</time>
      </trkpt>
      <trkpt lat="51.660116007551551" lon="5.500244004651904">
        <ele>7.480736</ele>
        <time>2025-05-05T12:27:46Z</time>
      </trkpt>
      <trkpt lat="51.661214036867023" lon="5.501728020608425">
        <ele>7.404751</ele>
        <time>2025-05-05T12:28:08Z</time>
      </trkpt>
      <trkpt lat="51.664037983864546" lon="5.505451010540128">
        <ele>7.889721</ele>
        <time>2025-05-05T12:29:04Z</time>
      </trkpt>
      <trkpt lat="51.667271973565221" lon="5.509612038731575">
        <ele>8.417446999999999</ele>
        <time>2025-05-05T12:30:07Z</time>
      </trkpt>
      <trkpt lat="51.668609976768494" lon="5.511539960280061">
        <ele>8.625780000000001</ele>
        <time>2025-05-05T12:30:35Z</time>
      </trkpt>
      <trkpt lat="51.671090014278889" lon="5.514836981892586">
        <ele>8.579333999999999</ele>
        <time>2025-05-05T12:31:22Z</time>
      </trkpt>
      <trkpt lat="51.671966006979346" lon="5.516037018969655">
        <ele>8.485564</ele>
        <time>2025-05-05T12:31:39Z</time>
      </trkpt>
      <trkpt lat="51.672240011394024" lon="5.516451001167297">
        <ele>8.426850999999999</ele>
        <time>2025-05-05T12:31:44Z</time>
      </trkpt>
      <trkpt lat="51.672601019963622" lon="5.517107974737883">
        <ele>8.341733</ele>
        <time>2025-05-05T12:31:52Z</time>
      </trkpt>
      <trkpt lat="51.674010017886758" lon="5.519750034436584">
        <ele>7.618576</ele>
        <time>2025-05-05T12:32:21Z</time>
      </trkpt>
      <trkpt lat="51.674300031736493" lon="5.520229982212186">
        <ele>7.494687</ele>
        <time>2025-05-05T12:32:27Z</time>
      </trkpt>
      <trkpt lat="51.675399988889694" lon="5.521790022030473">
        <ele>7.183646</ele>
        <time>2025-05-05T12:32:48Z</time>
      </trkpt>
      <trkpt lat="51.677461015060544" lon="5.524552026763558">
        <ele>6.774939</ele>
        <time>2025-05-05T12:33:26Z</time>
      </trkpt>
      <trkpt lat="51.677424972876906" lon="5.524655962362886">
        <ele>6.775097</ele>
        <time>2025-05-05T12:33:27Z</time>
      </trkpt>
      <trkpt lat="51.677450034767389" lon="5.524826031178236">
        <ele>6.775329</ele>
        <time>2025-05-05T12:33:28Z</time>
      </trkpt>
      <trkpt lat="51.677528992295265" lon="5.52490096539259">
        <ele>6.775526</ele>
        <time>2025-05-05T12:33:30Z</time>
      </trkpt>
      <trkpt lat="51.677618008106947" lon="5.524869030341506">
        <ele>6.775721</ele>
        <time>2025-05-05T12:33:31Z</time>
      </trkpt>
      <trkpt lat="51.677652038633823" lon="5.524816978722811">
        <ele>6.775821</ele>
        <time>2025-05-05T12:33:32Z</time>
      </trkpt>
      <trkpt lat="51.6805250197649" lon="5.529002984985709">
        <ele>7.207345</ele>
        <time>2025-05-05T12:34:32Z</time>
      </trkpt>
      <trkpt lat="51.680930033326149" lon="5.529589969664812">
        <ele>7.26896</ele>
        <time>2025-05-05T12:34:40Z</time>
      </trkpt>
      <trkpt lat="51.681869979947805" lon="5.530999973416328">
        <ele>7.368314</ele>
        <time>2025-05-05T12:34:59Z</time>
      </trkpt>
      <trkpt lat="51.682661985978484" lon="5.532352980226278">
        <ele>7.414145</ele>
        <time>2025-05-05T12:35:17Z</time>
      </trkpt>
      <trkpt lat="51.682989969849586" lon="5.532980030402541">
        <ele>7.427206</ele>
        <time>2025-05-05T12:35:24Z</time>
      </trkpt>
      <trkpt lat="51.684574987739325" lon="5.536326002329588">
        <ele>7.636235</ele>
        <time>2025-05-05T12:36:04Z</time>
      </trkpt>
      <trkpt lat="51.686332002282143" lon="5.539824021980166">
        <ele>8.076791</ele>
        <time>2025-05-05T12:36:47Z</time>
      </trkpt>
      <trkpt lat="51.686899960041046" lon="5.540939988568425">
        <ele>8.217525999999999</ele>
        <time>2025-05-05T12:37:00Z</time>
      </trkpt>
      <trkpt lat="51.688362015411258" lon="5.54404397495091">
        <ele>8.822041000000001</ele>
        <time>2025-05-05T12:37:38Z</time>
      </trkpt>
      <trkpt lat="51.68926902115345" lon="5.545940967276692">
        <ele>9.416081999999999</ele>
        <time>2025-05-05T12:38:04Z</time>
      </trkpt>
      <trkpt lat="51.689396006986499" lon="5.546183958649635">
        <ele>9.499998</ele>
        <time>2025-05-05T12:38:07Z</time>
      </trkpt>
      <trkpt lat="51.689719967544079" lon="5.546779995784164">
        <ele>9.709289</ele>
        <time>2025-05-05T12:38:15Z</time>
      </trkpt>
      <trkpt lat="51.690368978306651" lon="5.548130990937352">
        <ele>9.625624</ele>
        <time>2025-05-05T12:38:31Z</time>
      </trkpt>
      <trkpt lat="51.691410010680556" lon="5.550299976021051">
        <ele>9.005433</ele>
        <time>2025-05-05T12:38:53Z</time>
      </trkpt>
      <trkpt lat="51.692290026694536" lon="5.551909971982241">
        <ele>8.491547000000001</ele>
        <time>2025-05-05T12:39:11Z</time>
      </trkpt>
      <trkpt lat="51.693300968036056" lon="5.553647037595511">
        <ele>8.383101999999999</ele>
        <time>2025-05-05T12:39:33Z</time>
      </trkpt>
      <trkpt lat="51.69479001313448" lon="5.556190023198724">
        <ele>8.727712</ele>
        <time>2025-05-05T12:40:07Z</time>
      </trkpt>
      <trkpt lat="51.695009032264352" lon="5.556747000664473">
        <ele>8.828374999999999</ele>
        <time>2025-05-05T12:40:13Z</time>
      </trkpt>
      <trkpt lat="51.695039961487055" lon="5.556910028681159">
        <ele>8.854395</ele>
        <time>2025-05-05T12:40:15Z</time>
      </trkpt>
      <trkpt lat="51.69502797536552" lon="5.55721202865243">
        <ele>8.900577</ele>
        <time>2025-05-05T12:40:18Z</time>
      </trkpt>
      <trkpt lat="51.694975001737475" lon="5.557592986151576">
        <ele>8.960168</ele>
        <time>2025-05-05T12:40:22Z</time>
      </trkpt>
      <trkpt lat="51.694955974817276" lon="5.557717038318515">
        <ele>8.979661</ele>
        <time>2025-05-05T12:40:23Z</time>
      </trkpt>
      <trkpt lat="51.694943988695741" lon="5.557818962261081">
        <ele>8.995505</ele>
        <time>2025-05-05T12:40:24Z</time>
      </trkpt>
      <trkpt lat="51.695447992533445" lon="5.557972015812993">
        <ele>9.121771000000001</ele>
        <time>2025-05-05T12:40:32Z</time>
      </trkpt>
      <trkpt lat="51.695729959756136" lon="5.55811601690948">
        <ele>9.203010000000001</ele>
        <time>2025-05-05T12:40:37Z</time>
      </trkpt>
      <trkpt lat="51.69655398465693" lon="5.558689003810287">
        <ele>9.450436</ele>
        <time>2025-05-05T12:40:51Z</time>
      </trkpt>
      <trkpt lat="51.697066035121679" lon="5.559137016534805">
        <ele>9.611048</ele>
        <time>2025-05-05T12:41:00Z</time>
      </trkpt>
      <trkpt lat="51.698312005028129" lon="5.560115016996861">
        <ele>10.507104999999999</ele>
        <time>2025-05-05T12:41:24Z</time>
      </trkpt>
      <trkpt lat="51.698436979204416" lon="5.560172013938427">
        <ele>10.592321999999999</ele>
        <time>2025-05-05T12:41:26Z</time>
      </trkpt>
      <trkpt lat="51.698475033044815" lon="5.560211995616555">
        <ele>10.622088</ele>
        <time>2025-05-05T12:41:27Z</time>
      </trkpt>
      <trkpt lat="51.698536975309253" lon="5.560278967022896">
        <ele>10.671042</ele>
        <time>2025-05-05T12:41:29Z</time>
      </trkpt>
      <trkpt lat="51.698683993890882" lon="5.560410981997848">
        <ele>10.781409999999999</ele>
        <time>2025-05-05T12:41:33Z</time>
      </trkpt>
      <trkpt lat="51.698858002200723" lon="5.560540985316038">
        <ele>10.891242</ele>
        <time>2025-05-05T12:41:38Z</time>
      </trkpt>
      <trkpt lat="51.698992028832436" lon="5.560654979199171">
        <ele>10.975766</ele>
        <time>2025-05-05T12:41:41Z</time>
      </trkpt>
      <trkpt lat="51.699229991063476" lon="5.560807026922703">
        <ele>11.118584999999999</ele>
        <time>2025-05-05T12:41:48Z</time>
      </trkpt>
      <trkpt lat="51.699510030448437" lon="5.560979023575783">
        <ele>11.285753</ele>
        <time>2025-05-05T12:41:55Z</time>
      </trkpt>
      <trkpt lat="51.699565015733242" lon="5.56101799942553">
        <ele>11.319274</ele>
        <time>2025-05-05T12:41:56Z</time>
      </trkpt>
      <trkpt lat="51.699669035151601" lon="5.561084970831871">
        <ele>11.381755999999999</ele>
        <time>2025-05-05T12:41:58Z</time>
      </trkpt>
      <trkpt lat="51.699727959930897" lon="5.56112595833838">
        <ele>11.417598999999999</ele>
        <time>2025-05-05T12:41:59Z</time>
      </trkpt>
      <trkpt lat="51.699929963797331" lon="5.561269037425518">
        <ele>11.540678</ele>
        <time>2025-05-05T12:42:03Z</time>
      </trkpt>
      <trkpt lat="51.700101038441062" lon="5.561397029086947">
        <ele>11.645856999999999</ele>
        <time>2025-05-05T12:42:06Z</time>
      </trkpt>
      <trkpt lat="51.700075976550579" lon="5.561515968292952">
        <ele>11.689308</ele>
        <time>2025-05-05T12:42:07Z</time>
      </trkpt>
      <trkpt lat="51.70003498904407" lon="5.562205966562033">
        <ele>11.819074000000001</ele>
        <time>2025-05-05T12:42:15Z</time>
      </trkpt>
      <trkpt lat="51.700032977387309" lon="5.563629968091846">
        <ele>11.87846</ele>
        <time>2025-05-05T12:42:33Z</time>
      </trkpt>
      <trkpt lat="51.700026020407677" lon="5.564082004129887">
        <ele>11.897316</ele>
        <time>2025-05-05T12:42:39Z</time>
      </trkpt>
      <trkpt lat="51.699984027072787" lon="5.564304040744901">
        <ele>11.906995999999999</ele>
        <time>2025-05-05T12:42:41Z</time>
      </trkpt>
      <trkpt lat="51.699935998767614" lon="5.56443203240633">
        <ele>11.913235</ele>
        <time>2025-05-05T12:42:42Z</time>
      </trkpt>
      <trkpt lat="51.699941027909517" lon="5.564601011574268">
        <ele>11.920291000000001</ele>
        <time>2025-05-05T12:42:44Z</time>
      </trkpt>
      <trkpt lat="51.700035994872451" lon="5.565092023462057">
        <ele>11.978267000000001</ele>
        <time>2025-05-05T12:42:50Z</time>
      </trkpt>
      <trkpt lat="51.700234981253743" lon="5.565877994522452">
        <ele>12.091039</ele>
        <time>2025-05-05T12:42:59Z</time>
      </trkpt>
      <trkpt lat="51.700548967346549" lon="5.567041989415884">
        <ele>12.259651</ele>
        <time>2025-05-05T12:43:10Z</time>
      </trkpt>
      <trkpt lat="51.700667990371585" lon="5.567541969940066">
        <ele>12.323051</ele>
        <time>2025-05-05T12:43:15Z</time>
      </trkpt>
      <trkpt lat="51.700705038383603" lon="5.567784961313009">
        <ele>12.343622999999999</ele>
        <time>2025-05-05T12:43:17Z</time>
      </trkpt>
      <trkpt lat="51.700680982321501" lon="5.567954024299979">
        <ele>12.357877</ele>
        <time>2025-05-05T12:43:19Z</time>
      </trkpt>
      <trkpt lat="51.700832024216652" lon="5.568102970719338">
        <ele>12.381356</ele>
        <time>2025-05-05T12:43:23Z</time>
      </trkpt>
      <trkpt lat="51.701888982206583" lon="5.568238003179431">
        <ele>12.522005999999999</ele>
        <time>2025-05-05T12:43:39Z</time>
      </trkpt>
      <trkpt lat="51.701938016340137" lon="5.568233979865909">
        <ele>12.528513999999999</ele>
        <time>2025-05-05T12:43:40Z</time>
      </trkpt>
      <trkpt lat="51.702155023813248" lon="5.568187963217497">
        <ele>12.550611999999999</ele>
        <time>2025-05-05T12:43:44Z</time>
      </trkpt>
      <trkpt lat="51.702407989650965" lon="5.568109005689621">
        <ele>12.556827999999999</ele>
        <time>2025-05-05T12:43:47Z</time>
      </trkpt>
      <trkpt lat="51.70310502871871" lon="5.567825026810169">
        <ele>12.574168</ele>
        <time>2025-05-05T12:43:58Z</time>
      </trkpt>
      <trkpt lat="51.703384984284639" lon="5.567693011835218">
        <ele>12.581204</ele>
        <time>2025-05-05T12:44:02Z</time>
      </trkpt>
      <trkpt lat="51.7038169875741" lon="5.567488996312022">
        <ele>12.592062</ele>
        <time>2025-05-05T12:44:09Z</time>
      </trkpt>
      <trkpt lat="51.703943973407149" lon="5.567452032119036">
        <ele>12.630229999999999</ele>
        <time>2025-05-05T12:44:11Z</time>
      </trkpt>
      <trkpt lat="51.704038018360734" lon="5.567724024876952">
        <ele>12.69492</ele>
        <time>2025-05-05T12:44:15Z</time>
      </trkpt>
      <trkpt lat="51.704192999750376" lon="5.568259041756392">
        <ele>12.817591999999999</ele>
        <time>2025-05-05T12:44:23Z</time>
      </trkpt>
      <trkpt lat="51.704420987516642" lon="5.569092035293579">
        <ele>13.006743</ele>
        <time>2025-05-05T12:44:36Z</time>
      </trkpt>
      <trkpt lat="51.704533975571394" lon="5.569535018876195">
        <ele>13.106249999999999</ele>
        <time>2025-05-05T12:44:42Z</time>
      </trkpt>
      <trkpt lat="51.70486799441278" lon="5.570745030418038">
        <ele>13.086368</ele>
        <time>2025-05-05T12:44:59Z</time>
      </trkpt>
      <trkpt lat="51.704935971647501" lon="5.571004031226039">
        <ele>13.052158</ele>
        <time>2025-05-05T12:45:03Z</time>
      </trkpt>
      <trkpt lat="51.705048037692904" lon="5.571409966796637">
        <ele>12.99811</ele>
        <time>2025-05-05T12:45:08Z</time>
      </trkpt>
      <trkpt lat="51.705390019342303" lon="5.572579996660352">
        <ele>12.840795999999999</ele>
        <time>2025-05-05T12:45:23Z</time>
      </trkpt>
      <trkpt lat="51.705691013485193" lon="5.573718007653952">
        <ele>12.691700000000001</ele>
        <time>2025-05-05T12:45:37Z</time>
      </trkpt>
      <trkpt lat="51.705777011811733" lon="5.574032999575138">
        <ele>12.650223</ele>
        <time>2025-05-05T12:45:40Z</time>
      </trkpt>
      <trkpt lat="51.706012040376663" lon="5.574872028082609">
        <ele>12.539279000000001</ele>
        <time>2025-05-05T12:45:48Z</time>
      </trkpt>
      <trkpt lat="51.706102984026074" lon="5.575017035007477">
        <ele>12.514412</ele>
        <time>2025-05-05T12:45:50Z</time>
      </trkpt>
      <trkpt lat="51.70727301388979" lon="5.575774004682899">
        <ele>13.555692000000001</ele>
        <time>2025-05-05T12:46:13Z</time>
      </trkpt>
      <trkpt lat="51.707358006387949" lon="5.575907025486231">
        <ele>13.665300999999999</ele>
        <time>2025-05-05T12:46:16Z</time>
      </trkpt>
      <trkpt lat="51.707401005551219" lon="5.576052032411099">
        <ele>13.75752</ele>
        <time>2025-05-05T12:46:18Z</time>
      </trkpt>
      <trkpt lat="51.707498989999294" lon="5.57661303319037">
        <ele>14.091901999999999</ele>
        <time>2025-05-05T12:46:25Z</time>
      </trkpt>
      <trkpt lat="51.707551963627338" lon="5.576925007626414">
        <ele>14.261409</ele>
        <time>2025-05-05T12:46:28Z</time>
      </trkpt>
      <trkpt lat="51.707631004974246" lon="5.577442003414035">
        <ele>14.525852</ele>
        <time>2025-05-05T12:46:35Z</time>
      </trkpt>
      <trkpt lat="51.707690013572574" lon="5.578810013830662">
        <ele>15.206868999999999</ele>
        <time>2025-05-05T12:46:50Z</time>
      </trkpt>
      <trkpt lat="51.707963012158871" lon="5.580037040635943">
        <ele>15.657346</ele>
        <time>2025-05-05T12:47:04Z</time>
      </trkpt>
      <trkpt lat="51.708303987979889" lon="5.581567995250225">
        <ele>15.841471</ele>
        <time>2025-05-05T12:47:19Z</time>
      </trkpt>
      <trkpt lat="51.708415970206261" lon="5.58231096714735">
        <ele>15.928129999999999</ele>
        <time>2025-05-05T12:47:26Z</time>
      </trkpt>
      <trkpt lat="51.708453018218279" lon="5.582728972658515">
        <ele>15.994972000000001</ele>
        <time>2025-05-05T12:47:30Z</time>
      </trkpt>
      <trkpt lat="51.708428040146828" lon="5.582946985960007">
        <ele>16.030066999999999</ele>
        <time>2025-05-05T12:47:32Z</time>
      </trkpt>
      <trkpt lat="51.708258977159858" lon="5.583336995914578">
        <ele>16.105402000000002</ele>
        <time>2025-05-05T12:47:36Z</time>
      </trkpt>
      <trkpt lat="51.708222012966871" lon="5.583530031144619">
        <ele>16.137383</ele>
        <time>2025-05-05T12:47:38Z</time>
      </trkpt>
      <trkpt lat="51.708530969917774" lon="5.58705797418952">
        <ele>16.878885</ele>
        <time>2025-05-05T12:48:15Z</time>
      </trkpt>
      <trkpt lat="51.708597019314766" lon="5.587582010775805">
        <ele>17.011337000000001</ele>
        <time>2025-05-05T12:48:21Z</time>
      </trkpt>
      <trkpt lat="51.709221974015236" lon="5.59098900295794">
        <ele>17.383064999999998</ele>
        <time>2025-05-05T12:48:55Z</time>
      </trkpt>
      <trkpt lat="51.708128973841667" lon="5.591702973470092">
        <ele>17.478019</ele>
        <time>2025-05-05T12:49:13Z</time>
      </trkpt>
      <trkpt lat="51.708060996606946" lon="5.591794000938535">
        <ele>17.485133000000001</ele>
        <time>2025-05-05T12:49:14Z</time>
      </trkpt>
      <trkpt lat="51.707586999982595" lon="5.595444990321994">
        <ele>17.682296999999998</ele>
        <time>2025-05-05T12:49:48Z</time>
      </trkpt>
      <trkpt lat="51.707346020266414" lon="5.59728498570621">
        <ele>18.010480000000001</ele>
        <time>2025-05-05T12:50:07Z</time>
      </trkpt>
      <trkpt lat="51.707189027220011" lon="5.598449986428022">
        <ele>18.146205999999999</ele>
        <time>2025-05-05T12:50:23Z</time>
      </trkpt>
      <trkpt lat="51.705965017899871" lon="5.607903013005853">
        <ele>18.106712999999999</ele>
        <time>2025-05-05T12:52:23Z</time>
      </trkpt>
      <trkpt lat="51.705651031807065" lon="5.61041196808219">
        <ele>18.294837000000001</ele>
        <time>2025-05-05T12:52:56Z</time>
      </trkpt>
      <trkpt lat="51.7056630179286" lon="5.61047600582242">
        <ele>18.302410999999999</ele>
        <time>2025-05-05T12:52:57Z</time>
      </trkpt>
      <trkpt lat="51.704213032498956" lon="5.621679006144404">
        <ele>19.554905000000002</ele>
        <time>2025-05-05T12:55:26Z</time>
      </trkpt>
      <trkpt lat="51.703910026699305" lon="5.624084025621414">
        <ele>19.728435000000001</ele>
        <time>2025-05-05T12:55:57Z</time>
      </trkpt>
      <trkpt lat="51.703904997557402" lon="5.624149991199374">
        <ele>19.733805</ele>
        <time>2025-05-05T12:55:58Z</time>
      </trkpt>
      <trkpt lat="51.7035579867661" lon="5.626727007329464">
        <ele>19.913338</ele>
        <time>2025-05-05T12:56:32Z</time>
      </trkpt>
      <trkpt lat="51.703197984024882" lon="5.629499992355704">
        <ele>19.778445000000001</ele>
        <time>2025-05-05T12:57:07Z</time>
      </trkpt>
      <trkpt lat="51.702796993777156" lon="5.632701963186264">
        <ele>19.495875999999999</ele>
        <time>2025-05-05T12:57:46Z</time>
      </trkpt>
      <trkpt lat="51.702690962702036" lon="5.633501010015607">
        <ele>19.510399</ele>
        <time>2025-05-05T12:57:57Z</time>
      </trkpt>
      <trkpt lat="51.702633965760469" lon="5.633911974728108">
        <ele>19.517885</ele>
        <time>2025-05-05T12:58:02Z</time>
      </trkpt>
      <trkpt lat="51.70261200517416" lon="5.634058993309736">
        <ele>19.520572999999999</ele>
        <time>2025-05-05T12:58:04Z</time>
      </trkpt>
      <trkpt lat="51.702252002432942" lon="5.636884029954672">
        <ele>19.62322</ele>
        <time>2025-05-05T12:58:42Z</time>
      </trkpt>
      <trkpt lat="51.702227024361491" lon="5.636939015239477">
        <ele>19.626241</ele>
        <time>2025-05-05T12:58:43Z</time>
      </trkpt>
      <trkpt lat="51.702210009098053" lon="5.637079998850822">
        <ele>19.632604000000001</ele>
        <time>2025-05-05T12:58:44Z</time>
      </trkpt>
      <trkpt lat="51.702095009386539" lon="5.638011982664466">
        <ele>19.642462999999999</ele>
        <time>2025-05-05T12:58:56Z</time>
      </trkpt>
      <trkpt lat="51.701806001365185" lon="5.640327986329794">
        <ele>19.360700000000001</ele>
        <time>2025-05-05T12:59:23Z</time>
      </trkpt>
      <trkpt lat="51.701436024159193" lon="5.643271962180734">
        <ele>19.878287</ele>
        <time>2025-05-05T13:00:05Z</time>
      </trkpt>
      <trkpt lat="51.701375003904104" lon="5.643757022917271">
        <ele>19.901243000000001</ele>
        <time>2025-05-05T13:00:11Z</time>
      </trkpt>
      <trkpt lat="51.700619962066412" lon="5.64962100237608">
        <ele>19.067014</ele>
        <time>2025-05-05T13:01:22Z</time>
      </trkpt>
      <trkpt lat="51.70063697732985" lon="5.650370009243488">
        <ele>19.025935</ele>
        <time>2025-05-05T13:01:31Z</time>
      </trkpt>
      <trkpt lat="51.700933026149869" lon="5.652563972398639">
        <ele>19.014548000000001</ele>
        <time>2025-05-05T13:02:00Z</time>
      </trkpt>
      <trkpt lat="51.701237037777901" lon="5.654785009101033">
        <ele>19.367616999999999</ele>
        <time>2025-05-05T13:02:30Z</time>
      </trkpt>
      <trkpt lat="51.701199989765882" lon="5.654921969398856">
        <ele>19.390816999999998</ele>
        <time>2025-05-05T13:02:32Z</time>
      </trkpt>
      <trkpt lat="51.700961021706462" lon="5.655115004628897">
        <ele>19.457777</ele>
        <time>2025-05-05T13:02:37Z</time>
      </trkpt>
      <trkpt lat="51.700880974531174" lon="5.655283983796835">
        <ele>19.490798000000002</ele>
        <time>2025-05-05T13:02:40Z</time>
      </trkpt>
      <trkpt lat="51.70087200589478" lon="5.655478024855256">
        <ele>19.521006</ele>
        <time>2025-05-05T13:02:43Z</time>
      </trkpt>
      <trkpt lat="51.700935959815979" lon="5.656423000618815">
        <ele>19.668616</ele>
        <time>2025-05-05T13:02:55Z</time>
      </trkpt>
      <trkpt lat="51.700919028371572" lon="5.656974026933312">
        <ele>19.754279</ele>
        <time>2025-05-05T13:03:03Z</time>
      </trkpt>
      <trkpt lat="51.700781984254718" lon="5.659105964004993">
        <ele>20.000817000000001</ele>
        <time>2025-05-05T13:03:31Z</time>
      </trkpt>
      <trkpt lat="51.700650975108147" lon="5.659093977883458">
        <ele>20.022521000000001</ele>
        <time>2025-05-05T13:03:33Z</time>
      </trkpt>
      <trkpt lat="51.700394991785288" lon="5.659141000360251">
        <ele>20.065141000000001</ele>
        <time>2025-05-05T13:03:37Z</time>
      </trkpt>
      <trkpt lat="51.699811024591327" lon="5.659315008670092">
        <ele>20.181481000000002</ele>
        <time>2025-05-05T13:03:46Z</time>
      </trkpt>
      <trkpt lat="51.698153000324965" lon="5.659439982846379">
        <ele>20.609711999999998</ele>
        <time>2025-05-05T13:04:12Z</time>
      </trkpt>
      <trkpt lat="51.696775015443563" lon="5.659904005005956">
        <ele>21.012726000000001</ele>
        <time>2025-05-05T13:04:35Z</time>
      </trkpt>
      <trkpt lat="51.696712989360094" lon="5.659950021654367">
        <ele>21.032263</ele>
        <time>2025-05-05T13:04:36Z</time>
      </trkpt>
      <trkpt lat="51.696608969941735" lon="5.660389987751842">
        <ele>21.10576</ele>
        <time>2025-05-05T13:04:40Z</time>
      </trkpt>
      <trkpt lat="51.696545016020536" lon="5.660745967179537">
        <ele>21.089231000000002</ele>
        <time>2025-05-05T13:04:44Z</time>
      </trkpt>
      <trkpt lat="51.69597202911973" lon="5.663869986310601">
        <ele>20.925291000000001</ele>
        <time>2025-05-05T13:05:13Z</time>
      </trkpt>
      <trkpt lat="51.695916038006544" lon="5.664498964324594">
        <ele>20.881594</ele>
        <time>2025-05-05T13:05:19Z</time>
      </trkpt>
      <trkpt lat="51.695844037458301" lon="5.665694978088141">
        <ele>20.798966</ele>
        <time>2025-05-05T13:05:29Z</time>
      </trkpt>
      <trkpt lat="51.695834985002875" lon="5.665882984176278">
        <ele>20.786000000000001</ele>
        <time>2025-05-05T13:05:31Z</time>
      </trkpt>
      <trkpt lat="51.695816963911057" lon="5.666167968884111">
        <ele>20.778842000000001</ele>
        <time>2025-05-05T13:05:34Z</time>
      </trkpt>
      <trkpt lat="51.695805983617902" lon="5.666367039084435">
        <ele>20.778842000000001</ele>
        <time>2025-05-05T13:05:35Z</time>
      </trkpt>
      <trkpt lat="51.69580296613276" lon="5.66642596386373">
        <ele>20.778842000000001</ele>
        <time>2025-05-05T13:05:36Z</time>
      </trkpt>
      <trkpt lat="51.695791985839605" lon="5.66661698743701">
        <ele>20.778842000000001</ele>
        <time>2025-05-05T13:05:38Z</time>
      </trkpt>
      <trkpt lat="51.695787040516734" lon="5.666716983541846">
        <ele>20.778842000000001</ele>
        <time>2025-05-05T13:05:39Z</time>
      </trkpt>
      <trkpt lat="51.695770025253296" lon="5.667034992948175">
        <ele>20.778842000000001</ele>
        <time>2025-05-05T13:05:43Z</time>
      </trkpt>
      <trkpt lat="51.695750998333097" lon="5.66734897904098">
        <ele>20.778842000000001</ele>
        <time>2025-05-05T13:05:47Z</time>
      </trkpt>
      <trkpt lat="51.695159990340471" lon="5.667270021513104">
        <ele>20.778842000000001</ele>
        <time>2025-05-05T13:05:58Z</time>
      </trkpt>
      <trkpt lat="51.695134006440639" lon="5.667723985388875">
        <ele>20.778842000000001</ele>
        <time>2025-05-05T13:06:04Z</time>
      </trkpt>
      <trkpt lat="51.695072986185551" lon="5.668803993612528">
        <ele>20.778842000000001</ele>
        <time>2025-05-05T13:06:17Z</time>
      </trkpt>
      <trkpt lat="51.695007020607591" lon="5.668801981955767">
        <ele>20.778842000000001</ele>
        <time>2025-05-05T13:06:18Z</time>
      </trkpt>
    </trkseg>
  </trk>

</gpx>